<?xml version='1.0' encoding='UTF-8'?>
<gpx version="1.1" creator="https://www.komoot.de" xmlns="http://www.topografix.com/GPX/1/1" xmlns:xsi="http://www.w3.org/2001/XMLSchema-instance" xsi:schemaLocation="http://www.topografix.com/GPX/1/1 http://www.topografix.com/GPX/1/1/gpx.xsd">
  <metadata>
    <name>Circuit vélo PBVF 4</name>
    <author>
      <link href="https://www.komoot.de">
        <text>komoot</text>
        <type>text/html</type>
      </link>
    </author>
  </metadata>
  <trk>
    <name>Circuit vélo PBVF 4</name>
    <trkseg>
      <trkpt lat="44.022233" lon="3.302263">
        <ele>493.382352</ele>
        <time>2025-02-27T10:16:10.618Z</time>
      </trkpt>
      <trkpt lat="44.022270" lon="3.302150">
        <ele>493.382352</ele>
        <time>2025-02-27T10:16:11.924Z</time>
      </trkpt>
      <trkpt lat="44.022323" lon="3.302088">
        <ele>493.382352</ele>
        <time>2025-02-27T10:16:12.805Z</time>
      </trkpt>
      <trkpt lat="44.022318" lon="3.302041">
        <ele>493.382352</ele>
        <time>2025-02-27T10:16:16.561Z</time>
      </trkpt>
      <trkpt lat="44.022436" lon="3.301924">
        <ele>493.382352</ele>
        <time>2025-02-27T10:16:18.437Z</time>
      </trkpt>
      <trkpt lat="44.022600" lon="3.301843">
        <ele>493.382352</ele>
        <time>2025-02-27T10:16:20.616Z</time>
      </trkpt>
      <trkpt lat="44.022863" lon="3.301688">
        <ele>493.382352</ele>
        <time>2025-02-27T10:16:24.254Z</time>
      </trkpt>
      <trkpt lat="44.022904" lon="3.301664">
        <ele>493.382352</ele>
        <time>2025-02-27T10:16:24.876Z</time>
      </trkpt>
      <trkpt lat="44.023001" lon="3.301605">
        <ele>493.307519</ele>
        <time>2025-02-27T10:16:26.328Z</time>
      </trkpt>
      <trkpt lat="44.023561" lon="3.301266">
        <ele>492.361963</ele>
        <time>2025-02-27T10:16:34.521Z</time>
      </trkpt>
      <trkpt lat="44.023637" lon="3.301142">
        <ele>492.180581</ele>
        <time>2025-02-27T10:16:35.918Z</time>
      </trkpt>
      <trkpt lat="44.023672" lon="3.301019">
        <ele>492.033323</ele>
        <time>2025-02-27T10:16:37.016Z</time>
      </trkpt>
      <trkpt lat="44.023683" lon="3.300749">
        <ele>491.732270</ele>
        <time>2025-02-27T10:16:39.219Z</time>
      </trkpt>
      <trkpt lat="44.023690" lon="3.300511">
        <ele>491.467101</ele>
        <time>2025-02-27T10:16:41.089Z</time>
      </trkpt>
      <trkpt lat="44.023719" lon="3.300341">
        <ele>491.272601</ele>
        <time>2025-02-27T10:16:42.424Z</time>
      </trkpt>
      <trkpt lat="44.023727" lon="3.300310">
        <ele>491.235935</ele>
        <time>2025-02-27T10:16:42.681Z</time>
      </trkpt>
      <trkpt lat="44.023741" lon="3.300272">
        <ele>491.188403</ele>
        <time>2025-02-27T10:16:43.010Z</time>
      </trkpt>
      <trkpt lat="44.023783" lon="3.300180">
        <ele>491.067089</ele>
        <time>2025-02-27T10:16:43.828Z</time>
      </trkpt>
      <trkpt lat="44.023820" lon="3.300114">
        <ele>490.973925</ele>
        <time>2025-02-27T10:16:44.472Z</time>
      </trkpt>
      <trkpt lat="44.023862" lon="3.300052">
        <ele>490.879100</ele>
        <time>2025-02-27T10:16:45.119Z</time>
      </trkpt>
      <trkpt lat="44.023916" lon="3.299994">
        <ele>490.773468</ele>
        <time>2025-02-27T10:16:45.841Z</time>
      </trkpt>
      <trkpt lat="44.024125" lon="3.299809">
        <ele>490.284835</ele>
        <time>2025-02-27T10:16:48.466Z</time>
      </trkpt>
      <trkpt lat="44.024355" lon="3.299594">
        <ele>489.638836</ele>
        <time>2025-02-27T10:16:51.325Z</time>
      </trkpt>
      <trkpt lat="44.024671" lon="3.299306">
        <ele>488.758143</ele>
        <time>2025-02-27T10:16:55.063Z</time>
      </trkpt>
      <trkpt lat="44.025283" lon="3.298761">
        <ele>487.064140</ele>
        <time>2025-02-27T10:17:02.713Z</time>
      </trkpt>
      <trkpt lat="44.025673" lon="3.298431">
        <ele>486.668991</ele>
        <time>2025-02-27T10:17:08.160Z</time>
      </trkpt>
      <trkpt lat="44.026327" lon="3.297841">
        <ele>487.853462</ele>
        <time>2025-02-27T10:17:21.690Z</time>
      </trkpt>
      <trkpt lat="44.026661" lon="3.297537">
        <ele>488.459974</ele>
        <time>2025-02-27T10:17:31.814Z</time>
      </trkpt>
      <trkpt lat="44.027784" lon="3.296637">
        <ele>491.572979</ele>
        <time>2025-02-27T10:18:11.105Z</time>
      </trkpt>
      <trkpt lat="44.028369" lon="3.296055">
        <ele>493.633695</ele>
        <time>2025-02-27T10:18:29.640Z</time>
      </trkpt>
      <trkpt lat="44.028947" lon="3.295375">
        <ele>494.948424</ele>
        <time>2025-02-27T10:18:43.566Z</time>
      </trkpt>
      <trkpt lat="44.029222" lon="3.294967">
        <ele>495.449362</ele>
        <time>2025-02-27T10:18:50.581Z</time>
      </trkpt>
      <trkpt lat="44.029333" lon="3.294728">
        <ele>495.704222</ele>
        <time>2025-02-27T10:18:54.346Z</time>
      </trkpt>
      <trkpt lat="44.029421" lon="3.294374">
        <ele>496.039728</ele>
        <time>2025-02-27T10:18:59.615Z</time>
      </trkpt>
      <trkpt lat="44.029427" lon="3.294110">
        <ele>496.276319</ele>
        <time>2025-02-27T10:19:03.501Z</time>
      </trkpt>
      <trkpt lat="44.029313" lon="3.293401">
        <ele>497.389968</ele>
        <time>2025-02-27T10:19:15.013Z</time>
      </trkpt>
      <trkpt lat="44.029317" lon="3.293101">
        <ele>497.973600</ele>
        <time>2025-02-27T10:19:20.047Z</time>
      </trkpt>
      <trkpt lat="44.029505" lon="3.291298">
        <ele>501.499507</ele>
        <time>2025-02-27T10:19:55.469Z</time>
      </trkpt>
      <trkpt lat="44.029539" lon="3.291027">
        <ele>501.954800</ele>
        <time>2025-02-27T10:20:01.578Z</time>
      </trkpt>
      <trkpt lat="44.029620" lon="3.290677">
        <ele>502.563333</ele>
        <time>2025-02-27T10:20:09.330Z</time>
      </trkpt>
      <trkpt lat="44.029851" lon="3.290091">
        <ele>503.669389</ele>
        <time>2025-02-27T10:20:22.260Z</time>
      </trkpt>
      <trkpt lat="44.029993" lon="3.289829">
        <ele>504.212408</ele>
        <time>2025-02-27T10:20:28.079Z</time>
      </trkpt>
      <trkpt lat="44.030954" lon="3.288679">
        <ele>505.416277</ele>
        <time>2025-02-27T10:20:50.246Z</time>
      </trkpt>
      <trkpt lat="44.031056" lon="3.288535">
        <ele>505.390648</ele>
        <time>2025-02-27T10:20:52.246Z</time>
      </trkpt>
      <trkpt lat="44.031289" lon="3.288102">
        <ele>505.322076</ele>
        <time>2025-02-27T10:20:57.427Z</time>
      </trkpt>
      <trkpt lat="44.031442" lon="3.287894">
        <ele>505.284348</ele>
        <time>2025-02-27T10:21:00.289Z</time>
      </trkpt>
      <trkpt lat="44.031642" lon="3.287736">
        <ele>505.243787</ele>
        <time>2025-02-27T10:21:03.287Z</time>
      </trkpt>
      <trkpt lat="44.032065" lon="3.287577">
        <ele>504.495130</ele>
        <time>2025-02-27T10:21:08.567Z</time>
      </trkpt>
      <trkpt lat="44.032381" lon="3.287542">
        <ele>503.751400</ele>
        <time>2025-02-27T10:21:12.019Z</time>
      </trkpt>
      <trkpt lat="44.032680" lon="3.287588">
        <ele>503.045624</ele>
        <time>2025-02-27T10:21:15.076Z</time>
      </trkpt>
      <trkpt lat="44.033049" lon="3.287761">
        <ele>502.132039</ele>
        <time>2025-02-27T10:21:18.915Z</time>
      </trkpt>
      <trkpt lat="44.033318" lon="3.288021">
        <ele>501.363513</ele>
        <time>2025-02-27T10:21:22.211Z</time>
      </trkpt>
      <trkpt lat="44.033568" lon="3.288322">
        <ele>501.238816</ele>
        <time>2025-02-27T10:21:25.740Z</time>
      </trkpt>
      <trkpt lat="44.033686" lon="3.288575">
        <ele>501.531173</ele>
        <time>2025-02-27T10:21:28.338Z</time>
      </trkpt>
      <trkpt lat="44.033838" lon="3.288822">
        <ele>501.846362</ele>
        <time>2025-02-27T10:21:31.727Z</time>
      </trkpt>
      <trkpt lat="44.033993" lon="3.288980">
        <ele>502.105484</ele>
        <time>2025-02-27T10:21:35.351Z</time>
      </trkpt>
      <trkpt lat="44.034181" lon="3.289116">
        <ele>502.391222</ele>
        <time>2025-02-27T10:21:40.276Z</time>
      </trkpt>
      <trkpt lat="44.034633" lon="3.289271">
        <ele>503.018960</ele>
        <time>2025-02-27T10:21:53.446Z</time>
      </trkpt>
      <trkpt lat="44.035492" lon="3.289339">
        <ele>504.911729</ele>
        <time>2025-02-27T10:22:20.717Z</time>
      </trkpt>
      <trkpt lat="44.035692" lon="3.289402">
        <ele>505.457409</ele>
        <time>2025-02-27T10:22:26.853Z</time>
      </trkpt>
      <trkpt lat="44.036387" lon="3.289801">
        <ele>507.458141</ele>
        <time>2025-02-27T10:22:43.637Z</time>
      </trkpt>
      <trkpt lat="44.036668" lon="3.290049">
        <ele>508.370408</ele>
        <time>2025-02-27T10:22:48.933Z</time>
      </trkpt>
      <trkpt lat="44.036949" lon="3.290437">
        <ele>509.638961</ele>
        <time>2025-02-27T10:22:57.541Z</time>
      </trkpt>
      <trkpt lat="44.037186" lon="3.290895">
        <ele>510.938740</ele>
        <time>2025-02-27T10:23:09.218Z</time>
      </trkpt>
      <trkpt lat="44.037236" lon="3.290951">
        <ele>511.144410</ele>
        <time>2025-02-27T10:23:11.397Z</time>
      </trkpt>
      <trkpt lat="44.037352" lon="3.291022">
        <ele>511.550456</ele>
        <time>2025-02-27T10:23:15.761Z</time>
      </trkpt>
      <trkpt lat="44.037485" lon="3.291014">
        <ele>511.976980</ele>
        <time>2025-02-27T10:23:20.551Z</time>
      </trkpt>
      <trkpt lat="44.037603" lon="3.290959">
        <ele>512.375706</ele>
        <time>2025-02-27T10:23:25.163Z</time>
      </trkpt>
      <trkpt lat="44.037719" lon="3.290812">
        <ele>512.878465</ele>
        <time>2025-02-27T10:23:30.987Z</time>
      </trkpt>
      <trkpt lat="44.037975" lon="3.290061">
        <ele>513.519203</ele>
        <time>2025-02-27T10:23:48.189Z</time>
      </trkpt>
      <trkpt lat="44.038074" lon="3.289881">
        <ele>513.227744</ele>
        <time>2025-02-27T10:23:51.602Z</time>
      </trkpt>
      <trkpt lat="44.038189" lon="3.289787">
        <ele>512.989132</ele>
        <time>2025-02-27T10:23:53.855Z</time>
      </trkpt>
      <trkpt lat="44.038314" lon="3.289746">
        <ele>512.759386</ele>
        <time>2025-02-27T10:23:55.599Z</time>
      </trkpt>
      <trkpt lat="44.038428" lon="3.289768">
        <ele>512.553497</ele>
        <time>2025-02-27T10:23:56.953Z</time>
      </trkpt>
      <trkpt lat="44.038568" lon="3.289886">
        <ele>512.260664</ele>
        <time>2025-02-27T10:23:58.720Z</time>
      </trkpt>
      <trkpt lat="44.038673" lon="3.290036">
        <ele>511.991420</ele>
        <time>2025-02-27T10:24:00.232Z</time>
      </trkpt>
      <trkpt lat="44.038817" lon="3.290378">
        <ele>511.481722</ele>
        <time>2025-02-27T10:24:02.936Z</time>
      </trkpt>
      <trkpt lat="44.038858" lon="3.290627">
        <ele>511.153218</ele>
        <time>2025-02-27T10:24:04.619Z</time>
      </trkpt>
      <trkpt lat="44.038914" lon="3.291469">
        <ele>509.557217</ele>
        <time>2025-02-27T10:24:10.147Z</time>
      </trkpt>
      <trkpt lat="44.039017" lon="3.291799">
        <ele>508.754616</ele>
        <time>2025-02-27T10:24:12.718Z</time>
      </trkpt>
      <trkpt lat="44.039147" lon="3.292010">
        <ele>508.134661</ele>
        <time>2025-02-27T10:24:14.778Z</time>
      </trkpt>
      <trkpt lat="44.039310" lon="3.292175">
        <ele>507.509056</ele>
        <time>2025-02-27T10:24:16.958Z</time>
      </trkpt>
      <trkpt lat="44.040347" lon="3.292898">
        <ele>504.403198</ele>
        <time>2025-02-27T10:24:30.364Z</time>
      </trkpt>
      <trkpt lat="44.041203" lon="3.293552">
        <ele>502.554133</ele>
        <time>2025-02-27T10:24:41.242Z</time>
      </trkpt>
      <trkpt lat="44.041435" lon="3.293781">
        <ele>502.015532</ele>
        <time>2025-02-27T10:24:44.311Z</time>
      </trkpt>
      <trkpt lat="44.041632" lon="3.294030">
        <ele>501.384764</ele>
        <time>2025-02-27T10:24:47.141Z</time>
      </trkpt>
      <trkpt lat="44.041868" lon="3.294276">
        <ele>500.553021</ele>
        <time>2025-02-27T10:24:50.284Z</time>
      </trkpt>
      <trkpt lat="44.042493" lon="3.294623">
        <ele>498.655057</ele>
        <time>2025-02-27T10:24:57.256Z</time>
      </trkpt>
      <trkpt lat="44.042822" lon="3.294734">
        <ele>497.700238</ele>
        <time>2025-02-27T10:25:00.706Z</time>
      </trkpt>
      <trkpt lat="44.043238" lon="3.294793">
        <ele>496.537379</ele>
        <time>2025-02-27T10:25:04.948Z</time>
      </trkpt>
      <trkpt lat="44.043950" lon="3.295203">
        <ele>494.567118</ele>
        <time>2025-02-27T10:25:12.713Z</time>
      </trkpt>
      <trkpt lat="44.045903" lon="3.295979">
        <ele>491.075975</ele>
        <time>2025-02-27T10:25:35.095Z</time>
      </trkpt>
      <trkpt lat="44.046544" lon="3.296404">
        <ele>490.394491</ele>
        <time>2025-02-27T10:25:50.357Z</time>
      </trkpt>
      <trkpt lat="44.046752" lon="3.296416">
        <ele>489.690916</ele>
        <time>2025-02-27T10:25:53.103Z</time>
      </trkpt>
      <trkpt lat="44.047078" lon="3.296272">
        <ele>488.432810</ele>
        <time>2025-02-27T10:25:56.693Z</time>
      </trkpt>
      <trkpt lat="44.047188" lon="3.296276">
        <ele>488.028061</ele>
        <time>2025-02-27T10:25:57.756Z</time>
      </trkpt>
      <trkpt lat="44.047246" lon="3.296314">
        <ele>487.792249</ele>
        <time>2025-02-27T10:25:58.374Z</time>
      </trkpt>
      <trkpt lat="44.047323" lon="3.296420">
        <ele>487.393808</ele>
        <time>2025-02-27T10:25:59.401Z</time>
      </trkpt>
      <trkpt lat="44.047381" lon="3.296627">
        <ele>486.806425</ele>
        <time>2025-02-27T10:26:00.901Z</time>
      </trkpt>
      <trkpt lat="44.047302" lon="3.297209">
        <ele>485.240523</ele>
        <time>2025-02-27T10:26:04.825Z</time>
      </trkpt>
      <trkpt lat="44.047298" lon="3.297448">
        <ele>484.608478</ele>
        <time>2025-02-27T10:26:06.390Z</time>
      </trkpt>
      <trkpt lat="44.047343" lon="3.297670">
        <ele>483.998656</ele>
        <time>2025-02-27T10:26:07.910Z</time>
      </trkpt>
      <trkpt lat="44.047445" lon="3.297949">
        <ele>483.680679</ele>
        <time>2025-02-27T10:26:10.005Z</time>
      </trkpt>
      <trkpt lat="44.047620" lon="3.298319">
        <ele>483.528783</ele>
        <time>2025-02-27T10:26:13.178Z</time>
      </trkpt>
      <trkpt lat="44.047772" lon="3.298536">
        <ele>483.424871</ele>
        <time>2025-02-27T10:26:15.866Z</time>
      </trkpt>
      <trkpt lat="44.048321" lon="3.298977">
        <ele>483.122405</ele>
        <time>2025-02-27T10:26:30.261Z</time>
      </trkpt>
      <trkpt lat="44.048535" lon="3.299272">
        <ele>482.978669</ele>
        <time>2025-02-27T10:26:37.730Z</time>
      </trkpt>
      <trkpt lat="44.048636" lon="3.299411">
        <ele>482.910887</ele>
        <time>2025-02-27T10:26:40.973Z</time>
      </trkpt>
      <trkpt lat="44.048957" lon="3.299756">
        <ele>482.552511</ele>
        <time>2025-02-27T10:26:48.486Z</time>
      </trkpt>
      <trkpt lat="44.049500" lon="3.300166">
        <ele>481.989425</ele>
        <time>2025-02-27T10:26:56.077Z</time>
      </trkpt>
      <trkpt lat="44.049990" lon="3.300436">
        <ele>481.509078</ele>
        <time>2025-02-27T10:27:01.704Z</time>
      </trkpt>
      <trkpt lat="44.051470" lon="3.300932">
        <ele>479.283680</ele>
        <time>2025-02-27T10:27:18.283Z</time>
      </trkpt>
      <trkpt lat="44.051655" lon="3.300971">
        <ele>478.987523</ele>
        <time>2025-02-27T10:27:20.845Z</time>
      </trkpt>
      <trkpt lat="44.052657" lon="3.301026">
        <ele>476.805144</ele>
        <time>2025-02-27T10:27:34.142Z</time>
      </trkpt>
      <trkpt lat="44.053090" lon="3.301121">
        <ele>475.703240</ele>
        <time>2025-02-27T10:27:38.838Z</time>
      </trkpt>
      <trkpt lat="44.053657" lon="3.301466">
        <ele>474.147619</ele>
        <time>2025-02-27T10:27:44.781Z</time>
      </trkpt>
      <trkpt lat="44.054145" lon="3.302050">
        <ele>473.737155</ele>
        <time>2025-02-27T10:27:50.954Z</time>
      </trkpt>
      <trkpt lat="44.054340" lon="3.302241">
        <ele>473.669447</ele>
        <time>2025-02-27T10:27:53.506Z</time>
      </trkpt>
      <trkpt lat="44.054603" lon="3.302363">
        <ele>473.590733</ele>
        <time>2025-02-27T10:27:57.363Z</time>
      </trkpt>
      <trkpt lat="44.054816" lon="3.302380">
        <ele>473.530157</ele>
        <time>2025-02-27T10:28:01.733Z</time>
      </trkpt>
      <trkpt lat="44.054989" lon="3.302330">
        <ele>473.479989</ele>
        <time>2025-02-27T10:28:06.151Z</time>
      </trkpt>
      <trkpt lat="44.055197" lon="3.302186">
        <ele>473.414026</ele>
        <time>2025-02-27T10:28:13.118Z</time>
      </trkpt>
      <trkpt lat="44.055203" lon="3.302182">
        <ele>473.412137</ele>
        <time>2025-02-27T10:28:13.339Z</time>
      </trkpt>
      <trkpt lat="44.055370" lon="3.302002">
        <ele>473.612350</ele>
        <time>2025-02-27T10:28:20.512Z</time>
      </trkpt>
      <trkpt lat="44.055546" lon="3.301758">
        <ele>474.195695</ele>
        <time>2025-02-27T10:28:29.443Z</time>
      </trkpt>
      <trkpt lat="44.055909" lon="3.301140">
        <ele>475.542509</ele>
        <time>2025-02-27T10:28:49.235Z</time>
      </trkpt>
      <trkpt lat="44.056140" lon="3.300830">
        <ele>476.296037</ele>
        <time>2025-02-27T10:28:58.303Z</time>
      </trkpt>
      <trkpt lat="44.056643" lon="3.300318">
        <ele>477.296699</ele>
        <time>2025-02-27T10:29:06.945Z</time>
      </trkpt>
      <trkpt lat="44.056944" lon="3.300083">
        <ele>475.702766</ele>
        <time>2025-02-27T10:29:10.331Z</time>
      </trkpt>
      <trkpt lat="44.057328" lon="3.299920">
        <ele>473.848698</ele>
        <time>2025-02-27T10:29:14.048Z</time>
      </trkpt>
      <trkpt lat="44.057791" lon="3.299765">
        <ele>471.649458</ele>
        <time>2025-02-27T10:29:18.391Z</time>
      </trkpt>
      <trkpt lat="44.058012" lon="3.299721">
        <ele>470.618441</ele>
        <time>2025-02-27T10:29:20.439Z</time>
      </trkpt>
      <trkpt lat="44.058450" lon="3.299740">
        <ele>468.919549</ele>
        <time>2025-02-27T10:29:24.497Z</time>
      </trkpt>
      <trkpt lat="44.059165" lon="3.299976">
        <ele>467.095918</ele>
        <time>2025-02-27T10:29:31.779Z</time>
      </trkpt>
      <trkpt lat="44.060098" lon="3.300449">
        <ele>464.965995</ele>
        <time>2025-02-27T10:29:43.990Z</time>
      </trkpt>
      <trkpt lat="44.060452" lon="3.300520">
        <ele>465.550454</ele>
        <time>2025-02-27T10:29:49.929Z</time>
      </trkpt>
      <trkpt lat="44.060742" lon="3.300509">
        <ele>466.024528</ele>
        <time>2025-02-27T10:29:55.879Z</time>
      </trkpt>
      <trkpt lat="44.061725" lon="3.300376">
        <ele>467.638454</ele>
        <time>2025-02-27T10:30:21.697Z</time>
      </trkpt>
      <trkpt lat="44.062467" lon="3.300231">
        <ele>467.796550</ele>
        <time>2025-02-27T10:30:38.598Z</time>
      </trkpt>
      <trkpt lat="44.063105" lon="3.300177">
        <ele>467.819624</ele>
        <time>2025-02-27T10:30:47.252Z</time>
      </trkpt>
      <trkpt lat="44.063471" lon="3.300070">
        <ele>467.833124</ele>
        <time>2025-02-27T10:30:51.303Z</time>
      </trkpt>
      <trkpt lat="44.063471" lon="3.300070">
        <ele>467.833124</ele>
        <time>2025-02-27T10:30:51.308Z</time>
      </trkpt>
      <trkpt lat="44.064868" lon="3.299276">
        <ele>466.724399</ele>
        <time>2025-02-27T10:31:07.549Z</time>
      </trkpt>
      <trkpt lat="44.064980" lon="3.299158">
        <ele>466.611984</ele>
        <time>2025-02-27T10:31:09.863Z</time>
      </trkpt>
      <trkpt lat="44.065766" lon="3.297881">
        <ele>471.464285</ele>
        <time>2025-02-27T10:31:45.705Z</time>
      </trkpt>
      <trkpt lat="44.065937" lon="3.297553">
        <ele>473.032233</ele>
        <time>2025-02-27T10:31:58.408Z</time>
      </trkpt>
      <trkpt lat="44.066047" lon="3.297253">
        <ele>474.335381</ele>
        <time>2025-02-27T10:32:09.647Z</time>
      </trkpt>
      <trkpt lat="44.066141" lon="3.296859">
        <ele>475.941668</ele>
        <time>2025-02-27T10:32:24.222Z</time>
      </trkpt>
      <trkpt lat="44.066398" lon="3.295514">
        <ele>482.533352</ele>
        <time>2025-02-27T10:33:11.443Z</time>
      </trkpt>
      <trkpt lat="44.066871" lon="3.293803">
        <ele>487.614702</ele>
        <time>2025-02-27T10:33:58.049Z</time>
      </trkpt>
      <trkpt lat="44.067003" lon="3.293450">
        <ele>487.392188</ele>
        <time>2025-02-27T10:34:03.348Z</time>
      </trkpt>
      <trkpt lat="44.067151" lon="3.293164">
        <ele>487.195112</ele>
        <time>2025-02-27T10:34:06.620Z</time>
      </trkpt>
      <trkpt lat="44.067488" lon="3.292725">
        <ele>486.835900</ele>
        <time>2025-02-27T10:34:11.320Z</time>
      </trkpt>
      <trkpt lat="44.067618" lon="3.292632">
        <ele>486.722152</ele>
        <time>2025-02-27T10:34:12.686Z</time>
      </trkpt>
      <trkpt lat="44.067729" lon="3.292602">
        <ele>486.634157</ele>
        <time>2025-02-27T10:34:13.717Z</time>
      </trkpt>
      <trkpt lat="44.068138" lon="3.292659">
        <ele>483.279844</ele>
        <time>2025-02-27T10:34:17.344Z</time>
      </trkpt>
      <trkpt lat="44.068675" lon="3.292395">
        <ele>478.098593</ele>
        <time>2025-02-27T10:34:22.217Z</time>
      </trkpt>
      <trkpt lat="44.069028" lon="3.292403">
        <ele>474.886709</ele>
        <time>2025-02-27T10:34:25.228Z</time>
      </trkpt>
      <trkpt lat="44.069210" lon="3.292442">
        <ele>473.211432</ele>
        <time>2025-02-27T10:34:26.795Z</time>
      </trkpt>
      <trkpt lat="44.070207" lon="3.292806">
        <ele>468.886724</ele>
        <time>2025-02-27T10:34:35.888Z</time>
      </trkpt>
      <trkpt lat="44.070363" lon="3.292921">
        <ele>468.548478</ele>
        <time>2025-02-27T10:34:37.833Z</time>
      </trkpt>
      <trkpt lat="44.070705" lon="3.293262">
        <ele>467.742381</ele>
        <time>2025-02-27T10:34:44.525Z</time>
      </trkpt>
      <trkpt lat="44.070822" lon="3.293331">
        <ele>467.498906</ele>
        <time>2025-02-27T10:34:47.419Z</time>
      </trkpt>
      <trkpt lat="44.070943" lon="3.293336">
        <ele>467.266959</ele>
        <time>2025-02-27T10:34:50.704Z</time>
      </trkpt>
      <trkpt lat="44.071102" lon="3.293229">
        <ele>466.928561</ele>
        <time>2025-02-27T10:34:56.432Z</time>
      </trkpt>
      <trkpt lat="44.071193" lon="3.293052">
        <ele>467.336293</ele>
        <time>2025-02-27T10:35:02.350Z</time>
      </trkpt>
      <trkpt lat="44.071275" lon="3.292737">
        <ele>468.920701</ele>
        <time>2025-02-27T10:35:12.751Z</time>
      </trkpt>
      <trkpt lat="44.071303" lon="3.292308">
        <ele>470.957809</ele>
        <time>2025-02-27T10:35:27.797Z</time>
      </trkpt>
      <trkpt lat="44.071272" lon="3.292028">
        <ele>472.297566</ele>
        <time>2025-02-27T10:35:38.676Z</time>
      </trkpt>
      <trkpt lat="44.071028" lon="3.290634">
        <ele>478.591829</ele>
        <time>2025-02-27T10:36:22.893Z</time>
      </trkpt>
      <trkpt lat="44.071029" lon="3.290009">
        <ele>478.362565</ele>
        <time>2025-02-27T10:36:36.620Z</time>
      </trkpt>
      <trkpt lat="44.071055" lon="3.289788">
        <ele>478.280418</ele>
        <time>2025-02-27T10:36:40.149Z</time>
      </trkpt>
      <trkpt lat="44.071222" lon="3.289361">
        <ele>478.102083</ele>
        <time>2025-02-27T10:36:44.838Z</time>
      </trkpt>
      <trkpt lat="44.071476" lon="3.288887">
        <ele>477.885176</ele>
        <time>2025-02-27T10:36:48.990Z</time>
      </trkpt>
      <trkpt lat="44.071766" lon="3.288465">
        <ele>477.278225</ele>
        <time>2025-02-27T10:36:52.839Z</time>
      </trkpt>
      <trkpt lat="44.072173" lon="3.288076">
        <ele>474.413156</ele>
        <time>2025-02-27T10:36:57.374Z</time>
      </trkpt>
      <trkpt lat="44.072435" lon="3.287800">
        <ele>472.506397</ele>
        <time>2025-02-27T10:37:00.317Z</time>
      </trkpt>
      <trkpt lat="44.072903" lon="3.287119">
        <ele>468.577410</ele>
        <time>2025-02-27T10:37:06.512Z</time>
      </trkpt>
      <trkpt lat="44.073197" lon="3.286669">
        <ele>466.460390</ele>
        <time>2025-02-27T10:37:10.637Z</time>
      </trkpt>
      <trkpt lat="44.073464" lon="3.286136">
        <ele>464.674056</ele>
        <time>2025-02-27T10:37:15.296Z</time>
      </trkpt>
      <trkpt lat="44.073707" lon="3.285645">
        <ele>463.034943</ele>
        <time>2025-02-27T10:37:19.437Z</time>
      </trkpt>
      <trkpt lat="44.073839" lon="3.285393">
        <ele>462.177572</ele>
        <time>2025-02-27T10:37:21.701Z</time>
      </trkpt>
      <trkpt lat="44.073959" lon="3.285233">
        <ele>461.541701</ele>
        <time>2025-02-27T10:37:23.403Z</time>
      </trkpt>
      <trkpt lat="44.074095" lon="3.285129">
        <ele>460.947924</ele>
        <time>2025-02-27T10:37:24.976Z</time>
      </trkpt>
      <trkpt lat="44.074304" lon="3.285055">
        <ele>460.302658</ele>
        <time>2025-02-27T10:37:27.132Z</time>
      </trkpt>
      <trkpt lat="44.074410" lon="3.285052">
        <ele>460.171411</ele>
        <time>2025-02-27T10:37:28.227Z</time>
      </trkpt>
      <trkpt lat="44.074878" lon="3.285197">
        <ele>459.577882</ele>
        <time>2025-02-27T10:37:33.480Z</time>
      </trkpt>
      <trkpt lat="44.075054" lon="3.285172">
        <ele>459.358875</ele>
        <time>2025-02-27T10:37:35.424Z</time>
      </trkpt>
      <trkpt lat="44.075272" lon="3.285018">
        <ele>459.056241</ele>
        <time>2025-02-27T10:37:38.093Z</time>
      </trkpt>
      <trkpt lat="44.075936" lon="3.284430">
        <ele>458.387109</ele>
        <time>2025-02-27T10:37:48.523Z</time>
      </trkpt>
      <trkpt lat="44.076309" lon="3.284005">
        <ele>460.062880</ele>
        <time>2025-02-27T10:38:01.168Z</time>
      </trkpt>
      <trkpt lat="44.076501" lon="3.283703">
        <ele>461.070076</ele>
        <time>2025-02-27T10:38:10.567Z</time>
      </trkpt>
      <trkpt lat="44.076619" lon="3.283429">
        <ele>461.867941</ele>
        <time>2025-02-27T10:38:18.404Z</time>
      </trkpt>
      <trkpt lat="44.076846" lon="3.282560">
        <ele>464.177320</ele>
        <time>2025-02-27T10:38:41.923Z</time>
      </trkpt>
      <trkpt lat="44.077035" lon="3.281709">
        <ele>464.434018</ele>
        <time>2025-02-27T10:38:59.986Z</time>
      </trkpt>
      <trkpt lat="44.077131" lon="3.281427">
        <ele>464.441448</ele>
        <time>2025-02-27T10:39:04.462Z</time>
      </trkpt>
      <trkpt lat="44.077190" lon="3.281296">
        <ele>464.445130</ele>
        <time>2025-02-27T10:39:06.290Z</time>
      </trkpt>
      <trkpt lat="44.077486" lon="3.280827">
        <ele>464.459994</ele>
        <time>2025-02-27T10:39:11.548Z</time>
      </trkpt>
      <trkpt lat="44.077917" lon="3.280350">
        <ele>464.007602</ele>
        <time>2025-02-27T10:39:17.002Z</time>
      </trkpt>
      <trkpt lat="44.077997" lon="3.280286">
        <ele>463.605743</ele>
        <time>2025-02-27T10:39:17.879Z</time>
      </trkpt>
      <trkpt lat="44.078167" lon="3.280213">
        <ele>462.830927</ele>
        <time>2025-02-27T10:39:19.551Z</time>
      </trkpt>
      <trkpt lat="44.078615" lon="3.280149">
        <ele>460.869542</ele>
        <time>2025-02-27T10:39:23.755Z</time>
      </trkpt>
      <trkpt lat="44.079531" lon="3.279813">
        <ele>456.743979</ele>
        <time>2025-02-27T10:39:32.774Z</time>
      </trkpt>
      <trkpt lat="44.080297" lon="3.279375">
        <ele>454.579413</ele>
        <time>2025-02-27T10:39:41.505Z</time>
      </trkpt>
      <trkpt lat="44.080717" lon="3.279044">
        <ele>453.342511</ele>
        <time>2025-02-27T10:39:46.707Z</time>
      </trkpt>
      <trkpt lat="44.081218" lon="3.278521">
        <ele>451.812004</ele>
        <time>2025-02-27T10:39:53.727Z</time>
      </trkpt>
      <trkpt lat="44.081509" lon="3.278150">
        <ele>451.056540</ele>
        <time>2025-02-27T10:39:57.878Z</time>
      </trkpt>
      <trkpt lat="44.081671" lon="3.277876">
        <ele>450.568488</ele>
        <time>2025-02-27T10:40:00.429Z</time>
      </trkpt>
      <trkpt lat="44.081775" lon="3.277611">
        <ele>450.153194</ele>
        <time>2025-02-27T10:40:02.644Z</time>
      </trkpt>
      <trkpt lat="44.081979" lon="3.276875">
        <ele>449.068249</ele>
        <time>2025-02-27T10:40:08.956Z</time>
      </trkpt>
      <trkpt lat="44.082295" lon="3.276089">
        <ele>448.878598</ele>
        <time>2025-02-27T10:40:17.878Z</time>
      </trkpt>
      <trkpt lat="44.082448" lon="3.275816">
        <ele>449.060943</ele>
        <time>2025-02-27T10:40:22.315Z</time>
      </trkpt>
      <trkpt lat="44.082859" lon="3.275424">
        <ele>449.426180</ele>
        <time>2025-02-27T10:40:33.013Z</time>
      </trkpt>
      <trkpt lat="44.083333" lon="3.275073">
        <ele>449.819772</ele>
        <time>2025-02-27T10:40:45.153Z</time>
      </trkpt>
      <trkpt lat="44.083998" lon="3.274785">
        <ele>448.796605</ele>
        <time>2025-02-27T10:40:56.198Z</time>
      </trkpt>
      <trkpt lat="44.084254" lon="3.274725">
        <ele>448.297900</ele>
        <time>2025-02-27T10:40:59.071Z</time>
      </trkpt>
      <trkpt lat="44.084733" lon="3.274737">
        <ele>447.377579</ele>
        <time>2025-02-27T10:41:03.998Z</time>
      </trkpt>
      <trkpt lat="44.084976" lon="3.274815">
        <ele>446.898521</ele>
        <time>2025-02-27T10:41:06.450Z</time>
      </trkpt>
      <trkpt lat="44.085244" lon="3.274968">
        <ele>446.325706</ele>
        <time>2025-02-27T10:41:09.231Z</time>
      </trkpt>
      <trkpt lat="44.085683" lon="3.275305">
        <ele>445.218510</ele>
        <time>2025-02-27T10:41:14.059Z</time>
      </trkpt>
      <trkpt lat="44.085774" lon="3.275395">
        <ele>444.971977</ele>
        <time>2025-02-27T10:41:15.122Z</time>
      </trkpt>
      <trkpt lat="44.086570" lon="3.276432">
        <ele>442.564273</ele>
        <time>2025-02-27T10:41:27.087Z</time>
      </trkpt>
      <trkpt lat="44.086655" lon="3.276506">
        <ele>442.715616</ele>
        <time>2025-02-27T10:41:29.124Z</time>
      </trkpt>
      <trkpt lat="44.086786" lon="3.276564">
        <ele>443.243245</ele>
        <time>2025-02-27T10:41:32.265Z</time>
      </trkpt>
      <trkpt lat="44.086855" lon="3.276555">
        <ele>443.509246</ele>
        <time>2025-02-27T10:41:33.939Z</time>
      </trkpt>
      <trkpt lat="44.086963" lon="3.276478">
        <ele>443.974976</ele>
        <time>2025-02-27T10:41:37.209Z</time>
      </trkpt>
      <trkpt lat="44.087090" lon="3.276251">
        <ele>444.768251</ele>
        <time>2025-02-27T10:41:43.601Z</time>
      </trkpt>
      <trkpt lat="44.087237" lon="3.275876">
        <ele>445.946056</ele>
        <time>2025-02-27T10:41:54.755Z</time>
      </trkpt>
      <trkpt lat="44.087483" lon="3.274986">
        <ele>448.575153</ele>
        <time>2025-02-27T10:42:22.644Z</time>
      </trkpt>
      <trkpt lat="44.087541" lon="3.274489">
        <ele>449.329632</ele>
        <time>2025-02-27T10:42:34.371Z</time>
      </trkpt>
      <trkpt lat="44.087546" lon="3.273941">
        <ele>449.191534</ele>
        <time>2025-02-27T10:42:43.019Z</time>
      </trkpt>
      <trkpt lat="44.087525" lon="3.273473">
        <ele>449.073377</ele>
        <time>2025-02-27T10:42:47.749Z</time>
      </trkpt>
      <trkpt lat="44.087233" lon="3.270902">
        <ele>447.849374</ele>
        <time>2025-02-27T10:43:06.992Z</time>
      </trkpt>
      <trkpt lat="44.087252" lon="3.270577">
        <ele>447.627548</ele>
        <time>2025-02-27T10:43:10.159Z</time>
      </trkpt>
      <trkpt lat="44.087385" lon="3.269500">
        <ele>447.504512</ele>
        <time>2025-02-27T10:43:26.214Z</time>
      </trkpt>
      <trkpt lat="44.087489" lon="3.268934">
        <ele>448.609880</ele>
        <time>2025-02-27T10:43:37.809Z</time>
      </trkpt>
      <trkpt lat="44.088049" lon="3.267530">
        <ele>451.648345</ele>
        <time>2025-02-27T10:44:08.841Z</time>
      </trkpt>
      <trkpt lat="44.088304" lon="3.267022">
        <ele>451.576319</ele>
        <time>2025-02-27T10:44:20.321Z</time>
      </trkpt>
      <trkpt lat="44.088646" lon="3.266433">
        <ele>451.285981</ele>
        <time>2025-02-27T10:44:31.471Z</time>
      </trkpt>
      <trkpt lat="44.088797" lon="3.266214">
        <ele>451.169609</ele>
        <time>2025-02-27T10:44:34.275Z</time>
      </trkpt>
      <trkpt lat="44.089268" lon="3.265683">
        <ele>450.846156</ele>
        <time>2025-02-27T10:44:40.559Z</time>
      </trkpt>
      <trkpt lat="44.090615" lon="3.264308">
        <ele>441.315648</ele>
        <time>2025-02-27T10:44:55.580Z</time>
      </trkpt>
      <trkpt lat="44.090780" lon="3.264106">
        <ele>440.287390</ele>
        <time>2025-02-27T10:44:57.679Z</time>
      </trkpt>
      <trkpt lat="44.091110" lon="3.263601">
        <ele>439.729438</ele>
        <time>2025-02-27T10:45:02.755Z</time>
      </trkpt>
      <trkpt lat="44.091577" lon="3.263197">
        <ele>439.103855</ele>
        <time>2025-02-27T10:45:10.896Z</time>
      </trkpt>
      <trkpt lat="44.091864" lon="3.262733">
        <ele>438.603431</ele>
        <time>2025-02-27T10:45:18.360Z</time>
      </trkpt>
      <trkpt lat="44.093100" lon="3.261449">
        <ele>437.166416</ele>
        <time>2025-02-27T10:45:44.226Z</time>
      </trkpt>
      <trkpt lat="44.093266" lon="3.261365">
        <ele>437.009379</ele>
        <time>2025-02-27T10:45:46.044Z</time>
      </trkpt>
      <trkpt lat="44.093437" lon="3.261350">
        <ele>436.857041</ele>
        <time>2025-02-27T10:45:47.744Z</time>
      </trkpt>
      <trkpt lat="44.093750" lon="3.261469">
        <ele>436.272453</ele>
        <time>2025-02-27T10:45:50.887Z</time>
      </trkpt>
      <trkpt lat="44.093933" lon="3.261617">
        <ele>435.669048</ele>
        <time>2025-02-27T10:45:52.916Z</time>
      </trkpt>
      <trkpt lat="44.094318" lon="3.262037">
        <ele>434.274530</ele>
        <time>2025-02-27T10:45:57.564Z</time>
      </trkpt>
      <trkpt lat="44.094411" lon="3.262206">
        <ele>433.838555</ele>
        <time>2025-02-27T10:45:59.077Z</time>
      </trkpt>
      <trkpt lat="44.094699" lon="3.263175">
        <ele>431.691109</ele>
        <time>2025-02-27T10:46:07.323Z</time>
      </trkpt>
      <trkpt lat="44.094869" lon="3.263989">
        <ele>431.754738</ele>
        <time>2025-02-27T10:46:17.385Z</time>
      </trkpt>
      <trkpt lat="44.095120" lon="3.265671">
        <ele>432.141353</ele>
        <time>2025-02-27T10:46:40.522Z</time>
      </trkpt>
      <trkpt lat="44.095352" lon="3.266796">
        <ele>430.980235</ele>
        <time>2025-02-27T10:46:51.408Z</time>
      </trkpt>
      <trkpt lat="44.095428" lon="3.267703">
        <ele>430.074374</ele>
        <time>2025-02-27T10:46:58.461Z</time>
      </trkpt>
      <trkpt lat="44.095469" lon="3.267910">
        <ele>429.861361</ele>
        <time>2025-02-27T10:47:00.065Z</time>
      </trkpt>
      <trkpt lat="44.095599" lon="3.268274">
        <ele>429.661924</ele>
        <time>2025-02-27T10:47:03.093Z</time>
      </trkpt>
      <trkpt lat="44.095800" lon="3.268606">
        <ele>429.663645</ele>
        <time>2025-02-27T10:47:06.363Z</time>
      </trkpt>
      <trkpt lat="44.095931" lon="3.268757">
        <ele>429.664584</ele>
        <time>2025-02-27T10:47:08.176Z</time>
      </trkpt>
      <trkpt lat="44.096039" lon="3.268859">
        <ele>429.665304</ele>
        <time>2025-02-27T10:47:09.619Z</time>
      </trkpt>
      <trkpt lat="44.096305" lon="3.269027">
        <ele>429.666916</ele>
        <time>2025-02-27T10:47:13.553Z</time>
      </trkpt>
      <trkpt lat="44.096756" lon="3.269235">
        <ele>429.669538</ele>
        <time>2025-02-27T10:47:24.291Z</time>
      </trkpt>
      <trkpt lat="44.096978" lon="3.269291">
        <ele>429.670783</ele>
        <time>2025-02-27T10:47:30.221Z</time>
      </trkpt>
      <trkpt lat="44.097189" lon="3.269279">
        <ele>430.131719</ele>
        <time>2025-02-27T10:47:36.002Z</time>
      </trkpt>
      <trkpt lat="44.097421" lon="3.269173">
        <ele>430.814578</ele>
        <time>2025-02-27T10:47:43.354Z</time>
      </trkpt>
      <trkpt lat="44.098110" lon="3.268769">
        <ele>432.905341</ele>
        <time>2025-02-27T10:48:06.753Z</time>
      </trkpt>
      <trkpt lat="44.098340" lon="3.268595">
        <ele>433.637371</ele>
        <time>2025-02-27T10:48:14.001Z</time>
      </trkpt>
      <trkpt lat="44.098520" lon="3.268389">
        <ele>434.288971</ele>
        <time>2025-02-27T10:48:18.756Z</time>
      </trkpt>
      <trkpt lat="44.098722" lon="3.268080">
        <ele>434.612437</ele>
        <time>2025-02-27T10:48:24.017Z</time>
      </trkpt>
      <trkpt lat="44.099473" lon="3.266624">
        <ele>433.863823</ele>
        <time>2025-02-27T10:48:40.520Z</time>
      </trkpt>
      <trkpt lat="44.099623" lon="3.266275">
        <ele>433.693972</ele>
        <time>2025-02-27T10:48:43.834Z</time>
      </trkpt>
      <trkpt lat="44.099725" lon="3.265910">
        <ele>433.266170</ele>
        <time>2025-02-27T10:48:47.009Z</time>
      </trkpt>
      <trkpt lat="44.100081" lon="3.264115">
        <ele>430.842920</ele>
        <time>2025-02-27T10:49:01.620Z</time>
      </trkpt>
      <trkpt lat="44.100227" lon="3.263626">
        <ele>430.363011</ele>
        <time>2025-02-27T10:49:05.859Z</time>
      </trkpt>
      <trkpt lat="44.100620" lon="3.262717">
        <ele>430.174725</ele>
        <time>2025-02-27T10:49:15.219Z</time>
      </trkpt>
      <trkpt lat="44.100824" lon="3.262406">
        <ele>430.099978</ele>
        <time>2025-02-27T10:49:19.987Z</time>
      </trkpt>
      <trkpt lat="44.101464" lon="3.261890">
        <ele>429.945836</ele>
        <time>2025-02-27T10:49:34.238Z</time>
      </trkpt>
      <trkpt lat="44.101727" lon="3.261795">
        <ele>429.934608</ele>
        <time>2025-02-27T10:49:39.323Z</time>
      </trkpt>
      <trkpt lat="44.102065" lon="3.261725">
        <ele>429.920487</ele>
        <time>2025-02-27T10:49:45.393Z</time>
      </trkpt>
      <trkpt lat="44.102569" lon="3.261698">
        <ele>429.899644</ele>
        <time>2025-02-27T10:49:53.090Z</time>
      </trkpt>
      <trkpt lat="44.103079" lon="3.261754">
        <ele>429.878503</ele>
        <time>2025-02-27T10:49:59.517Z</time>
      </trkpt>
      <trkpt lat="44.103962" lon="3.262014">
        <ele>428.291008</ele>
        <time>2025-02-27T10:50:09.158Z</time>
      </trkpt>
      <trkpt lat="44.104156" lon="3.262141">
        <ele>427.901175</ele>
        <time>2025-02-27T10:50:11.365Z</time>
      </trkpt>
      <trkpt lat="44.104337" lon="3.262315">
        <ele>427.501210</ele>
        <time>2025-02-27T10:50:13.660Z</time>
      </trkpt>
      <trkpt lat="44.104993" lon="3.263166">
        <ele>426.941547</ele>
        <time>2025-02-27T10:50:24.429Z</time>
      </trkpt>
      <trkpt lat="44.105139" lon="3.263261">
        <ele>427.075108</ele>
        <time>2025-02-27T10:50:27.248Z</time>
      </trkpt>
      <trkpt lat="44.105296" lon="3.263261">
        <ele>427.205229</ele>
        <time>2025-02-27T10:50:30.363Z</time>
      </trkpt>
      <trkpt lat="44.105434" lon="3.263177">
        <ele>427.330051</ele>
        <time>2025-02-27T10:50:33.564Z</time>
      </trkpt>
      <trkpt lat="44.105637" lon="3.262897">
        <ele>427.566850</ele>
        <time>2025-02-27T10:50:39.978Z</time>
      </trkpt>
      <trkpt lat="44.106109" lon="3.262226">
        <ele>428.206893</ele>
        <time>2025-02-27T10:50:53.884Z</time>
      </trkpt>
      <trkpt lat="44.106266" lon="3.261810">
        <ele>429.273340</ele>
        <time>2025-02-27T10:51:01.902Z</time>
      </trkpt>
      <trkpt lat="44.106384" lon="3.261599">
        <ele>429.880231</ele>
        <time>2025-02-27T10:51:06.221Z</time>
      </trkpt>
      <trkpt lat="44.106584" lon="3.261266">
        <ele>430.865369</ele>
        <time>2025-02-27T10:51:14.077Z</time>
      </trkpt>
      <trkpt lat="44.106856" lon="3.260621">
        <ele>432.562760</ele>
        <time>2025-02-27T10:51:30.016Z</time>
      </trkpt>
      <trkpt lat="44.107188" lon="3.260083">
        <ele>433.913910</ele>
        <time>2025-02-27T10:51:47.987Z</time>
      </trkpt>
      <trkpt lat="44.107427" lon="3.259548">
        <ele>434.398742</ele>
        <time>2025-02-27T10:52:02.609Z</time>
      </trkpt>
      <trkpt lat="44.107751" lon="3.259056">
        <ele>434.912424</ele>
        <time>2025-02-27T10:52:13.193Z</time>
      </trkpt>
      <trkpt lat="44.108020" lon="3.258763">
        <ele>435.278382</ele>
        <time>2025-02-27T10:52:17.662Z</time>
      </trkpt>
      <trkpt lat="44.108269" lon="3.258574">
        <ele>435.582271</ele>
        <time>2025-02-27T10:52:20.758Z</time>
      </trkpt>
      <trkpt lat="44.108879" lon="3.258255">
        <ele>433.837363</ele>
        <time>2025-02-27T10:52:27.171Z</time>
      </trkpt>
      <trkpt lat="44.109738" lon="3.257931">
        <ele>430.716379</ele>
        <time>2025-02-27T10:52:35.704Z</time>
      </trkpt>
      <trkpt lat="44.110479" lon="3.257572">
        <ele>429.542554</ele>
        <time>2025-02-27T10:52:43.890Z</time>
      </trkpt>
      <trkpt lat="44.110671" lon="3.257413">
        <ele>429.619800</ele>
        <time>2025-02-27T10:52:46.913Z</time>
      </trkpt>
      <trkpt lat="44.110835" lon="3.257174">
        <ele>429.701884</ele>
        <time>2025-02-27T10:52:50.868Z</time>
      </trkpt>
      <trkpt lat="44.110946" lon="3.256921">
        <ele>429.775501</ele>
        <time>2025-02-27T10:52:55.178Z</time>
      </trkpt>
      <trkpt lat="44.111017" lon="3.256600">
        <ele>429.858898</ele>
        <time>2025-02-27T10:53:00.784Z</time>
      </trkpt>
      <trkpt lat="44.111104" lon="3.255975">
        <ele>430.016968</ele>
        <time>2025-02-27T10:53:12.471Z</time>
      </trkpt>
      <trkpt lat="44.111149" lon="3.255319">
        <ele>430.013874</ele>
        <time>2025-02-27T10:53:24.427Z</time>
      </trkpt>
      <trkpt lat="44.111204" lon="3.255060">
        <ele>430.010013</ele>
        <time>2025-02-27T10:53:28.505Z</time>
      </trkpt>
      <trkpt lat="44.111311" lon="3.254828">
        <ele>430.006072</ele>
        <time>2025-02-27T10:53:32.073Z</time>
      </trkpt>
      <trkpt lat="44.111780" lon="3.254041">
        <ele>429.991454</ele>
        <time>2025-02-27T10:53:40.699Z</time>
      </trkpt>
      <trkpt lat="44.111903" lon="3.253696">
        <ele>429.815347</ele>
        <time>2025-02-27T10:53:43.558Z</time>
      </trkpt>
      <trkpt lat="44.111973" lon="3.253326">
        <ele>429.028883</ele>
        <time>2025-02-27T10:53:46.320Z</time>
      </trkpt>
      <trkpt lat="44.112019" lon="3.252823">
        <ele>427.986655</ele>
        <time>2025-02-27T10:53:50.296Z</time>
      </trkpt>
      <trkpt lat="44.112018" lon="3.252700">
        <ele>427.733822</ele>
        <time>2025-02-27T10:53:51.700Z</time>
      </trkpt>
      <trkpt lat="44.111979" lon="3.252494">
        <ele>427.295934</ele>
        <time>2025-02-27T10:53:54.517Z</time>
      </trkpt>
      <trkpt lat="44.111873" lon="3.252279">
        <ele>426.759861</ele>
        <time>2025-02-27T10:53:56.735Z</time>
      </trkpt>
      <trkpt lat="44.111604" lon="3.251929">
        <ele>425.706026</ele>
        <time>2025-02-27T10:54:00.241Z</time>
      </trkpt>
      <trkpt lat="44.111396" lon="3.251534">
        <ele>424.612756</ele>
        <time>2025-02-27T10:54:03.521Z</time>
      </trkpt>
      <trkpt lat="44.111363" lon="3.251364">
        <ele>424.025500</ele>
        <time>2025-02-27T10:54:04.720Z</time>
      </trkpt>
      <trkpt lat="44.111387" lon="3.251266">
        <ele>423.680210</ele>
        <time>2025-02-27T10:54:05.409Z</time>
      </trkpt>
      <trkpt lat="44.111726" lon="3.250851">
        <ele>421.583971</ele>
        <time>2025-02-27T10:54:09.683Z</time>
      </trkpt>
      <trkpt lat="44.111801" lon="3.250714">
        <ele>421.009466</ele>
        <time>2025-02-27T10:54:10.874Z</time>
      </trkpt>
      <trkpt lat="44.111858" lon="3.250205">
        <ele>419.291588</ele>
        <time>2025-02-27T10:54:14.305Z</time>
      </trkpt>
      <trkpt lat="44.111985" lon="3.249924">
        <ele>418.184346</ele>
        <time>2025-02-27T10:54:16.409Z</time>
      </trkpt>
      <trkpt lat="44.112118" lon="3.249797">
        <ele>417.435389</ele>
        <time>2025-02-27T10:54:17.895Z</time>
      </trkpt>
      <trkpt lat="44.112246" lon="3.249742">
        <ele>416.813241</ele>
        <time>2025-02-27T10:54:19.226Z</time>
      </trkpt>
      <trkpt lat="44.112627" lon="3.249669">
        <ele>416.935842</ele>
        <time>2025-02-27T10:54:23.980Z</time>
      </trkpt>
      <trkpt lat="44.113169" lon="3.249648">
        <ele>417.716410</ele>
        <time>2025-02-27T10:54:33.656Z</time>
      </trkpt>
      <trkpt lat="44.113917" lon="3.249639">
        <ele>418.793275</ele>
        <time>2025-02-27T10:54:56.069Z</time>
      </trkpt>
      <trkpt lat="44.114565" lon="3.249598">
        <ele>419.435918</ele>
        <time>2025-02-27T10:55:16.111Z</time>
      </trkpt>
      <trkpt lat="44.114750" lon="3.249543">
        <ele>419.586918</ele>
        <time>2025-02-27T10:55:21.095Z</time>
      </trkpt>
      <trkpt lat="44.114838" lon="3.249486">
        <ele>419.664387</ele>
        <time>2025-02-27T10:55:23.432Z</time>
      </trkpt>
      <trkpt lat="44.114984" lon="3.249301">
        <ele>419.821940</ele>
        <time>2025-02-27T10:55:27.893Z</time>
      </trkpt>
      <trkpt lat="44.115440" lon="3.248581">
        <ele>420.372167</ele>
        <time>2025-02-27T10:55:36.840Z</time>
      </trkpt>
      <trkpt lat="44.116404" lon="3.247365">
        <ele>417.067779</ele>
        <time>2025-02-27T10:55:49.554Z</time>
      </trkpt>
      <trkpt lat="44.116774" lon="3.246947">
        <ele>415.615347</ele>
        <time>2025-02-27T10:55:54.484Z</time>
      </trkpt>
      <trkpt lat="44.117166" lon="3.246609">
        <ele>414.960738</ele>
        <time>2025-02-27T10:55:59.660Z</time>
      </trkpt>
      <trkpt lat="44.117584" lon="3.246323">
        <ele>414.847854</ele>
        <time>2025-02-27T10:56:05.224Z</time>
      </trkpt>
      <trkpt lat="44.117873" lon="3.246218">
        <ele>414.775459</ele>
        <time>2025-02-27T10:56:09.493Z</time>
      </trkpt>
      <trkpt lat="44.118385" lon="3.246146">
        <ele>414.650723</ele>
        <time>2025-02-27T10:56:19.319Z</time>
      </trkpt>
      <trkpt lat="44.118587" lon="3.246117">
        <ele>414.601500</ele>
        <time>2025-02-27T10:56:23.745Z</time>
      </trkpt>
      <trkpt lat="44.119142" lon="3.245924">
        <ele>414.493926</ele>
        <time>2025-02-27T10:56:34.332Z</time>
      </trkpt>
      <trkpt lat="44.119454" lon="3.245733">
        <ele>414.431572</ele>
        <time>2025-02-27T10:56:39.539Z</time>
      </trkpt>
      <trkpt lat="44.119510" lon="3.245667">
        <ele>414.418151</ele>
        <time>2025-02-27T10:56:40.826Z</time>
      </trkpt>
      <trkpt lat="44.119605" lon="3.245514">
        <ele>414.391581</ele>
        <time>2025-02-27T10:56:43.052Z</time>
      </trkpt>
      <trkpt lat="44.119790" lon="3.244927">
        <ele>414.307377</ele>
        <time>2025-02-27T10:56:48.906Z</time>
      </trkpt>
      <trkpt lat="44.119953" lon="3.244296">
        <ele>414.123417</ele>
        <time>2025-02-27T10:56:54.155Z</time>
      </trkpt>
      <trkpt lat="44.119978" lon="3.243887">
        <ele>413.944158</ele>
        <time>2025-02-27T10:56:57.318Z</time>
      </trkpt>
      <trkpt lat="44.119946" lon="3.243613">
        <ele>413.822927</ele>
        <time>2025-02-27T10:56:59.704Z</time>
      </trkpt>
      <trkpt lat="44.119910" lon="3.243340">
        <ele>413.701711</ele>
        <time>2025-02-27T10:57:02.544Z</time>
      </trkpt>
      <trkpt lat="44.119797" lon="3.242707">
        <ele>413.416856</ele>
        <time>2025-02-27T10:57:09.904Z</time>
      </trkpt>
      <trkpt lat="44.119576" lon="3.242033">
        <ele>413.158902</ele>
        <time>2025-02-27T10:57:18.103Z</time>
      </trkpt>
      <trkpt lat="44.119498" lon="3.241886">
        <ele>413.150743</ele>
        <time>2025-02-27T10:57:20.151Z</time>
      </trkpt>
      <trkpt lat="44.118777" lon="3.240835">
        <ele>413.085863</ele>
        <time>2025-02-27T10:57:36.330Z</time>
      </trkpt>
      <trkpt lat="44.118394" lon="3.240304">
        <ele>413.035590</ele>
        <time>2025-02-27T10:57:43.272Z</time>
      </trkpt>
      <trkpt lat="44.117987" lon="3.239434">
        <ele>412.650918</ele>
        <time>2025-02-27T10:57:53.161Z</time>
      </trkpt>
      <trkpt lat="44.117906" lon="3.239151">
        <ele>412.538058</ele>
        <time>2025-02-27T10:57:55.990Z</time>
      </trkpt>
      <trkpt lat="44.117895" lon="3.239036">
        <ele>412.495080</ele>
        <time>2025-02-27T10:57:57.061Z</time>
      </trkpt>
      <trkpt lat="44.117918" lon="3.238772">
        <ele>412.396565</ele>
        <time>2025-02-27T10:57:59.418Z</time>
      </trkpt>
      <trkpt lat="44.117953" lon="3.238636">
        <ele>412.343046</ele>
        <time>2025-02-27T10:58:00.690Z</time>
      </trkpt>
      <trkpt lat="44.118083" lon="3.238330">
        <ele>412.211329</ele>
        <time>2025-02-27T10:58:03.874Z</time>
      </trkpt>
      <trkpt lat="44.118711" lon="3.237376">
        <ele>411.927072</ele>
        <time>2025-02-27T10:58:17.741Z</time>
      </trkpt>
      <trkpt lat="44.118940" lon="3.236968">
        <ele>411.830138</ele>
        <time>2025-02-27T10:58:23.898Z</time>
      </trkpt>
      <trkpt lat="44.119165" lon="3.236266">
        <ele>411.686247</ele>
        <time>2025-02-27T10:58:31.471Z</time>
      </trkpt>
      <trkpt lat="44.119419" lon="3.235609">
        <ele>411.020397</ele>
        <time>2025-02-27T10:58:38.008Z</time>
      </trkpt>
      <trkpt lat="44.119550" lon="3.234904">
        <ele>410.237568</ele>
        <time>2025-02-27T10:58:43.778Z</time>
      </trkpt>
      <trkpt lat="44.119696" lon="3.233997">
        <ele>409.238362</ele>
        <time>2025-02-27T10:58:51.073Z</time>
      </trkpt>
      <trkpt lat="44.119774" lon="3.233308">
        <ele>408.837413</ele>
        <time>2025-02-27T10:58:57.025Z</time>
      </trkpt>
      <trkpt lat="44.119858" lon="3.232901">
        <ele>408.716056</ele>
        <time>2025-02-27T10:59:00.935Z</time>
      </trkpt>
      <trkpt lat="44.120041" lon="3.232328">
        <ele>408.536337</ele>
        <time>2025-02-27T10:59:07.001Z</time>
      </trkpt>
      <trkpt lat="44.120260" lon="3.231946">
        <ele>408.396245</ele>
        <time>2025-02-27T10:59:11.997Z</time>
      </trkpt>
      <trkpt lat="44.121003" lon="3.231090">
        <ele>408.496382</ele>
        <time>2025-02-27T10:59:28.370Z</time>
      </trkpt>
      <trkpt lat="44.121321" lon="3.230841">
        <ele>408.651476</ele>
        <time>2025-02-27T10:59:34.953Z</time>
      </trkpt>
      <trkpt lat="44.121583" lon="3.230661">
        <ele>408.775678</ele>
        <time>2025-02-27T10:59:40.193Z</time>
      </trkpt>
      <trkpt lat="44.122777" lon="3.230010">
        <ele>408.387533</ele>
        <time>2025-02-27T10:59:59.617Z</time>
      </trkpt>
      <trkpt lat="44.123680" lon="3.229406">
        <ele>407.530772</ele>
        <time>2025-02-27T11:00:11.258Z</time>
      </trkpt>
      <trkpt lat="44.124714" lon="3.228282">
        <ele>405.451837</ele>
        <time>2025-02-27T11:00:25.811Z</time>
      </trkpt>
      <trkpt lat="44.124833" lon="3.228047">
        <ele>405.116361</ele>
        <time>2025-02-27T11:00:28.131Z</time>
      </trkpt>
      <trkpt lat="44.125008" lon="3.227505">
        <ele>404.509642</ele>
        <time>2025-02-27T11:00:33.145Z</time>
      </trkpt>
      <trkpt lat="44.125173" lon="3.226903">
        <ele>404.272092</ele>
        <time>2025-02-27T11:00:38.792Z</time>
      </trkpt>
      <trkpt lat="44.125204" lon="3.226460">
        <ele>404.108010</ele>
        <time>2025-02-27T11:00:43.183Z</time>
      </trkpt>
      <trkpt lat="44.125169" lon="3.225685">
        <ele>403.821747</ele>
        <time>2025-02-27T11:00:50.698Z</time>
      </trkpt>
      <trkpt lat="44.125139" lon="3.225057">
        <ele>403.603083</ele>
        <time>2025-02-27T11:00:57.970Z</time>
      </trkpt>
      <trkpt lat="44.125098" lon="3.224343">
        <ele>403.436459</ele>
        <time>2025-02-27T11:01:05.402Z</time>
      </trkpt>
      <trkpt lat="44.125051" lon="3.224087">
        <ele>403.374990</ele>
        <time>2025-02-27T11:01:08.114Z</time>
      </trkpt>
      <trkpt lat="44.125011" lon="3.223979">
        <ele>403.346720</ele>
        <time>2025-02-27T11:01:09.543Z</time>
      </trkpt>
      <trkpt lat="44.124947" lon="3.223810">
        <ele>403.302271</ele>
        <time>2025-02-27T11:01:11.694Z</time>
      </trkpt>
      <trkpt lat="44.124463" lon="3.223073">
        <ele>403.069903</ele>
        <time>2025-02-27T11:01:20.951Z</time>
      </trkpt>
      <trkpt lat="44.124392" lon="3.222861">
        <ele>402.993401</ele>
        <time>2025-02-27T11:01:23.115Z</time>
      </trkpt>
      <trkpt lat="44.124332" lon="3.222716">
        <ele>402.923267</ele>
        <time>2025-02-27T11:01:24.612Z</time>
      </trkpt>
      <trkpt lat="44.124260" lon="3.222658">
        <ele>402.874715</ele>
        <time>2025-02-27T11:01:25.650Z</time>
      </trkpt>
      <trkpt lat="44.124136" lon="3.222630">
        <ele>402.801383</ele>
        <time>2025-02-27T11:01:27.036Z</time>
      </trkpt>
      <trkpt lat="44.124118" lon="3.222625">
        <ele>402.790669</ele>
        <time>2025-02-27T11:01:27.274Z</time>
      </trkpt>
      <trkpt lat="44.123812" lon="3.222553">
        <ele>402.609507</ele>
        <time>2025-02-27T11:01:30.836Z</time>
      </trkpt>
      <trkpt lat="44.123722" lon="3.222502">
        <ele>402.552788</ele>
        <time>2025-02-27T11:01:31.966Z</time>
      </trkpt>
      <trkpt lat="44.123547" lon="3.222308">
        <ele>402.422230</ele>
        <time>2025-02-27T11:01:35.082Z</time>
      </trkpt>
      <trkpt lat="44.123346" lon="3.221800">
        <ele>402.179157</ele>
        <time>2025-02-27T11:01:40.589Z</time>
      </trkpt>
      <trkpt lat="44.123306" lon="3.221689">
        <ele>402.127110</ele>
        <time>2025-02-27T11:01:41.747Z</time>
      </trkpt>
      <trkpt lat="44.123286" lon="3.221624">
        <ele>402.097475</ele>
        <time>2025-02-27T11:01:42.338Z</time>
      </trkpt>
      <trkpt lat="44.123121" lon="3.220883">
        <ele>402.357260</ele>
        <time>2025-02-27T11:01:51.337Z</time>
      </trkpt>
      <trkpt lat="44.122894" lon="3.219551">
        <ele>403.304010</ele>
        <time>2025-02-27T11:02:14.569Z</time>
      </trkpt>
      <trkpt lat="44.122612" lon="3.219007">
        <ele>403.668669</ele>
        <time>2025-02-27T11:02:22.120Z</time>
      </trkpt>
      <trkpt lat="44.122493" lon="3.218758">
        <ele>403.388795</ele>
        <time>2025-02-27T11:02:24.865Z</time>
      </trkpt>
      <trkpt lat="44.122131" lon="3.217796">
        <ele>402.372566</ele>
        <time>2025-02-27T11:02:33.957Z</time>
      </trkpt>
      <trkpt lat="44.121989" lon="3.217501">
        <ele>402.040251</ele>
        <time>2025-02-27T11:02:36.521Z</time>
      </trkpt>
      <trkpt lat="44.121812" lon="3.217243">
        <ele>401.706352</ele>
        <time>2025-02-27T11:02:39.151Z</time>
      </trkpt>
      <trkpt lat="44.120968" lon="3.216229">
        <ele>401.620756</ele>
        <time>2025-02-27T11:02:53.479Z</time>
      </trkpt>
      <trkpt lat="44.120634" lon="3.215765">
        <ele>401.751149</ele>
        <time>2025-02-27T11:03:03.280Z</time>
      </trkpt>
      <trkpt lat="44.120323" lon="3.215271">
        <ele>401.877918</ele>
        <time>2025-02-27T11:03:13.470Z</time>
      </trkpt>
      <trkpt lat="44.119999" lon="3.214695">
        <ele>401.834667</ele>
        <time>2025-02-27T11:03:23.967Z</time>
      </trkpt>
      <trkpt lat="44.119873" lon="3.214415">
        <ele>401.815134</ele>
        <time>2025-02-27T11:03:27.812Z</time>
      </trkpt>
      <trkpt lat="44.119832" lon="3.214291">
        <ele>401.807065</ele>
        <time>2025-02-27T11:03:29.268Z</time>
      </trkpt>
      <trkpt lat="44.119795" lon="3.214009">
        <ele>401.790121</ele>
        <time>2025-02-27T11:03:32.063Z</time>
      </trkpt>
      <trkpt lat="44.119792" lon="3.213691">
        <ele>401.771323</ele>
        <time>2025-02-27T11:03:34.938Z</time>
      </trkpt>
      <trkpt lat="44.119817" lon="3.213513">
        <ele>401.760603</ele>
        <time>2025-02-27T11:03:36.499Z</time>
      </trkpt>
      <trkpt lat="44.119914" lon="3.213218">
        <ele>401.741424</ele>
        <time>2025-02-27T11:03:39.184Z</time>
      </trkpt>
      <trkpt lat="44.120023" lon="3.213045">
        <ele>401.680103</ele>
        <time>2025-02-27T11:03:41.057Z</time>
      </trkpt>
      <trkpt lat="44.120508" lon="3.212605">
        <ele>400.831553</ele>
        <time>2025-02-27T11:03:47.656Z</time>
      </trkpt>
      <trkpt lat="44.121621" lon="3.211842">
        <ele>399.020196</ele>
        <time>2025-02-27T11:04:02.103Z</time>
      </trkpt>
      <trkpt lat="44.121877" lon="3.211443">
        <ele>398.507738</ele>
        <time>2025-02-27T11:04:06.427Z</time>
      </trkpt>
      <trkpt lat="44.122026" lon="3.210997">
        <ele>398.036658</ele>
        <time>2025-02-27T11:04:10.405Z</time>
      </trkpt>
      <trkpt lat="44.122062" lon="3.210643">
        <ele>397.694280</ele>
        <time>2025-02-27T11:04:13.304Z</time>
      </trkpt>
      <trkpt lat="44.122050" lon="3.210206">
        <ele>397.275498</ele>
        <time>2025-02-27T11:04:16.859Z</time>
      </trkpt>
      <trkpt lat="44.121946" lon="3.208919">
        <ele>397.130627</ele>
        <time>2025-02-27T11:04:28.613Z</time>
      </trkpt>
      <trkpt lat="44.121758" lon="3.207950">
        <ele>397.766901</ele>
        <time>2025-02-27T11:04:41.860Z</time>
      </trkpt>
      <trkpt lat="44.121452" lon="3.206773">
        <ele>398.821923</ele>
        <time>2025-02-27T11:05:03.886Z</time>
      </trkpt>
      <trkpt lat="44.121403" lon="3.206403">
        <ele>399.284919</ele>
        <time>2025-02-27T11:05:10.805Z</time>
      </trkpt>
      <trkpt lat="44.121376" lon="3.205939">
        <ele>399.857779</ele>
        <time>2025-02-27T11:05:18.872Z</time>
      </trkpt>
      <trkpt lat="44.121413" lon="3.205643">
        <ele>400.227511</ele>
        <time>2025-02-27T11:05:23.706Z</time>
      </trkpt>
      <trkpt lat="44.121475" lon="3.205406">
        <ele>400.537919</ele>
        <time>2025-02-27T11:05:27.527Z</time>
      </trkpt>
      <trkpt lat="44.122120" lon="3.203528">
        <ele>402.095746</ele>
        <time>2025-02-27T11:05:52.485Z</time>
      </trkpt>
      <trkpt lat="44.122301" lon="3.202942">
        <ele>402.426196</ele>
        <time>2025-02-27T11:06:00.792Z</time>
      </trkpt>
      <trkpt lat="44.122336" lon="3.202758">
        <ele>402.524796</ele>
        <time>2025-02-27T11:06:03.448Z</time>
      </trkpt>
      <trkpt lat="44.122373" lon="3.202381">
        <ele>402.693591</ele>
        <time>2025-02-27T11:06:08.977Z</time>
      </trkpt>
      <trkpt lat="44.122404" lon="3.200659">
        <ele>403.151690</ele>
        <time>2025-02-27T11:06:32.398Z</time>
      </trkpt>
      <trkpt lat="44.122582" lon="3.198659">
        <ele>401.747826</ele>
        <time>2025-02-27T11:06:49.609Z</time>
      </trkpt>
      <trkpt lat="44.122781" lon="3.197388">
        <ele>400.219958</ele>
        <time>2025-02-27T11:06:59.583Z</time>
      </trkpt>
      <trkpt lat="44.122809" lon="3.197023">
        <ele>399.795757</ele>
        <time>2025-02-27T11:07:02.431Z</time>
      </trkpt>
      <trkpt lat="44.122800" lon="3.196811">
        <ele>399.550339</ele>
        <time>2025-02-27T11:07:04.086Z</time>
      </trkpt>
      <trkpt lat="44.122692" lon="3.195802">
        <ele>398.371433</ele>
        <time>2025-02-27T11:07:12.269Z</time>
      </trkpt>
      <trkpt lat="44.122647" lon="3.195593">
        <ele>398.119279</ele>
        <time>2025-02-27T11:07:14.140Z</time>
      </trkpt>
      <trkpt lat="44.122341" lon="3.194647">
        <ele>396.978713</ele>
        <time>2025-02-27T11:07:23.850Z</time>
      </trkpt>
      <trkpt lat="44.122221" lon="3.194333">
        <ele>396.610134</ele>
        <time>2025-02-27T11:07:27.098Z</time>
      </trkpt>
      <trkpt lat="44.121730" lon="3.193386">
        <ele>395.399739</ele>
        <time>2025-02-27T11:07:36.504Z</time>
      </trkpt>
      <trkpt lat="44.121239" lon="3.192568">
        <ele>394.410977</ele>
        <time>2025-02-27T11:07:44.980Z</time>
      </trkpt>
      <trkpt lat="44.121030" lon="3.192247">
        <ele>394.049525</ele>
        <time>2025-02-27T11:07:48.363Z</time>
      </trkpt>
      <trkpt lat="44.120943" lon="3.192071">
        <ele>393.871294</ele>
        <time>2025-02-27T11:07:50.005Z</time>
      </trkpt>
      <trkpt lat="44.120885" lon="3.191898">
        <ele>393.712041</ele>
        <time>2025-02-27T11:07:51.517Z</time>
      </trkpt>
      <trkpt lat="44.120837" lon="3.191602">
        <ele>393.458937</ele>
        <time>2025-02-27T11:07:54.023Z</time>
      </trkpt>
      <trkpt lat="44.120856" lon="3.191290">
        <ele>393.197773</ele>
        <time>2025-02-27T11:07:56.878Z</time>
      </trkpt>
      <trkpt lat="44.120887" lon="3.191146">
        <ele>393.072383</ele>
        <time>2025-02-27T11:07:58.649Z</time>
      </trkpt>
      <trkpt lat="44.121249" lon="3.190077">
        <ele>393.327209</ele>
        <time>2025-02-27T11:08:14.296Z</time>
      </trkpt>
      <trkpt lat="44.121345" lon="3.189671">
        <ele>393.590499</ele>
        <time>2025-02-27T11:08:19.937Z</time>
      </trkpt>
      <trkpt lat="44.121380" lon="3.189176">
        <ele>393.896867</ele>
        <time>2025-02-27T11:08:26.650Z</time>
      </trkpt>
      <trkpt lat="44.121312" lon="3.188563">
        <ele>394.278922</ele>
        <time>2025-02-27T11:08:35.549Z</time>
      </trkpt>
      <trkpt lat="44.121198" lon="3.188076">
        <ele>394.476333</ele>
        <time>2025-02-27T11:08:42.520Z</time>
      </trkpt>
      <trkpt lat="44.121054" lon="3.187675">
        <ele>394.622547</ele>
        <time>2025-02-27T11:08:47.940Z</time>
      </trkpt>
      <trkpt lat="44.120534" lon="3.186600">
        <ele>395.045263</ele>
        <time>2025-02-27T11:09:02.787Z</time>
      </trkpt>
      <trkpt lat="44.120398" lon="3.186219">
        <ele>395.144778</ele>
        <time>2025-02-27T11:09:07.473Z</time>
      </trkpt>
      <trkpt lat="44.120197" lon="3.185407">
        <ele>394.957291</ele>
        <time>2025-02-27T11:09:16.646Z</time>
      </trkpt>
      <trkpt lat="44.120051" lon="3.184457">
        <ele>394.745223</ele>
        <time>2025-02-27T11:09:26.749Z</time>
      </trkpt>
      <trkpt lat="44.119307" lon="3.182813">
        <ele>393.475796</ele>
        <time>2025-02-27T11:09:43.708Z</time>
      </trkpt>
      <trkpt lat="44.118993" lon="3.182283">
        <ele>392.892494</ele>
        <time>2025-02-27T11:09:49.352Z</time>
      </trkpt>
      <trkpt lat="44.118461" lon="3.181500">
        <ele>392.334521</ele>
        <time>2025-02-27T11:09:58.249Z</time>
      </trkpt>
      <trkpt lat="44.118197" lon="3.181063">
        <ele>392.189542</ele>
        <time>2025-02-27T11:10:03.904Z</time>
      </trkpt>
      <trkpt lat="44.118091" lon="3.180837">
        <ele>392.121015</ele>
        <time>2025-02-27T11:10:06.962Z</time>
      </trkpt>
      <trkpt lat="44.117769" lon="3.179951">
        <ele>391.868933</ele>
        <time>2025-02-27T11:10:17.936Z</time>
      </trkpt>
      <trkpt lat="44.117413" lon="3.179255">
        <ele>392.082719</ele>
        <time>2025-02-27T11:10:27.757Z</time>
      </trkpt>
      <trkpt lat="44.117166" lon="3.178934">
        <ele>392.221924</ele>
        <time>2025-02-27T11:10:33.425Z</time>
      </trkpt>
      <trkpt lat="44.116653" lon="3.178485">
        <ele>392.471590</ele>
        <time>2025-02-27T11:10:43.675Z</time>
      </trkpt>
      <trkpt lat="44.116479" lon="3.178243">
        <ele>392.572915</ele>
        <time>2025-02-27T11:10:47.906Z</time>
      </trkpt>
      <trkpt lat="44.115563" lon="3.176407">
        <ele>393.217866</ele>
        <time>2025-02-27T11:11:14.796Z</time>
      </trkpt>
      <trkpt lat="44.114858" lon="3.174701">
        <ele>393.275619</ele>
        <time>2025-02-27T11:11:35.680Z</time>
      </trkpt>
      <trkpt lat="44.114716" lon="3.174138">
        <ele>393.261517</ele>
        <time>2025-02-27T11:11:41.908Z</time>
      </trkpt>
      <trkpt lat="44.114525" lon="3.173079">
        <ele>392.883274</ele>
        <time>2025-02-27T11:11:53.034Z</time>
      </trkpt>
      <trkpt lat="44.114458" lon="3.172568">
        <ele>392.647043</ele>
        <time>2025-02-27T11:11:58.153Z</time>
      </trkpt>
      <trkpt lat="44.114451" lon="3.171436">
        <ele>392.132224</ele>
        <time>2025-02-27T11:12:08.289Z</time>
      </trkpt>
      <trkpt lat="44.114382" lon="3.170017">
        <ele>390.067986</ele>
        <time>2025-02-27T11:12:19.611Z</time>
      </trkpt>
      <trkpt lat="44.114305" lon="3.169674">
        <ele>389.537011</ele>
        <time>2025-02-27T11:12:22.226Z</time>
      </trkpt>
      <trkpt lat="44.114066" lon="3.168830">
        <ele>388.235480</ele>
        <time>2025-02-27T11:12:29.078Z</time>
      </trkpt>
      <trkpt lat="44.113921" lon="3.168306">
        <ele>387.554231</ele>
        <time>2025-02-27T11:12:33.854Z</time>
      </trkpt>
      <trkpt lat="44.113774" lon="3.167925">
        <ele>387.029524</ele>
        <time>2025-02-27T11:12:37.411Z</time>
      </trkpt>
      <trkpt lat="44.113415" lon="3.167369">
        <ele>386.122389</ele>
        <time>2025-02-27T11:12:43.454Z</time>
      </trkpt>
      <trkpt lat="44.113260" lon="3.167228">
        <ele>385.809581</ele>
        <time>2025-02-27T11:12:45.588Z</time>
      </trkpt>
      <trkpt lat="44.113229" lon="3.167207">
        <ele>385.751334</ele>
        <time>2025-02-27T11:12:45.992Z</time>
      </trkpt>
      <trkpt lat="44.112822" lon="3.167097">
        <ele>385.077797</ele>
        <time>2025-02-27T11:12:50.937Z</time>
      </trkpt>
      <trkpt lat="44.112616" lon="3.166996">
        <ele>384.739491</ele>
        <time>2025-02-27T11:12:53.459Z</time>
      </trkpt>
      <trkpt lat="44.111977" lon="3.166575">
        <ele>383.644465</ele>
        <time>2025-02-27T11:13:00.981Z</time>
      </trkpt>
      <trkpt lat="44.111739" lon="3.166339">
        <ele>383.191890</ele>
        <time>2025-02-27T11:13:04.321Z</time>
      </trkpt>
      <trkpt lat="44.111314" lon="3.165672">
        <ele>382.618651</ele>
        <time>2025-02-27T11:13:12.426Z</time>
      </trkpt>
      <trkpt lat="44.111012" lon="3.165327">
        <ele>382.664955</ele>
        <time>2025-02-27T11:13:18.352Z</time>
      </trkpt>
      <trkpt lat="44.110821" lon="3.165025">
        <ele>382.699210</ele>
        <time>2025-02-27T11:13:22.874Z</time>
      </trkpt>
      <trkpt lat="44.110422" lon="3.164223">
        <ele>382.782259</ele>
        <time>2025-02-27T11:13:34.601Z</time>
      </trkpt>
      <trkpt lat="44.110005" lon="3.163196">
        <ele>383.031826</ele>
        <time>2025-02-27T11:13:49.428Z</time>
      </trkpt>
      <trkpt lat="44.109729" lon="3.162626">
        <ele>383.198671</ele>
        <time>2025-02-27T11:13:57.616Z</time>
      </trkpt>
      <trkpt lat="44.109619" lon="3.162444">
        <ele>383.256404</ele>
        <time>2025-02-27T11:14:00.261Z</time>
      </trkpt>
      <trkpt lat="44.109471" lon="3.162228">
        <ele>383.328862</ele>
        <time>2025-02-27T11:14:03.470Z</time>
      </trkpt>
      <trkpt lat="44.108984" lon="3.161648">
        <ele>383.126923</ele>
        <time>2025-02-27T11:14:12.639Z</time>
      </trkpt>
      <trkpt lat="44.108786" lon="3.161337">
        <ele>382.915990</ele>
        <time>2025-02-27T11:14:16.625Z</time>
      </trkpt>
      <trkpt lat="44.108367" lon="3.160512">
        <ele>382.403169</ele>
        <time>2025-02-27T11:14:25.406Z</time>
      </trkpt>
      <trkpt lat="44.108075" lon="3.159769">
        <ele>382.086253</ele>
        <time>2025-02-27T11:14:32.754Z</time>
      </trkpt>
      <trkpt lat="44.108002" lon="3.159491">
        <ele>382.038547</ele>
        <time>2025-02-27T11:14:35.447Z</time>
      </trkpt>
      <trkpt lat="44.107990" lon="3.159169">
        <ele>381.986581</ele>
        <time>2025-02-27T11:14:38.513Z</time>
      </trkpt>
      <trkpt lat="44.108054" lon="3.158916">
        <ele>381.943350</ele>
        <time>2025-02-27T11:14:41.117Z</time>
      </trkpt>
      <trkpt lat="44.108278" lon="3.158320">
        <ele>381.834932</ele>
        <time>2025-02-27T11:14:48.438Z</time>
      </trkpt>
      <trkpt lat="44.108360" lon="3.157822">
        <ele>381.752588</ele>
        <time>2025-02-27T11:14:54.713Z</time>
      </trkpt>
      <trkpt lat="44.108369" lon="3.157260">
        <ele>381.802410</ele>
        <time>2025-02-27T11:15:01.511Z</time>
      </trkpt>
      <trkpt lat="44.108336" lon="3.156656">
        <ele>381.892317</ele>
        <time>2025-02-27T11:15:08.500Z</time>
      </trkpt>
      <trkpt lat="44.108273" lon="3.156214">
        <ele>381.959201</ele>
        <time>2025-02-27T11:15:13.269Z</time>
      </trkpt>
      <trkpt lat="44.108163" lon="3.155859">
        <ele>382.016589</ele>
        <time>2025-02-27T11:15:17.117Z</time>
      </trkpt>
      <trkpt lat="44.107341" lon="3.154293">
        <ele>382.518412</ele>
        <time>2025-02-27T11:15:38.981Z</time>
      </trkpt>
      <trkpt lat="44.106510" lon="3.152162">
        <ele>382.064163</ele>
        <time>2025-02-27T11:16:09.799Z</time>
      </trkpt>
      <trkpt lat="44.106260" lon="3.151507">
        <ele>381.579911</ele>
        <time>2025-02-27T11:16:15.576Z</time>
      </trkpt>
      <trkpt lat="44.106118" lon="3.151006">
        <ele>381.216453</ele>
        <time>2025-02-27T11:16:19.541Z</time>
      </trkpt>
      <trkpt lat="44.106039" lon="3.150579">
        <ele>380.734910</ele>
        <time>2025-02-27T11:16:22.688Z</time>
      </trkpt>
      <trkpt lat="44.105938" lon="3.149663">
        <ele>379.722851</ele>
        <time>2025-02-27T11:16:30.136Z</time>
      </trkpt>
      <trkpt lat="44.105924" lon="3.149327">
        <ele>379.355299</ele>
        <time>2025-02-27T11:16:33.213Z</time>
      </trkpt>
      <trkpt lat="44.105943" lon="3.148938">
        <ele>378.929502</ele>
        <time>2025-02-27T11:16:36.906Z</time>
      </trkpt>
      <trkpt lat="44.106047" lon="3.148178">
        <ele>378.390581</ele>
        <time>2025-02-27T11:16:44.469Z</time>
      </trkpt>
      <trkpt lat="44.106598" lon="3.146092">
        <ele>377.714317</ele>
        <time>2025-02-27T11:17:05.869Z</time>
      </trkpt>
      <trkpt lat="44.106696" lon="3.145848">
        <ele>377.645710</ele>
        <time>2025-02-27T11:17:08.544Z</time>
      </trkpt>
      <trkpt lat="44.107878" lon="3.143397">
        <ele>377.428178</ele>
        <time>2025-02-27T11:17:37.548Z</time>
      </trkpt>
      <trkpt lat="44.108247" lon="3.142687">
        <ele>377.745407</ele>
        <time>2025-02-27T11:17:48.941Z</time>
      </trkpt>
      <trkpt lat="44.109259" lon="3.140881">
        <ele>378.854580</ele>
        <time>2025-02-27T11:18:20.709Z</time>
      </trkpt>
      <trkpt lat="44.109368" lon="3.140575">
        <ele>379.042099</ele>
        <time>2025-02-27T11:18:24.103Z</time>
      </trkpt>
      <trkpt lat="44.109392" lon="3.140443">
        <ele>379.116850</ele>
        <time>2025-02-27T11:18:25.495Z</time>
      </trkpt>
      <trkpt lat="44.109374" lon="3.140196">
        <ele>379.253141</ele>
        <time>2025-02-27T11:18:28.472Z</time>
      </trkpt>
      <trkpt lat="44.109296" lon="3.140003">
        <ele>379.374722</ele>
        <time>2025-02-27T11:18:31.603Z</time>
      </trkpt>
      <trkpt lat="44.109214" lon="3.139767">
        <ele>379.319726</ele>
        <time>2025-02-27T11:18:35.715Z</time>
      </trkpt>
      <trkpt lat="44.109162" lon="3.139025">
        <ele>378.994172</ele>
        <time>2025-02-27T11:18:43.494Z</time>
      </trkpt>
      <trkpt lat="44.109080" lon="3.138685">
        <ele>378.837550</ele>
        <time>2025-02-27T11:18:46.487Z</time>
      </trkpt>
      <trkpt lat="44.108993" lon="3.138503">
        <ele>378.742072</ele>
        <time>2025-02-27T11:18:48.496Z</time>
      </trkpt>
      <trkpt lat="44.108956" lon="3.138443">
        <ele>378.707535</ele>
        <time>2025-02-27T11:18:49.307Z</time>
      </trkpt>
      <trkpt lat="44.108862" lon="3.138335">
        <ele>378.633424</ele>
        <time>2025-02-27T11:18:50.918Z</time>
      </trkpt>
      <trkpt lat="44.108755" lon="3.138271">
        <ele>378.562602</ele>
        <time>2025-02-27T11:18:52.390Z</time>
      </trkpt>
      <trkpt lat="44.108264" lon="3.138136">
        <ele>378.157316</ele>
        <time>2025-02-27T11:18:58.645Z</time>
      </trkpt>
      <trkpt lat="44.108106" lon="3.138045">
        <ele>377.865099</ele>
        <time>2025-02-27T11:19:00.542Z</time>
      </trkpt>
      <trkpt lat="44.108054" lon="3.137974">
        <ele>377.740640</ele>
        <time>2025-02-27T11:19:01.289Z</time>
      </trkpt>
      <trkpt lat="44.107954" lon="3.137757">
        <ele>377.424216</ele>
        <time>2025-02-27T11:19:03.125Z</time>
      </trkpt>
      <trkpt lat="44.107927" lon="3.137642">
        <ele>377.275738</ele>
        <time>2025-02-27T11:19:03.974Z</time>
      </trkpt>
      <trkpt lat="44.107926" lon="3.137508">
        <ele>377.111287</ele>
        <time>2025-02-27T11:19:04.914Z</time>
      </trkpt>
      <trkpt lat="44.107986" lon="3.137241">
        <ele>376.767958</ele>
        <time>2025-02-27T11:19:06.902Z</time>
      </trkpt>
      <trkpt lat="44.108084" lon="3.137043">
        <ele>376.472843</ele>
        <time>2025-02-27T11:19:08.678Z</time>
      </trkpt>
      <trkpt lat="44.108711" lon="3.135929">
        <ele>375.346143</ele>
        <time>2025-02-27T11:19:22.552Z</time>
      </trkpt>
      <trkpt lat="44.109136" lon="3.134889">
        <ele>375.655573</ele>
        <time>2025-02-27T11:19:35.465Z</time>
      </trkpt>
      <trkpt lat="44.109615" lon="3.133641">
        <ele>376.519807</ele>
        <time>2025-02-27T11:19:54.836Z</time>
      </trkpt>
      <trkpt lat="44.109676" lon="3.133324">
        <ele>376.920676</ele>
        <time>2025-02-27T11:20:00.077Z</time>
      </trkpt>
      <trkpt lat="44.109674" lon="3.132905">
        <ele>377.432482</ele>
        <time>2025-02-27T11:20:07.464Z</time>
      </trkpt>
      <trkpt lat="44.109512" lon="3.131554">
        <ele>378.932991</ele>
        <time>2025-02-27T11:20:30.529Z</time>
      </trkpt>
      <trkpt lat="44.109408" lon="3.130974">
        <ele>378.865962</ele>
        <time>2025-02-27T11:20:37.545Z</time>
      </trkpt>
      <trkpt lat="44.109353" lon="3.130778">
        <ele>378.842367</ele>
        <time>2025-02-27T11:20:39.565Z</time>
      </trkpt>
      <trkpt lat="44.109180" lon="3.130253">
        <ele>378.777598</ele>
        <time>2025-02-27T11:20:44.453Z</time>
      </trkpt>
      <trkpt lat="44.108988" lon="3.129783">
        <ele>378.716967</ele>
        <time>2025-02-27T11:20:48.774Z</time>
      </trkpt>
      <trkpt lat="44.108447" lon="3.128910">
        <ele>379.347502</ele>
        <time>2025-02-27T11:21:01.684Z</time>
      </trkpt>
      <trkpt lat="44.108399" lon="3.128861">
        <ele>379.427644</ele>
        <time>2025-02-27T11:21:02.952Z</time>
      </trkpt>
      <trkpt lat="44.108340" lon="3.128801">
        <ele>379.526021</ele>
        <time>2025-02-27T11:21:04.714Z</time>
      </trkpt>
      <trkpt lat="44.108091" lon="3.128637">
        <ele>379.896934</ele>
        <time>2025-02-27T11:21:11.415Z</time>
      </trkpt>
      <trkpt lat="44.107936" lon="3.128581">
        <ele>380.112569</ele>
        <time>2025-02-27T11:21:15.453Z</time>
      </trkpt>
      <trkpt lat="44.107325" lon="3.128467">
        <ele>380.942704</ele>
        <time>2025-02-27T11:21:30.751Z</time>
      </trkpt>
      <trkpt lat="44.106884" lon="3.128432">
        <ele>380.759041</ele>
        <time>2025-02-27T11:21:39.438Z</time>
      </trkpt>
      <trkpt lat="44.106325" lon="3.128475">
        <ele>380.205277</ele>
        <time>2025-02-27T11:21:46.446Z</time>
      </trkpt>
      <trkpt lat="44.105759" lon="3.128542">
        <ele>379.643414</ele>
        <time>2025-02-27T11:21:52.615Z</time>
      </trkpt>
      <trkpt lat="44.105106" lon="3.128734">
        <ele>378.284351</ele>
        <time>2025-02-27T11:21:59.731Z</time>
      </trkpt>
      <trkpt lat="44.104788" lon="3.128909">
        <ele>377.221816</ele>
        <time>2025-02-27T11:22:03.222Z</time>
      </trkpt>
      <trkpt lat="44.104329" lon="3.129214">
        <ele>375.641432</ele>
        <time>2025-02-27T11:22:08.278Z</time>
      </trkpt>
      <trkpt lat="44.103718" lon="3.129599">
        <ele>373.585120</ele>
        <time>2025-02-27T11:22:14.983Z</time>
      </trkpt>
      <trkpt lat="44.103491" lon="3.129689">
        <ele>372.976271</ele>
        <time>2025-02-27T11:22:17.382Z</time>
      </trkpt>
      <trkpt lat="44.103267" lon="3.129700">
        <ele>372.398070</ele>
        <time>2025-02-27T11:22:19.673Z</time>
      </trkpt>
      <trkpt lat="44.103118" lon="3.129671">
        <ele>372.009967</ele>
        <time>2025-02-27T11:22:21.248Z</time>
      </trkpt>
      <trkpt lat="44.102800" lon="3.129544">
        <ele>371.156572</ele>
        <time>2025-02-27T11:22:24.802Z</time>
      </trkpt>
      <trkpt lat="44.102527" lon="3.129346">
        <ele>370.362539</ele>
        <time>2025-02-27T11:22:28.216Z</time>
      </trkpt>
      <trkpt lat="44.102321" lon="3.129153">
        <ele>369.722060</ele>
        <time>2025-02-27T11:22:30.942Z</time>
      </trkpt>
      <trkpt lat="44.102178" lon="3.128906">
        <ele>369.134323</ele>
        <time>2025-02-27T11:22:33.429Z</time>
      </trkpt>
      <trkpt lat="44.102066" lon="3.128602">
        <ele>368.531897</ele>
        <time>2025-02-27T11:22:35.999Z</time>
      </trkpt>
      <trkpt lat="44.101955" lon="3.128142">
        <ele>367.680305</ele>
        <time>2025-02-27T11:22:39.555Z</time>
      </trkpt>
      <trkpt lat="44.101805" lon="3.127114">
        <ele>365.839440</ele>
        <time>2025-02-27T11:22:47.220Z</time>
      </trkpt>
      <trkpt lat="44.101785" lon="3.126974">
        <ele>365.588945</ele>
        <time>2025-02-27T11:22:48.281Z</time>
      </trkpt>
      <trkpt lat="44.101455" lon="3.125116">
        <ele>364.105222</ele>
        <time>2025-02-27T11:23:05.064Z</time>
      </trkpt>
      <trkpt lat="44.101322" lon="3.124202">
        <ele>363.718666</ele>
        <time>2025-02-27T11:23:15.479Z</time>
      </trkpt>
      <trkpt lat="44.101224" lon="3.123779">
        <ele>363.625859</ele>
        <time>2025-02-27T11:23:20.214Z</time>
      </trkpt>
      <trkpt lat="44.101169" lon="3.123390">
        <ele>363.595143</ele>
        <time>2025-02-27T11:23:24.390Z</time>
      </trkpt>
      <trkpt lat="44.101184" lon="3.122458">
        <ele>363.522918</ele>
        <time>2025-02-27T11:23:34.056Z</time>
      </trkpt>
      <trkpt lat="44.101129" lon="3.120977">
        <ele>363.514598</ele>
        <time>2025-02-27T11:23:48.966Z</time>
      </trkpt>
      <trkpt lat="44.101278" lon="3.117776">
        <ele>364.585108</ele>
        <time>2025-02-27T11:24:25.712Z</time>
      </trkpt>
      <trkpt lat="44.101340" lon="3.117235">
        <ele>364.954837</ele>
        <time>2025-02-27T11:24:34.640Z</time>
      </trkpt>
      <trkpt lat="44.101516" lon="3.116556">
        <ele>365.397741</ele>
        <time>2025-02-27T11:24:46.122Z</time>
      </trkpt>
      <trkpt lat="44.101551" lon="3.116377">
        <ele>365.345693</ele>
        <time>2025-02-27T11:24:48.874Z</time>
      </trkpt>
      <trkpt lat="44.101560" lon="3.116157">
        <ele>365.283870</ele>
        <time>2025-02-27T11:24:51.870Z</time>
      </trkpt>
      <trkpt lat="44.101518" lon="3.115917">
        <ele>365.214565</ele>
        <time>2025-02-27T11:24:54.713Z</time>
      </trkpt>
      <trkpt lat="44.101449" lon="3.115747">
        <ele>365.159779</ele>
        <time>2025-02-27T11:24:56.608Z</time>
      </trkpt>
      <trkpt lat="44.101145" lon="3.115131">
        <ele>364.950077</ele>
        <time>2025-02-27T11:25:03.263Z</time>
      </trkpt>
      <trkpt lat="44.101020" lon="3.114929">
        <ele>364.875265</ele>
        <time>2025-02-27T11:25:05.472Z</time>
      </trkpt>
      <trkpt lat="44.100759" lon="3.114631">
        <ele>364.743401</ele>
        <time>2025-02-27T11:25:09.312Z</time>
      </trkpt>
      <trkpt lat="44.100454" lon="3.114336">
        <ele>364.651562</ele>
        <time>2025-02-27T11:25:13.601Z</time>
      </trkpt>
      <trkpt lat="44.100366" lon="3.114215">
        <ele>364.626695</ele>
        <time>2025-02-27T11:25:15.059Z</time>
      </trkpt>
      <trkpt lat="44.100270" lon="3.114010">
        <ele>364.591355</ele>
        <time>2025-02-27T11:25:17.195Z</time>
      </trkpt>
      <trkpt lat="44.100123" lon="3.113333">
        <ele>364.489226</ele>
        <time>2025-02-27T11:25:24.838Z</time>
      </trkpt>
      <trkpt lat="44.100053" lon="3.112979">
        <ele>364.436206</ele>
        <time>2025-02-27T11:25:29.533Z</time>
      </trkpt>
      <trkpt lat="44.099997" lon="3.112440">
        <ele>364.357564</ele>
        <time>2025-02-27T11:25:36.504Z</time>
      </trkpt>
      <trkpt lat="44.100005" lon="3.112274">
        <ele>364.330296</ele>
        <time>2025-02-27T11:25:38.588Z</time>
      </trkpt>
      <trkpt lat="44.100224" lon="3.110969">
        <ele>364.087810</ele>
        <time>2025-02-27T11:25:53.689Z</time>
      </trkpt>
      <trkpt lat="44.100561" lon="3.105889">
        <ele>361.113977</ele>
        <time>2025-02-27T11:26:38.234Z</time>
      </trkpt>
      <trkpt lat="44.100629" lon="3.104497">
        <ele>360.467233</ele>
        <time>2025-02-27T11:26:51.283Z</time>
      </trkpt>
      <trkpt lat="44.100702" lon="3.103951">
        <ele>360.396314</ele>
        <time>2025-02-27T11:26:56.953Z</time>
      </trkpt>
      <trkpt lat="44.100727" lon="3.103646">
        <ele>360.357115</ele>
        <time>2025-02-27T11:27:00.158Z</time>
      </trkpt>
      <trkpt lat="44.100801" lon="3.102594">
        <ele>360.222140</ele>
        <time>2025-02-27T11:27:11.432Z</time>
      </trkpt>
      <trkpt lat="44.100880" lon="3.101381">
        <ele>360.237184</ele>
        <time>2025-02-27T11:27:24.392Z</time>
      </trkpt>
      <trkpt lat="44.100924" lon="3.100797">
        <ele>360.258091</ele>
        <time>2025-02-27T11:27:30.564Z</time>
      </trkpt>
      <trkpt lat="44.100924" lon="3.100432">
        <ele>360.271087</ele>
        <time>2025-02-27T11:27:34.505Z</time>
      </trkpt>
      <trkpt lat="44.100966" lon="3.100157">
        <ele>360.281097</ele>
        <time>2025-02-27T11:27:37.579Z</time>
      </trkpt>
      <trkpt lat="44.101114" lon="3.097717">
        <ele>360.670530</ele>
        <time>2025-02-27T11:28:05.721Z</time>
      </trkpt>
      <trkpt lat="44.101147" lon="3.097527">
        <ele>360.704081</ele>
        <time>2025-02-27T11:28:08.027Z</time>
      </trkpt>
      <trkpt lat="44.101159" lon="3.097470">
        <ele>360.714276</ele>
        <time>2025-02-27T11:28:08.684Z</time>
      </trkpt>
      <trkpt lat="44.101394" lon="3.096625">
        <ele>360.632365</ele>
        <time>2025-02-27T11:28:18.576Z</time>
      </trkpt>
      <trkpt lat="44.101444" lon="3.096427">
        <ele>360.611646</ele>
        <time>2025-02-27T11:28:20.692Z</time>
      </trkpt>
      <trkpt lat="44.101486" lon="3.096281">
        <ele>360.596121</ele>
        <time>2025-02-27T11:28:22.271Z</time>
      </trkpt>
      <trkpt lat="44.101545" lon="3.096233">
        <ele>360.586728</ele>
        <time>2025-02-27T11:28:23.258Z</time>
      </trkpt>
      <trkpt lat="44.101553" lon="3.096138">
        <ele>360.577286</ele>
        <time>2025-02-27T11:28:24.229Z</time>
      </trkpt>
      <trkpt lat="44.101588" lon="3.095910">
        <ele>360.554271</ele>
        <time>2025-02-27T11:28:26.739Z</time>
      </trkpt>
      <trkpt lat="44.101785" lon="3.095265">
        <ele>360.485083</ele>
        <time>2025-02-27T11:28:33.849Z</time>
      </trkpt>
      <trkpt lat="44.101801" lon="3.095207">
        <ele>360.478950</ele>
        <time>2025-02-27T11:28:34.449Z</time>
      </trkpt>
      <trkpt lat="44.101908" lon="3.094606">
        <ele>360.029687</ele>
        <time>2025-02-27T11:28:40.155Z</time>
      </trkpt>
      <trkpt lat="44.102017" lon="3.093180">
        <ele>358.870444</ele>
        <time>2025-02-27T11:28:52.472Z</time>
      </trkpt>
      <trkpt lat="44.102019" lon="3.093101">
        <ele>358.806544</ele>
        <time>2025-02-27T11:28:53.103Z</time>
      </trkpt>
      <trkpt lat="44.102054" lon="3.092604">
        <ele>358.397080</ele>
        <time>2025-02-27T11:28:57.181Z</time>
      </trkpt>
      <trkpt lat="44.102085" lon="3.092434">
        <ele>358.236772</ele>
        <time>2025-02-27T11:28:58.583Z</time>
      </trkpt>
      <trkpt lat="44.102152" lon="3.092301">
        <ele>358.088284</ele>
        <time>2025-02-27T11:28:59.882Z</time>
      </trkpt>
      <trkpt lat="44.102159" lon="3.092291">
        <ele>358.075520</ele>
        <time>2025-02-27T11:28:59.994Z</time>
      </trkpt>
      <trkpt lat="44.102336" lon="3.092070">
        <ele>357.772946</ele>
        <time>2025-02-27T11:29:02.699Z</time>
      </trkpt>
      <trkpt lat="44.102275" lon="3.092042">
        <ele>357.691198</ele>
        <time>2025-02-27T11:29:09.445Z</time>
      </trkpt>
      <trkpt lat="44.102492" lon="3.091750">
        <ele>357.307131</ele>
        <time>2025-02-27T11:29:14.473Z</time>
      </trkpt>
      <trkpt lat="44.102593" lon="3.091509">
        <ele>357.052096</ele>
        <time>2025-02-27T11:29:17.888Z</time>
      </trkpt>
      <trkpt lat="44.102769" lon="3.091089">
        <ele>356.607647</ele>
        <time>2025-02-27T11:29:23.963Z</time>
      </trkpt>
      <trkpt lat="44.102954" lon="3.090730">
        <ele>356.203788</ele>
        <time>2025-02-27T11:29:29.398Z</time>
      </trkpt>
      <trkpt lat="44.103131" lon="3.090307">
        <ele>355.898178</ele>
        <time>2025-02-27T11:29:35.619Z</time>
      </trkpt>
      <trkpt lat="44.103192" lon="3.090028">
        <ele>355.725797</ele>
        <time>2025-02-27T11:29:39.379Z</time>
      </trkpt>
      <trkpt lat="44.103193" lon="3.089770">
        <ele>355.573301</ele>
        <time>2025-02-27T11:29:42.747Z</time>
      </trkpt>
      <trkpt lat="44.103134" lon="3.089428">
        <ele>355.365406</ele>
        <time>2025-02-27T11:29:47.370Z</time>
      </trkpt>
      <trkpt lat="44.102985" lon="3.088613">
        <ele>354.868323</ele>
        <time>2025-02-27T11:29:58.148Z</time>
      </trkpt>
      <trkpt lat="44.102700" lon="3.088077">
        <ele>354.844013</ele>
        <time>2025-02-27T11:30:06.290Z</time>
      </trkpt>
      <trkpt lat="44.102660" lon="3.088005">
        <ele>354.888138</ele>
        <time>2025-02-27T11:30:07.385Z</time>
      </trkpt>
      <trkpt lat="44.102506" lon="3.087734">
        <ele>355.055650</ele>
        <time>2025-02-27T11:30:11.783Z</time>
      </trkpt>
      <trkpt lat="44.102377" lon="3.087576">
        <ele>355.171613</ele>
        <time>2025-02-27T11:30:14.877Z</time>
      </trkpt>
      <trkpt lat="44.102196" lon="3.087418">
        <ele>355.315807</ele>
        <time>2025-02-27T11:30:18.786Z</time>
      </trkpt>
      <trkpt lat="44.102218" lon="3.087347">
        <ele>355.353289</ele>
        <time>2025-02-27T11:30:20.043Z</time>
      </trkpt>
      <trkpt lat="44.102037" lon="3.087123">
        <ele>355.516738</ele>
        <time>2025-02-27T11:30:24.562Z</time>
      </trkpt>
      <trkpt lat="44.101991" lon="3.086955">
        <ele>355.603890</ele>
        <time>2025-02-27T11:30:27.742Z</time>
      </trkpt>
      <trkpt lat="44.101905" lon="3.086043">
        <ele>356.681215</ele>
        <time>2025-02-27T11:30:45.363Z</time>
      </trkpt>
      <trkpt lat="44.101846" lon="3.085916">
        <ele>357.046975</ele>
        <time>2025-02-27T11:30:48.721Z</time>
      </trkpt>
      <trkpt lat="44.101896" lon="3.085814">
        <ele>357.345607</ele>
        <time>2025-02-27T11:30:51.313Z</time>
      </trkpt>
      <trkpt lat="44.101881" lon="3.085647">
        <ele>357.752575</ele>
        <time>2025-02-27T11:30:55.059Z</time>
      </trkpt>
      <trkpt lat="44.101829" lon="3.085576">
        <ele>357.997802</ele>
        <time>2025-02-27T11:30:57.487Z</time>
      </trkpt>
      <trkpt lat="44.101801" lon="3.085363">
        <ele>358.521415</ele>
        <time>2025-02-27T11:31:02.456Z</time>
      </trkpt>
      <trkpt lat="44.101624" lon="3.083277">
        <ele>363.432711</ele>
        <time>2025-02-27T11:31:44.798Z</time>
      </trkpt>
      <trkpt lat="44.101614" lon="3.083170">
        <ele>363.667113</ele>
        <time>2025-02-27T11:31:46.586Z</time>
      </trkpt>
      <trkpt lat="44.101496" lon="3.082215">
        <ele>365.772201</ele>
        <time>2025-02-27T11:32:04.807Z</time>
      </trkpt>
      <trkpt lat="44.101449" lon="3.082016">
        <ele>366.227281</ele>
        <time>2025-02-27T11:32:08.908Z</time>
      </trkpt>
      <trkpt lat="44.101317" lon="3.081702">
        <ele>367.017689</ele>
        <time>2025-02-27T11:32:15.644Z</time>
      </trkpt>
      <trkpt lat="44.101151" lon="3.081476">
        <ele>367.759576</ele>
        <time>2025-02-27T11:32:21.528Z</time>
      </trkpt>
      <trkpt lat="44.101037" lon="3.081371">
        <ele>368.222540</ele>
        <time>2025-02-27T11:32:25.077Z</time>
      </trkpt>
      <trkpt lat="44.100841" lon="3.081269">
        <ele>368.931279</ele>
        <time>2025-02-27T11:32:31.081Z</time>
      </trkpt>
      <trkpt lat="44.100532" lon="3.081198">
        <ele>369.992080</ele>
        <time>2025-02-27T11:32:40.924Z</time>
      </trkpt>
      <trkpt lat="44.100459" lon="3.081181">
        <ele>370.242781</ele>
        <time>2025-02-27T11:32:43.791Z</time>
      </trkpt>
      <trkpt lat="44.100397" lon="3.081167">
        <ele>370.455531</ele>
        <time>2025-02-27T11:32:46.208Z</time>
      </trkpt>
      <trkpt lat="44.100185" lon="3.081105">
        <ele>371.189286</ele>
        <time>2025-02-27T11:33:01.277Z</time>
      </trkpt>
      <trkpt lat="44.100133" lon="3.081112">
        <ele>371.366242</ele>
        <time>2025-02-27T11:33:04.902Z</time>
      </trkpt>
      <trkpt lat="44.099937" lon="3.081138">
        <ele>372.033141</ele>
        <time>2025-02-27T11:33:18.621Z</time>
      </trkpt>
      <trkpt lat="44.099910" lon="3.080969">
        <ele>372.454275</ele>
        <time>2025-02-27T11:33:22.087Z</time>
      </trkpt>
      <trkpt lat="44.099861" lon="3.080664">
        <ele>373.214511</ele>
        <time>2025-02-27T11:33:27.926Z</time>
      </trkpt>
      <trkpt lat="44.099809" lon="3.080332">
        <ele>373.701499</ele>
        <time>2025-02-27T11:33:34.080Z</time>
      </trkpt>
      <trkpt lat="44.099745" lon="3.079933">
        <ele>374.092424</ele>
        <time>2025-02-27T11:33:40.677Z</time>
      </trkpt>
      <trkpt lat="44.099736" lon="3.079875">
        <ele>374.149164</ele>
        <time>2025-02-27T11:33:41.524Z</time>
      </trkpt>
      <trkpt lat="44.099670" lon="3.079398">
        <ele>374.613661</ele>
        <time>2025-02-27T11:33:49.336Z</time>
      </trkpt>
      <trkpt lat="44.099643" lon="3.079238">
        <ele>374.770820</ele>
        <time>2025-02-27T11:33:51.841Z</time>
      </trkpt>
      <trkpt lat="44.099626" lon="3.079135">
        <ele>374.871877</ele>
        <time>2025-02-27T11:33:53.309Z</time>
      </trkpt>
      <trkpt lat="44.099761" lon="3.078935">
        <ele>375.134336</ele>
        <time>2025-02-27T11:33:56.854Z</time>
      </trkpt>
      <trkpt lat="44.099762" lon="3.078933">
        <ele>375.136666</ele>
        <time>2025-02-27T11:33:56.882Z</time>
      </trkpt>
      <trkpt lat="44.099761" lon="3.078935">
        <ele>375.138996</ele>
        <time>2025-02-27T11:33:57.002Z</time>
      </trkpt>
      <trkpt lat="44.099762" lon="3.078933">
        <ele>375.141326</ele>
        <time>2025-02-27T11:33:57.030Z</time>
      </trkpt>
      <trkpt lat="44.099762" lon="3.078933">
        <ele>375.141326</ele>
        <time>2025-02-27T11:33:57.034Z</time>
      </trkpt>
      <trkpt lat="44.099783" lon="3.078822">
        <ele>375.251086</ele>
        <time>2025-02-27T11:33:58.359Z</time>
      </trkpt>
      <trkpt lat="44.099818" lon="3.078758">
        <ele>375.328007</ele>
        <time>2025-02-27T11:33:59.228Z</time>
      </trkpt>
      <trkpt lat="44.099818" lon="3.078758">
        <ele>375.328007</ele>
        <time>2025-02-27T11:33:59.245Z</time>
      </trkpt>
      <trkpt lat="44.099818" lon="3.078758">
        <ele>375.328007</ele>
        <time>2025-02-27T11:33:59.261Z</time>
      </trkpt>
      <trkpt lat="44.099828" lon="3.078682">
        <ele>375.401888</ele>
        <time>2025-02-27T11:34:00.159Z</time>
      </trkpt>
      <trkpt lat="44.099837" lon="3.078615">
        <ele>375.467065</ele>
        <time>2025-02-27T11:34:00.880Z</time>
      </trkpt>
      <trkpt lat="44.099819" lon="3.078530">
        <ele>375.551802</ele>
        <time>2025-02-27T11:34:01.843Z</time>
      </trkpt>
      <trkpt lat="44.099745" lon="3.078409">
        <ele>375.703773</ele>
        <time>2025-02-27T11:34:03.552Z</time>
      </trkpt>
      <trkpt lat="44.099715" lon="3.078394">
        <ele>375.746215</ele>
        <time>2025-02-27T11:34:04.033Z</time>
      </trkpt>
      <trkpt lat="44.099666" lon="3.078368">
        <ele>375.816036</ele>
        <time>2025-02-27T11:34:04.872Z</time>
      </trkpt>
      <trkpt lat="44.099501" lon="3.078279">
        <ele>375.773027</ele>
        <time>2025-02-27T11:34:07.532Z</time>
      </trkpt>
      <trkpt lat="44.099401" lon="3.078224">
        <ele>375.688481</ele>
        <time>2025-02-27T11:34:09.186Z</time>
      </trkpt>
      <trkpt lat="44.098969" lon="3.077178">
        <ele>375.007093</ele>
        <time>2025-02-27T11:34:21.493Z</time>
      </trkpt>
      <trkpt lat="44.098821" lon="3.077046">
        <ele>374.868890</ele>
        <time>2025-02-27T11:34:23.628Z</time>
      </trkpt>
      <trkpt lat="44.098642" lon="3.076958">
        <ele>374.719621</ele>
        <time>2025-02-27T11:34:25.782Z</time>
      </trkpt>
      <trkpt lat="44.098463" lon="3.076892">
        <ele>374.574015</ele>
        <time>2025-02-27T11:34:27.886Z</time>
      </trkpt>
      <trkpt lat="44.098229" lon="3.076830">
        <ele>374.134427</ele>
        <time>2025-02-27T11:34:30.471Z</time>
      </trkpt>
      <trkpt lat="44.098196" lon="3.076827">
        <ele>374.021438</ele>
        <time>2025-02-27T11:34:30.825Z</time>
      </trkpt>
      <trkpt lat="44.097875" lon="3.076805">
        <ele>372.923375</ele>
        <time>2025-02-27T11:34:34.179Z</time>
      </trkpt>
      <trkpt lat="44.097526" lon="3.076764">
        <ele>371.726738</ele>
        <time>2025-02-27T11:34:37.700Z</time>
      </trkpt>
      <trkpt lat="44.097386" lon="3.076748">
        <ele>371.246803</ele>
        <time>2025-02-27T11:34:39.090Z</time>
      </trkpt>
      <trkpt lat="44.095524" lon="3.076559">
        <ele>365.038302</ele>
        <time>2025-02-27T11:34:57.205Z</time>
      </trkpt>
      <trkpt lat="44.095512" lon="3.076517">
        <ele>364.932860</ele>
        <time>2025-02-27T11:34:57.534Z</time>
      </trkpt>
      <trkpt lat="44.095481" lon="3.076502">
        <ele>364.826263</ele>
        <time>2025-02-27T11:34:57.859Z</time>
      </trkpt>
      <trkpt lat="44.095453" lon="3.076461">
        <ele>364.694284</ele>
        <time>2025-02-27T11:34:58.274Z</time>
      </trkpt>
      <trkpt lat="44.095227" lon="3.075963">
        <ele>363.320102</ele>
        <time>2025-02-27T11:35:02.643Z</time>
      </trkpt>
      <trkpt lat="44.094878" lon="3.075192">
        <ele>362.320801</ele>
        <time>2025-02-27T11:35:10.395Z</time>
      </trkpt>
      <trkpt lat="44.094844" lon="3.075119">
        <ele>362.296406</ele>
        <time>2025-02-27T11:35:11.292Z</time>
      </trkpt>
      <trkpt lat="44.094727" lon="3.074873">
        <ele>362.213677</ele>
        <time>2025-02-27T11:35:14.656Z</time>
      </trkpt>
      <trkpt lat="44.094494" lon="3.074352">
        <ele>362.041589</ele>
        <time>2025-02-27T11:35:22.309Z</time>
      </trkpt>
      <trkpt lat="44.094424" lon="3.074203">
        <ele>361.991667</ele>
        <time>2025-02-27T11:35:24.511Z</time>
      </trkpt>
      <trkpt lat="44.094401" lon="3.074044">
        <ele>361.946190</ele>
        <time>2025-02-27T11:35:26.502Z</time>
      </trkpt>
      <trkpt lat="44.094423" lon="3.073911">
        <ele>361.907922</ele>
        <time>2025-02-27T11:35:28.131Z</time>
      </trkpt>
      <trkpt lat="44.094368" lon="3.073795">
        <ele>361.868948</ele>
        <time>2025-02-27T11:35:29.742Z</time>
      </trkpt>
      <trkpt lat="44.094300" lon="3.073769">
        <ele>361.841418</ele>
        <time>2025-02-27T11:35:30.868Z</time>
      </trkpt>
      <trkpt lat="44.094304" lon="3.073649">
        <ele>361.807735</ele>
        <time>2025-02-27T11:35:32.218Z</time>
      </trkpt>
      <trkpt lat="44.094277" lon="3.073476">
        <ele>361.678273</ele>
        <time>2025-02-27T11:35:33.952Z</time>
      </trkpt>
      <trkpt lat="44.094234" lon="3.073344">
        <ele>361.412730</ele>
        <time>2025-02-27T11:35:35.255Z</time>
      </trkpt>
      <trkpt lat="44.094000" lon="3.072993">
        <ele>360.535341</ele>
        <time>2025-02-27T11:35:39.047Z</time>
      </trkpt>
      <trkpt lat="44.093823" lon="3.072797">
        <ele>359.958452</ele>
        <time>2025-02-27T11:35:41.386Z</time>
      </trkpt>
      <trkpt lat="44.093661" lon="3.072716">
        <ele>359.519370</ele>
        <time>2025-02-27T11:35:43.113Z</time>
      </trkpt>
      <trkpt lat="44.093527" lon="3.072689">
        <ele>359.173990</ele>
        <time>2025-02-27T11:35:44.473Z</time>
      </trkpt>
      <trkpt lat="44.093280" lon="3.072664">
        <ele>358.542257</ele>
        <time>2025-02-27T11:35:46.925Z</time>
      </trkpt>
      <trkpt lat="44.093148" lon="3.072600">
        <ele>358.185707</ele>
        <time>2025-02-27T11:35:48.310Z</time>
      </trkpt>
      <trkpt lat="44.093093" lon="3.072541">
        <ele>358.008598</ele>
        <time>2025-02-27T11:35:49.006Z</time>
      </trkpt>
      <trkpt lat="44.092942" lon="3.072139">
        <ele>357.180245</ele>
        <time>2025-02-27T11:35:52.264Z</time>
      </trkpt>
      <trkpt lat="44.092897" lon="3.071995">
        <ele>357.008533</ele>
        <time>2025-02-27T11:35:53.412Z</time>
      </trkpt>
      <trkpt lat="44.092800" lon="3.071683">
        <ele>356.636794</ele>
        <time>2025-02-27T11:35:55.910Z</time>
      </trkpt>
      <trkpt lat="44.092710" lon="3.071470">
        <ele>356.366580</ele>
        <time>2025-02-27T11:35:57.773Z</time>
      </trkpt>
      <trkpt lat="44.092262" lon="3.070748">
        <ele>355.323304</ele>
        <time>2025-02-27T11:36:06.027Z</time>
      </trkpt>
      <trkpt lat="44.092055" lon="3.070399">
        <ele>354.828391</ele>
        <time>2025-02-27T11:36:10.252Z</time>
      </trkpt>
      <trkpt lat="44.091842" lon="3.069949">
        <ele>354.424195</ele>
        <time>2025-02-27T11:36:15.479Z</time>
      </trkpt>
      <trkpt lat="44.091639" lon="3.069300">
        <ele>354.342353</ele>
        <time>2025-02-27T11:36:22.516Z</time>
      </trkpt>
      <trkpt lat="44.091468" lon="3.068451">
        <ele>354.240409</ele>
        <time>2025-02-27T11:36:31.678Z</time>
      </trkpt>
      <trkpt lat="44.091274" lon="3.067480">
        <ele>354.412686</ele>
        <time>2025-02-27T11:36:42.467Z</time>
      </trkpt>
      <trkpt lat="44.091257" lon="3.067101">
        <ele>354.756978</ele>
        <time>2025-02-27T11:36:46.682Z</time>
      </trkpt>
      <trkpt lat="44.091251" lon="3.066971">
        <ele>354.875087</ele>
        <time>2025-02-27T11:36:48.204Z</time>
      </trkpt>
      <trkpt lat="44.091268" lon="3.066717">
        <ele>355.106375</ele>
        <time>2025-02-27T11:36:51.310Z</time>
      </trkpt>
      <trkpt lat="44.091433" lon="3.066044">
        <ele>355.751124</ele>
        <time>2025-02-27T11:37:00.924Z</time>
      </trkpt>
      <trkpt lat="44.091537" lon="3.065793">
        <ele>356.013847</ele>
        <time>2025-02-27T11:37:05.398Z</time>
      </trkpt>
      <trkpt lat="44.091631" lon="3.065631">
        <ele>356.202667</ele>
        <time>2025-02-27T11:37:08.946Z</time>
      </trkpt>
      <trkpt lat="44.091995" lon="3.065085">
        <ele>357.453242</ele>
        <time>2025-02-27T11:37:24.411Z</time>
      </trkpt>
      <trkpt lat="44.092382" lon="3.064457">
        <ele>359.160159</ele>
        <time>2025-02-27T11:37:43.008Z</time>
      </trkpt>
      <trkpt lat="44.092457" lon="3.064295">
        <ele>359.557739</ele>
        <time>2025-02-27T11:37:46.898Z</time>
      </trkpt>
      <trkpt lat="44.092534" lon="3.064156">
        <ele>359.919843</ele>
        <time>2025-02-27T11:37:50.234Z</time>
      </trkpt>
      <trkpt lat="44.092553" lon="3.064157">
        <ele>359.974452</ele>
        <time>2025-02-27T11:37:50.687Z</time>
      </trkpt>
      <trkpt lat="44.092630" lon="3.064097">
        <ele>360.227880</ele>
        <time>2025-02-27T11:37:52.826Z</time>
      </trkpt>
      <trkpt lat="44.092642" lon="3.063976">
        <ele>360.479844</ele>
        <time>2025-02-27T11:37:54.841Z</time>
      </trkpt>
      <trkpt lat="44.092572" lon="3.063885">
        <ele>360.754899</ele>
        <time>2025-02-27T11:37:57.130Z</time>
      </trkpt>
      <trkpt lat="44.092512" lon="3.063891">
        <ele>360.927668</ele>
        <time>2025-02-27T11:37:58.401Z</time>
      </trkpt>
      <trkpt lat="44.092421" lon="3.063797">
        <ele>361.253101</ele>
        <time>2025-02-27T11:38:00.957Z</time>
      </trkpt>
      <trkpt lat="44.092239" lon="3.063425">
        <ele>361.832346</ele>
        <time>2025-02-27T11:38:07.504Z</time>
      </trkpt>
      <trkpt lat="44.092222" lon="3.063389">
        <ele>361.868496</ele>
        <time>2025-02-27T11:38:08.064Z</time>
      </trkpt>
      <trkpt lat="44.091929" lon="3.062909">
        <ele>362.397043</ele>
        <time>2025-02-27T11:38:16.757Z</time>
      </trkpt>
      <trkpt lat="44.091585" lon="3.062457">
        <ele>362.949609</ele>
        <time>2025-02-27T11:38:25.927Z</time>
      </trkpt>
      <trkpt lat="44.091394" lon="3.062254">
        <ele>363.230321</ele>
        <time>2025-02-27T11:38:31.097Z</time>
      </trkpt>
      <trkpt lat="44.091020" lon="3.061927">
        <ele>363.693446</ele>
        <time>2025-02-27T11:38:40.019Z</time>
      </trkpt>
      <trkpt lat="44.090583" lon="3.061666">
        <ele>363.686287</ele>
        <time>2025-02-27T11:38:46.984Z</time>
      </trkpt>
      <trkpt lat="44.090326" lon="3.061605">
        <ele>363.682362</ele>
        <time>2025-02-27T11:38:50.024Z</time>
      </trkpt>
      <trkpt lat="44.089763" lon="3.061548">
        <ele>363.673864</ele>
        <time>2025-02-27T11:38:56.824Z</time>
      </trkpt>
      <trkpt lat="44.089464" lon="3.061446">
        <ele>363.669229</ele>
        <time>2025-02-27T11:39:01.305Z</time>
      </trkpt>
      <trkpt lat="44.089207" lon="3.061269">
        <ele>364.101239</ele>
        <time>2025-02-27T11:39:06.473Z</time>
      </trkpt>
      <trkpt lat="44.089018" lon="3.060962">
        <ele>364.993988</ele>
        <time>2025-02-27T11:39:13.270Z</time>
      </trkpt>
      <trkpt lat="44.088878" lon="3.060655">
        <ele>365.796900</ele>
        <time>2025-02-27T11:39:20.470Z</time>
      </trkpt>
      <trkpt lat="44.088783" lon="3.060278">
        <ele>366.679031</ele>
        <time>2025-02-27T11:39:29.787Z</time>
      </trkpt>
      <trkpt lat="44.088771" lon="3.059869">
        <ele>367.582829</ele>
        <time>2025-02-27T11:39:40.496Z</time>
      </trkpt>
      <trkpt lat="44.088770" lon="3.059731">
        <ele>367.887539</ele>
        <time>2025-02-27T11:39:44.034Z</time>
      </trkpt>
      <trkpt lat="44.088837" lon="3.058880">
        <ele>369.294220</ele>
        <time>2025-02-27T11:40:02.451Z</time>
      </trkpt>
      <trkpt lat="44.089052" lon="3.057650">
        <ele>369.765899</ele>
        <time>2025-02-27T11:40:18.846Z</time>
      </trkpt>
      <trkpt lat="44.089215" lon="3.056761">
        <ele>370.107765</ele>
        <time>2025-02-27T11:40:26.944Z</time>
      </trkpt>
      <trkpt lat="44.089484" lon="3.055361">
        <ele>368.144596</ele>
        <time>2025-02-27T11:40:38.062Z</time>
      </trkpt>
      <trkpt lat="44.089652" lon="3.054498">
        <ele>366.869795</ele>
        <time>2025-02-27T11:40:45.054Z</time>
      </trkpt>
      <trkpt lat="44.089742" lon="3.054226">
        <ele>366.452751</ele>
        <time>2025-02-27T11:40:47.529Z</time>
      </trkpt>
      <trkpt lat="44.090342" lon="3.052919">
        <ele>364.430530</ele>
        <time>2025-02-27T11:41:00.199Z</time>
      </trkpt>
      <trkpt lat="44.090709" lon="3.052186">
        <ele>363.262292</ele>
        <time>2025-02-27T11:41:07.395Z</time>
      </trkpt>
      <trkpt lat="44.090842" lon="3.051950">
        <ele>362.824756</ele>
        <time>2025-02-27T11:41:09.644Z</time>
      </trkpt>
      <trkpt lat="44.091172" lon="3.051365">
        <ele>361.739790</ele>
        <time>2025-02-27T11:41:15.171Z</time>
      </trkpt>
      <trkpt lat="44.091633" lon="3.050560">
        <ele>360.238116</ele>
        <time>2025-02-27T11:41:23.388Z</time>
      </trkpt>
      <trkpt lat="44.091875" lon="3.049914">
        <ele>359.511206</ele>
        <time>2025-02-27T11:41:29.258Z</time>
      </trkpt>
      <trkpt lat="44.092035" lon="3.049164">
        <ele>359.192209</ele>
        <time>2025-02-27T11:41:36.565Z</time>
      </trkpt>
      <trkpt lat="44.092154" lon="3.048350">
        <ele>358.853516</ele>
        <time>2025-02-27T11:41:46.162Z</time>
      </trkpt>
      <trkpt lat="44.092177" lon="3.048060">
        <ele>358.734558</ele>
        <time>2025-02-27T11:41:49.078Z</time>
      </trkpt>
      <trkpt lat="44.092160" lon="3.047319">
        <ele>358.049151</ele>
        <time>2025-02-27T11:41:56.104Z</time>
      </trkpt>
      <trkpt lat="44.092119" lon="3.046924">
        <ele>357.555066</ele>
        <time>2025-02-27T11:41:59.575Z</time>
      </trkpt>
      <trkpt lat="44.091926" lon="3.045792">
        <ele>356.114718</ele>
        <time>2025-02-27T11:42:08.621Z</time>
      </trkpt>
      <trkpt lat="44.091531" lon="3.044076">
        <ele>353.527323</ele>
        <time>2025-02-27T11:42:22.144Z</time>
      </trkpt>
      <trkpt lat="44.091454" lon="3.043628">
        <ele>352.832769</ele>
        <time>2025-02-27T11:42:25.785Z</time>
      </trkpt>
      <trkpt lat="44.091411" lon="3.043296">
        <ele>352.324113</ele>
        <time>2025-02-27T11:42:28.520Z</time>
      </trkpt>
      <trkpt lat="44.091397" lon="3.042688">
        <ele>351.815941</ele>
        <time>2025-02-27T11:42:33.766Z</time>
      </trkpt>
      <trkpt lat="44.091459" lon="3.042090">
        <ele>352.009514</ele>
        <time>2025-02-27T11:42:39.244Z</time>
      </trkpt>
      <trkpt lat="44.091595" lon="3.041595">
        <ele>352.179308</ele>
        <time>2025-02-27T11:42:44.991Z</time>
      </trkpt>
      <trkpt lat="44.091776" lon="3.041205">
        <ele>352.328072</ele>
        <time>2025-02-27T11:42:51.946Z</time>
      </trkpt>
      <trkpt lat="44.092041" lon="3.040798">
        <ele>352.504070</ele>
        <time>2025-02-27T11:42:59.945Z</time>
      </trkpt>
      <trkpt lat="44.092402" lon="3.040263">
        <ele>353.236533</ele>
        <time>2025-02-27T11:43:12.455Z</time>
      </trkpt>
      <trkpt lat="44.092427" lon="3.040226">
        <ele>353.294814</ele>
        <time>2025-02-27T11:43:13.320Z</time>
      </trkpt>
      <trkpt lat="44.092720" lon="3.039790">
        <ele>353.979833</ele>
        <time>2025-02-27T11:43:24.251Z</time>
      </trkpt>
      <trkpt lat="44.093273" lon="3.038924">
        <ele>355.309254</ele>
        <time>2025-02-27T11:43:41.444Z</time>
      </trkpt>
      <trkpt lat="44.093514" lon="3.038469">
        <ele>355.147207</ele>
        <time>2025-02-27T11:43:47.239Z</time>
      </trkpt>
      <trkpt lat="44.093697" lon="3.038041">
        <ele>354.857916</ele>
        <time>2025-02-27T11:43:51.841Z</time>
      </trkpt>
      <trkpt lat="44.093925" lon="3.037336">
        <ele>354.408868</ele>
        <time>2025-02-27T11:43:58.226Z</time>
      </trkpt>
      <trkpt lat="44.093994" lon="3.037074">
        <ele>354.246796</ele>
        <time>2025-02-27T11:44:00.463Z</time>
      </trkpt>
      <trkpt lat="44.094111" lon="3.036378">
        <ele>353.931520</ele>
        <time>2025-02-27T11:44:06.388Z</time>
      </trkpt>
      <trkpt lat="44.094275" lon="3.034703">
        <ele>353.684085</ele>
        <time>2025-02-27T11:44:23.598Z</time>
      </trkpt>
      <trkpt lat="44.094311" lon="3.034344">
        <ele>353.631029</ele>
        <time>2025-02-27T11:44:27.953Z</time>
      </trkpt>
      <trkpt lat="44.094299" lon="3.033787">
        <ele>353.906785</ele>
        <time>2025-02-27T11:44:34.340Z</time>
      </trkpt>
      <trkpt lat="44.094172" lon="3.033119">
        <ele>354.541070</ele>
        <time>2025-02-27T11:44:44.201Z</time>
      </trkpt>
      <trkpt lat="44.094031" lon="3.032602">
        <ele>355.048695</ele>
        <time>2025-02-27T11:44:53.395Z</time>
      </trkpt>
      <trkpt lat="44.093914" lon="3.032278">
        <ele>355.381576</ele>
        <time>2025-02-27T11:44:59.480Z</time>
      </trkpt>
      <trkpt lat="44.093662" lon="3.031727">
        <ele>355.914990</ele>
        <time>2025-02-27T11:45:09.172Z</time>
      </trkpt>
      <trkpt lat="44.093523" lon="3.031478">
        <ele>355.975723</ele>
        <time>2025-02-27T11:45:13.024Z</time>
      </trkpt>
      <trkpt lat="44.093144" lon="3.030938">
        <ele>356.121126</ele>
        <time>2025-02-27T11:45:22.315Z</time>
      </trkpt>
      <trkpt lat="44.092681" lon="3.030396">
        <ele>356.283322</ele>
        <time>2025-02-27T11:45:30.581Z</time>
      </trkpt>
      <trkpt lat="44.090836" lon="3.028767">
        <ele>355.796466</ele>
        <time>2025-02-27T11:46:01.754Z</time>
      </trkpt>
      <trkpt lat="44.090561" lon="3.028584">
        <ele>355.182675</ele>
        <time>2025-02-27T11:46:05.464Z</time>
      </trkpt>
      <trkpt lat="44.090172" lon="3.028436">
        <ele>354.370597</ele>
        <time>2025-02-27T11:46:10.035Z</time>
      </trkpt>
      <trkpt lat="44.089459" lon="3.028089">
        <ele>352.849585</ele>
        <time>2025-02-27T11:46:17.950Z</time>
      </trkpt>
      <trkpt lat="44.088943" lon="3.027720">
        <ele>351.874936</ele>
        <time>2025-02-27T11:46:23.831Z</time>
      </trkpt>
      <trkpt lat="44.088412" lon="3.027259">
        <ele>351.060893</ele>
        <time>2025-02-27T11:46:30.730Z</time>
      </trkpt>
      <trkpt lat="44.088057" lon="3.026901">
        <ele>350.490675</ele>
        <time>2025-02-27T11:46:36.400Z</time>
      </trkpt>
      <trkpt lat="44.087819" lon="3.026603">
        <ele>350.074284</ele>
        <time>2025-02-27T11:46:41.060Z</time>
      </trkpt>
      <trkpt lat="44.087562" lon="3.026220">
        <ele>349.943328</ele>
        <time>2025-02-27T11:46:46.731Z</time>
      </trkpt>
      <trkpt lat="44.087285" lon="3.025746">
        <ele>350.046819</ele>
        <time>2025-02-27T11:46:53.897Z</time>
      </trkpt>
      <trkpt lat="44.086969" lon="3.025058">
        <ele>350.185126</ele>
        <time>2025-02-27T11:47:03.305Z</time>
      </trkpt>
      <trkpt lat="44.086048" lon="3.022419">
        <ele>350.663062</ele>
        <time>2025-02-27T11:47:37.514Z</time>
      </trkpt>
      <trkpt lat="44.085690" lon="3.021372">
        <ele>350.215319</ele>
        <time>2025-02-27T11:47:49.069Z</time>
      </trkpt>
      <trkpt lat="44.085516" lon="3.020698">
        <ele>349.788609</ele>
        <time>2025-02-27T11:47:55.385Z</time>
      </trkpt>
      <trkpt lat="44.084558" lon="3.016288">
        <ele>346.016527</ele>
        <time>2025-02-27T11:48:33.923Z</time>
      </trkpt>
      <trkpt lat="44.084471" lon="3.015645">
        <ele>345.641392</ele>
        <time>2025-02-27T11:48:39.915Z</time>
      </trkpt>
      <trkpt lat="44.084463" lon="3.015561">
        <ele>345.592811</ele>
        <time>2025-02-27T11:48:40.726Z</time>
      </trkpt>
      <trkpt lat="44.084453" lon="3.015411">
        <ele>345.506441</ele>
        <time>2025-02-27T11:48:42.200Z</time>
      </trkpt>
      <trkpt lat="44.084454" lon="3.014979">
        <ele>345.258761</ele>
        <time>2025-02-27T11:48:46.637Z</time>
      </trkpt>
      <trkpt lat="44.084514" lon="3.014361">
        <ele>345.478261</ele>
        <time>2025-02-27T11:48:53.708Z</time>
      </trkpt>
      <trkpt lat="44.085260" lon="3.011015">
        <ele>347.100715</ele>
        <time>2025-02-27T11:49:38.825Z</time>
      </trkpt>
      <trkpt lat="44.085528" lon="3.010170">
        <ele>347.603822</ele>
        <time>2025-02-27T11:49:50.469Z</time>
      </trkpt>
      <trkpt lat="44.085801" lon="3.009512">
        <ele>348.110387</ele>
        <time>2025-02-27T11:50:00.297Z</time>
      </trkpt>
      <trkpt lat="44.085982" lon="3.009143">
        <ele>348.408261</ele>
        <time>2025-02-27T11:50:06.283Z</time>
      </trkpt>
      <trkpt lat="44.086761" lon="3.007733">
        <ele>349.431596</ele>
        <time>2025-02-27T11:50:30.542Z</time>
      </trkpt>
      <trkpt lat="44.087006" lon="3.007348">
        <ele>349.605847</ele>
        <time>2025-02-27T11:50:36.931Z</time>
      </trkpt>
      <trkpt lat="44.087168" lon="3.007140">
        <ele>349.709785</ele>
        <time>2025-02-27T11:50:40.554Z</time>
      </trkpt>
      <trkpt lat="44.087607" lon="3.006684">
        <ele>349.968114</ele>
        <time>2025-02-27T11:50:49.022Z</time>
      </trkpt>
      <trkpt lat="44.088770" lon="3.005757">
        <ele>350.131826</ele>
        <time>2025-02-27T11:51:09.358Z</time>
      </trkpt>
      <trkpt lat="44.089435" lon="3.005111">
        <ele>350.101668</ele>
        <time>2025-02-27T11:51:21.965Z</time>
      </trkpt>
      <trkpt lat="44.089667" lon="3.004856">
        <ele>349.821642</ele>
        <time>2025-02-27T11:51:26.008Z</time>
      </trkpt>
      <trkpt lat="44.089979" lon="3.004453">
        <ele>349.418452</ele>
        <time>2025-02-27T11:51:31.191Z</time>
      </trkpt>
      <trkpt lat="44.090201" lon="3.004021">
        <ele>349.057010</ele>
        <time>2025-02-27T11:51:35.520Z</time>
      </trkpt>
      <trkpt lat="44.090580" lon="3.003173">
        <ele>348.423945</ele>
        <time>2025-02-27T11:51:44.014Z</time>
      </trkpt>
      <trkpt lat="44.090655" lon="3.003008">
        <ele>348.386098</ele>
        <time>2025-02-27T11:51:45.810Z</time>
      </trkpt>
      <trkpt lat="44.090701" lon="3.002906">
        <ele>348.362754</ele>
        <time>2025-02-27T11:51:46.890Z</time>
      </trkpt>
      <trkpt lat="44.090752" lon="3.002791">
        <ele>348.336559</ele>
        <time>2025-02-27T11:51:48.072Z</time>
      </trkpt>
      <trkpt lat="44.090989" lon="3.002130">
        <ele>348.193368</ele>
        <time>2025-02-27T11:51:54.440Z</time>
      </trkpt>
      <trkpt lat="44.091159" lon="3.001758">
        <ele>348.107910</ele>
        <time>2025-02-27T11:51:58.760Z</time>
      </trkpt>
      <trkpt lat="44.091410" lon="3.000974">
        <ele>348.001614</ele>
        <time>2025-02-27T11:52:11.093Z</time>
      </trkpt>
      <trkpt lat="44.091430" lon="3.000792">
        <ele>348.103645</ele>
        <time>2025-02-27T11:52:13.939Z</time>
      </trkpt>
      <trkpt lat="44.091485" lon="3.000189">
        <ele>348.440488</ele>
        <time>2025-02-27T11:52:21.262Z</time>
      </trkpt>
      <trkpt lat="44.091478" lon="3.000015">
        <ele>348.537064</ele>
        <time>2025-02-27T11:52:22.973Z</time>
      </trkpt>
      <trkpt lat="44.091408" lon="2.999723">
        <ele>348.707655</ele>
        <time>2025-02-27T11:52:25.784Z</time>
      </trkpt>
      <trkpt lat="44.091277" lon="2.999475">
        <ele>348.878253</ele>
        <time>2025-02-27T11:52:29.105Z</time>
      </trkpt>
      <trkpt lat="44.091096" lon="2.999145">
        <ele>349.108353</ele>
        <time>2025-02-27T11:52:35.576Z</time>
      </trkpt>
      <trkpt lat="44.090721" lon="2.998462">
        <ele>349.416553</ele>
        <time>2025-02-27T11:52:49.732Z</time>
      </trkpt>
      <trkpt lat="44.090634" lon="2.998340">
        <ele>349.445018</ele>
        <time>2025-02-27T11:52:51.849Z</time>
      </trkpt>
      <trkpt lat="44.090217" lon="2.997832">
        <ele>349.572746</ele>
        <time>2025-02-27T11:52:59.890Z</time>
      </trkpt>
      <trkpt lat="44.089983" lon="2.997575">
        <ele>349.641450</ele>
        <time>2025-02-27T11:53:04.698Z</time>
      </trkpt>
      <trkpt lat="44.089699" lon="2.997322">
        <ele>349.719172</ele>
        <time>2025-02-27T11:53:10.337Z</time>
      </trkpt>
      <trkpt lat="44.089522" lon="2.997178">
        <ele>349.722996</ele>
        <time>2025-02-27T11:53:12.961Z</time>
      </trkpt>
      <trkpt lat="44.088943" lon="2.996665">
        <ele>348.889198</ele>
        <time>2025-02-27T11:53:20.335Z</time>
      </trkpt>
      <trkpt lat="44.088707" lon="2.996422">
        <ele>348.532584</ele>
        <time>2025-02-27T11:53:23.570Z</time>
      </trkpt>
      <trkpt lat="44.088532" lon="2.996155">
        <ele>348.217165</ele>
        <time>2025-02-27T11:53:26.652Z</time>
      </trkpt>
      <trkpt lat="44.088412" lon="2.995881">
        <ele>347.937121</ele>
        <time>2025-02-27T11:53:29.587Z</time>
      </trkpt>
      <trkpt lat="44.088105" lon="2.994610">
        <ele>347.217757</ele>
        <time>2025-02-27T11:53:42.853Z</time>
      </trkpt>
      <trkpt lat="44.087941" lon="2.994065">
        <ele>346.990036</ele>
        <time>2025-02-27T11:53:48.595Z</time>
      </trkpt>
      <trkpt lat="44.087651" lon="2.993129">
        <ele>346.627678</ele>
        <time>2025-02-27T11:53:57.756Z</time>
      </trkpt>
      <trkpt lat="44.087502" lon="2.992740">
        <ele>346.887222</ele>
        <time>2025-02-27T11:54:01.642Z</time>
      </trkpt>
      <trkpt lat="44.086990" lon="2.991719">
        <ele>347.620314</ele>
        <time>2025-02-27T11:54:16.442Z</time>
      </trkpt>
      <trkpt lat="44.086539" lon="2.991003">
        <ele>348.247526</ele>
        <time>2025-02-27T11:54:33.849Z</time>
      </trkpt>
      <trkpt lat="44.086179" lon="2.990601">
        <ele>348.884029</ele>
        <time>2025-02-27T11:54:44.634Z</time>
      </trkpt>
      <trkpt lat="44.085602" lon="2.989863">
        <ele>349.964704</ele>
        <time>2025-02-27T11:55:03.810Z</time>
      </trkpt>
      <trkpt lat="44.085139" lon="2.989074">
        <ele>350.641925</ele>
        <time>2025-02-27T11:55:12.069Z</time>
      </trkpt>
      <trkpt lat="44.084601" lon="2.988059">
        <ele>350.878905</ele>
        <time>2025-02-27T11:55:27.514Z</time>
      </trkpt>
      <trkpt lat="44.084271" lon="2.987570">
        <ele>351.004956</ele>
        <time>2025-02-27T11:55:34.831Z</time>
      </trkpt>
      <trkpt lat="44.084125" lon="2.987278">
        <ele>351.439602</ele>
        <time>2025-02-27T11:55:39.116Z</time>
      </trkpt>
      <trkpt lat="44.084035" lon="2.987016">
        <ele>352.034051</ele>
        <time>2025-02-27T11:55:43.240Z</time>
      </trkpt>
      <trkpt lat="44.083942" lon="2.986432">
        <ele>353.258452</ele>
        <time>2025-02-27T11:55:55.813Z</time>
      </trkpt>
      <trkpt lat="44.083950" lon="2.985857">
        <ele>354.435630</ele>
        <time>2025-02-27T11:56:07.044Z</time>
      </trkpt>
      <trkpt lat="44.083996" lon="2.985658">
        <ele>354.863531</ele>
        <time>2025-02-27T11:56:11.022Z</time>
      </trkpt>
      <trkpt lat="44.084066" lon="2.985529">
        <ele>355.194452</ele>
        <time>2025-02-27T11:56:14.140Z</time>
      </trkpt>
      <trkpt lat="44.084280" lon="2.985349">
        <ele>355.906914</ele>
        <time>2025-02-27T11:56:21.278Z</time>
      </trkpt>
      <trkpt lat="44.084331" lon="2.985320">
        <ele>356.063896</ele>
        <time>2025-02-27T11:56:22.853Z</time>
      </trkpt>
      <trkpt lat="44.084508" lon="2.985303">
        <ele>356.636098</ele>
        <time>2025-02-27T11:56:28.471Z</time>
      </trkpt>
      <trkpt lat="44.084673" lon="2.985325">
        <ele>357.185274</ele>
        <time>2025-02-27T11:56:34.054Z</time>
      </trkpt>
      <trkpt lat="44.085250" lon="2.985526">
        <ele>359.155916</ele>
        <time>2025-02-27T11:56:56.542Z</time>
      </trkpt>
      <trkpt lat="44.086310" lon="2.986038">
        <ele>361.486687</ele>
        <time>2025-02-27T11:57:23.495Z</time>
      </trkpt>
      <trkpt lat="44.086728" lon="2.986191">
        <ele>360.285714</ele>
        <time>2025-02-27T11:57:28.395Z</time>
      </trkpt>
      <trkpt lat="44.087095" lon="2.986272">
        <ele>359.253193</ele>
        <time>2025-02-27T11:57:32.035Z</time>
      </trkpt>
      <trkpt lat="44.088215" lon="2.986423">
        <ele>355.938321</ele>
        <time>2025-02-27T11:57:42.555Z</time>
      </trkpt>
      <trkpt lat="44.088590" lon="2.986414">
        <ele>354.699023</ele>
        <time>2025-02-27T11:57:46.331Z</time>
      </trkpt>
      <trkpt lat="44.088856" lon="2.986370">
        <ele>353.813895</ele>
        <time>2025-02-27T11:57:49.123Z</time>
      </trkpt>
      <trkpt lat="44.089350" lon="2.986230">
        <ele>352.148094</ele>
        <time>2025-02-27T11:57:54.675Z</time>
      </trkpt>
      <trkpt lat="44.090877" lon="2.985661">
        <ele>347.287891</ele>
        <time>2025-02-27T11:58:11.059Z</time>
      </trkpt>
      <trkpt lat="44.090992" lon="2.985622">
        <ele>346.930171</ele>
        <time>2025-02-27T11:58:12.224Z</time>
      </trkpt>
      <trkpt lat="44.091165" lon="2.985534">
        <ele>346.373521</ele>
        <time>2025-02-27T11:58:14.029Z</time>
      </trkpt>
      <trkpt lat="44.091263" lon="2.985437">
        <ele>346.010126</ele>
        <time>2025-02-27T11:58:15.216Z</time>
      </trkpt>
      <trkpt lat="44.091466" lon="2.985094">
        <ele>345.230930</ele>
        <time>2025-02-27T11:58:18.374Z</time>
      </trkpt>
      <trkpt lat="44.092370" lon="2.983805">
        <ele>342.361882</ele>
        <time>2025-02-27T11:58:31.683Z</time>
      </trkpt>
      <trkpt lat="44.092554" lon="2.983500">
        <ele>341.775066</ele>
        <time>2025-02-27T11:58:36.082Z</time>
      </trkpt>
      <trkpt lat="44.092840" lon="2.982898">
        <ele>342.695462</ele>
        <time>2025-02-27T11:58:47.187Z</time>
      </trkpt>
      <trkpt lat="44.092871" lon="2.982828">
        <ele>342.800329</ele>
        <time>2025-02-27T11:58:48.460Z</time>
      </trkpt>
      <trkpt lat="44.093063" lon="2.982387">
        <ele>343.457929</ele>
        <time>2025-02-27T11:58:58.233Z</time>
      </trkpt>
      <trkpt lat="44.093350" lon="2.981564">
        <ele>344.624548</ele>
        <time>2025-02-27T11:59:15.592Z</time>
      </trkpt>
      <trkpt lat="44.093535" lon="2.980880">
        <ele>344.517563</ele>
        <time>2025-02-27T11:59:27.267Z</time>
      </trkpt>
      <trkpt lat="44.093577" lon="2.980640">
        <ele>344.295321</ele>
        <time>2025-02-27T11:59:29.602Z</time>
      </trkpt>
      <trkpt lat="44.093602" lon="2.980149">
        <ele>343.852467</ele>
        <time>2025-02-27T11:59:33.602Z</time>
      </trkpt>
      <trkpt lat="44.093483" lon="2.978698">
        <ele>342.418872</ele>
        <time>2025-02-27T11:59:44.429Z</time>
      </trkpt>
      <trkpt lat="44.093509" lon="2.977427">
        <ele>340.395663</ele>
        <time>2025-02-27T11:59:54.027Z</time>
      </trkpt>
      <trkpt lat="44.093664" lon="2.974778">
        <ele>337.533086</ele>
        <time>2025-02-27T12:00:15.837Z</time>
      </trkpt>
      <trkpt lat="44.093702" lon="2.974108">
        <ele>337.038371</ele>
        <time>2025-02-27T12:00:22.408Z</time>
      </trkpt>
      <trkpt lat="44.093710" lon="2.973962">
        <ele>336.930590</ele>
        <time>2025-02-27T12:00:23.907Z</time>
      </trkpt>
      <trkpt lat="44.093713" lon="2.973921">
        <ele>336.900254</ele>
        <time>2025-02-27T12:00:24.340Z</time>
      </trkpt>
      <trkpt lat="44.093760" lon="2.973363">
        <ele>336.992950</ele>
        <time>2025-02-27T12:00:30.722Z</time>
      </trkpt>
      <trkpt lat="44.093773" lon="2.972907">
        <ele>337.105486</ele>
        <time>2025-02-27T12:00:36.270Z</time>
      </trkpt>
      <trkpt lat="44.093748" lon="2.972422">
        <ele>337.225392</ele>
        <time>2025-02-27T12:00:41.688Z</time>
      </trkpt>
      <trkpt lat="44.093628" lon="2.971381">
        <ele>337.488514</ele>
        <time>2025-02-27T12:00:54.352Z</time>
      </trkpt>
      <trkpt lat="44.093536" lon="2.970954">
        <ele>337.778886</ele>
        <time>2025-02-27T12:01:00.305Z</time>
      </trkpt>
      <trkpt lat="44.093210" lon="2.969781">
        <ele>338.598133</ele>
        <time>2025-02-27T12:01:15.468Z</time>
      </trkpt>
      <trkpt lat="44.093051" lon="2.969334">
        <ele>338.923042</ele>
        <time>2025-02-27T12:01:22.242Z</time>
      </trkpt>
      <trkpt lat="44.092844" lon="2.968912">
        <ele>339.512549</ele>
        <time>2025-02-27T12:01:29.950Z</time>
      </trkpt>
      <trkpt lat="44.092763" lon="2.968774">
        <ele>339.839621</ele>
        <time>2025-02-27T12:01:32.892Z</time>
      </trkpt>
      <trkpt lat="44.091974" lon="2.967613">
        <ele>342.772925</ele>
        <time>2025-02-27T12:02:02.877Z</time>
      </trkpt>
      <trkpt lat="44.091551" lon="2.967147">
        <ele>343.889365</ele>
        <time>2025-02-27T12:02:18.165Z</time>
      </trkpt>
      <trkpt lat="44.091101" lon="2.966702">
        <ele>344.461565</ele>
        <time>2025-02-27T12:02:31.346Z</time>
      </trkpt>
      <trkpt lat="44.090685" lon="2.966346">
        <ele>344.967774</ele>
        <time>2025-02-27T12:02:40.493Z</time>
      </trkpt>
      <trkpt lat="44.090593" lon="2.966275">
        <ele>345.076821</ele>
        <time>2025-02-27T12:02:42.126Z</time>
      </trkpt>
      <trkpt lat="44.090082" lon="2.966028">
        <ele>345.475786</ele>
        <time>2025-02-27T12:02:49.267Z</time>
      </trkpt>
      <trkpt lat="44.088553" lon="2.965070">
        <ele>342.703178</ele>
        <time>2025-02-27T12:03:07.690Z</time>
      </trkpt>
      <trkpt lat="44.087171" lon="2.964322">
        <ele>341.000897</ele>
        <time>2025-02-27T12:03:25.395Z</time>
      </trkpt>
      <trkpt lat="44.087079" lon="2.964279">
        <ele>340.891617</ele>
        <time>2025-02-27T12:03:26.539Z</time>
      </trkpt>
      <trkpt lat="44.086058" lon="2.963716">
        <ele>341.670703</ele>
        <time>2025-02-27T12:03:40.792Z</time>
      </trkpt>
      <trkpt lat="44.085812" lon="2.963546">
        <ele>342.038592</ele>
        <time>2025-02-27T12:03:46.320Z</time>
      </trkpt>
      <trkpt lat="44.085531" lon="2.963284">
        <ele>342.491620</ele>
        <time>2025-02-27T12:03:54.703Z</time>
      </trkpt>
      <trkpt lat="44.085301" lon="2.963008">
        <ele>342.898370</ele>
        <time>2025-02-27T12:04:03.789Z</time>
      </trkpt>
      <trkpt lat="44.085103" lon="2.962718">
        <ele>343.818285</ele>
        <time>2025-02-27T12:04:13.703Z</time>
      </trkpt>
      <trkpt lat="44.084296" lon="2.961068">
        <ele>349.182167</ele>
        <time>2025-02-27T12:05:02.027Z</time>
      </trkpt>
      <trkpt lat="44.083711" lon="2.960064">
        <ele>348.726429</ele>
        <time>2025-02-27T12:05:15.420Z</time>
      </trkpt>
      <trkpt lat="44.083456" lon="2.959623">
        <ele>348.216201</ele>
        <time>2025-02-27T12:05:19.621Z</time>
      </trkpt>
      <trkpt lat="44.083287" lon="2.959200">
        <ele>347.779966</ele>
        <time>2025-02-27T12:05:23.155Z</time>
      </trkpt>
      <trkpt lat="44.083210" lon="2.958792">
        <ele>347.350329</ele>
        <time>2025-02-27T12:05:26.247Z</time>
      </trkpt>
      <trkpt lat="44.083194" lon="2.958342">
        <ele>346.591473</ele>
        <time>2025-02-27T12:05:29.585Z</time>
      </trkpt>
      <trkpt lat="44.083257" lon="2.957914">
        <ele>345.855620</ele>
        <time>2025-02-27T12:05:32.935Z</time>
      </trkpt>
      <trkpt lat="44.083413" lon="2.957237">
        <ele>344.658130</ele>
        <time>2025-02-27T12:05:38.597Z</time>
      </trkpt>
      <trkpt lat="44.083530" lon="2.956742">
        <ele>343.780438</ele>
        <time>2025-02-27T12:05:42.669Z</time>
      </trkpt>
      <trkpt lat="44.083729" lon="2.956071">
        <ele>342.759922</ele>
        <time>2025-02-27T12:05:48.248Z</time>
      </trkpt>
      <trkpt lat="44.083751" lon="2.955869">
        <ele>342.517876</ele>
        <time>2025-02-27T12:05:49.828Z</time>
      </trkpt>
      <trkpt lat="44.083726" lon="2.955653">
        <ele>342.258678</ele>
        <time>2025-02-27T12:05:51.521Z</time>
      </trkpt>
      <trkpt lat="44.083605" lon="2.955293">
        <ele>341.787803</ele>
        <time>2025-02-27T12:05:54.653Z</time>
      </trkpt>
      <trkpt lat="44.083576" lon="2.955034">
        <ele>341.477257</ele>
        <time>2025-02-27T12:05:56.752Z</time>
      </trkpt>
      <trkpt lat="44.083682" lon="2.954175">
        <ele>340.444683</ele>
        <time>2025-02-27T12:06:03.962Z</time>
      </trkpt>
      <trkpt lat="44.083802" lon="2.953889">
        <ele>340.242849</ele>
        <time>2025-02-27T12:06:07.039Z</time>
      </trkpt>
      <trkpt lat="44.084375" lon="2.953137">
        <ele>340.065879</ele>
        <time>2025-02-27T12:06:19.621Z</time>
      </trkpt>
      <trkpt lat="44.084743" lon="2.952759">
        <ele>339.963104</ele>
        <time>2025-02-27T12:06:26.910Z</time>
      </trkpt>
      <trkpt lat="44.084969" lon="2.952454">
        <ele>339.892367</ele>
        <time>2025-02-27T12:06:31.346Z</time>
      </trkpt>
      <trkpt lat="44.085394" lon="2.951679">
        <ele>338.785654</ele>
        <time>2025-02-27T12:06:39.927Z</time>
      </trkpt>
      <trkpt lat="44.085871" lon="2.950610">
        <ele>337.140405</ele>
        <time>2025-02-27T12:06:49.577Z</time>
      </trkpt>
      <trkpt lat="44.086096" lon="2.950168">
        <ele>336.492267</ele>
        <time>2025-02-27T12:06:53.602Z</time>
      </trkpt>
      <trkpt lat="44.086446" lon="2.949520">
        <ele>335.823332</ele>
        <time>2025-02-27T12:06:59.960Z</time>
      </trkpt>
      <trkpt lat="44.086734" lon="2.948825">
        <ele>335.161327</ele>
        <time>2025-02-27T12:07:06.977Z</time>
      </trkpt>
      <trkpt lat="44.087071" lon="2.948135">
        <ele>334.547946</ele>
        <time>2025-02-27T12:07:15.879Z</time>
      </trkpt>
      <trkpt lat="44.088227" lon="2.945276">
        <ele>335.685649</ele>
        <time>2025-02-27T12:07:55.081Z</time>
      </trkpt>
      <trkpt lat="44.088237" lon="2.945248">
        <ele>335.702753</ele>
        <time>2025-02-27T12:07:55.448Z</time>
      </trkpt>
      <trkpt lat="44.088337" lon="2.944967">
        <ele>335.874279</ele>
        <time>2025-02-27T12:07:59.326Z</time>
      </trkpt>
      <trkpt lat="44.088442" lon="2.944227">
        <ele>336.286850</ele>
        <time>2025-02-27T12:08:08.993Z</time>
      </trkpt>
      <trkpt lat="44.089046" lon="2.942358">
        <ele>337.577212</ele>
        <time>2025-02-27T12:08:37.735Z</time>
      </trkpt>
      <trkpt lat="44.089181" lon="2.941839">
        <ele>337.941903</ele>
        <time>2025-02-27T12:08:45.224Z</time>
      </trkpt>
      <trkpt lat="44.089231" lon="2.941509">
        <ele>338.164729</ele>
        <time>2025-02-27T12:08:49.499Z</time>
      </trkpt>
      <trkpt lat="44.089217" lon="2.940646">
        <ele>338.254821</ele>
        <time>2025-02-27T12:08:59.192Z</time>
      </trkpt>
      <trkpt lat="44.089160" lon="2.939700">
        <ele>338.263988</ele>
        <time>2025-02-27T12:09:08.104Z</time>
      </trkpt>
      <trkpt lat="44.089103" lon="2.939352">
        <ele>338.267434</ele>
        <time>2025-02-27T12:09:11.604Z</time>
      </trkpt>
      <trkpt lat="44.088922" lon="2.938847">
        <ele>338.351514</ele>
        <time>2025-02-27T12:09:17.647Z</time>
      </trkpt>
      <trkpt lat="44.088875" lon="2.938722">
        <ele>338.459441</ele>
        <time>2025-02-27T12:09:19.340Z</time>
      </trkpt>
      <trkpt lat="44.088443" lon="2.937705">
        <ele>339.363260</ele>
        <time>2025-02-27T12:09:36.396Z</time>
      </trkpt>
      <trkpt lat="44.088248" lon="2.937397">
        <ele>339.677328</ele>
        <time>2025-02-27T12:09:42.891Z</time>
      </trkpt>
      <trkpt lat="44.087818" lon="2.936884">
        <ele>340.262640</ele>
        <time>2025-02-27T12:09:54.339Z</time>
      </trkpt>
      <trkpt lat="44.087475" lon="2.936542">
        <ele>340.626060</ele>
        <time>2025-02-27T12:10:01.564Z</time>
      </trkpt>
      <trkpt lat="44.086696" lon="2.936089">
        <ele>341.353279</ele>
        <time>2025-02-27T12:10:15.004Z</time>
      </trkpt>
      <trkpt lat="44.085731" lon="2.935432">
        <ele>342.456644</ele>
        <time>2025-02-27T12:10:37.395Z</time>
      </trkpt>
      <trkpt lat="44.085241" lon="2.935181">
        <ele>343.054180</ele>
        <time>2025-02-27T12:10:49.246Z</time>
      </trkpt>
      <trkpt lat="44.084537" lon="2.934927">
        <ele>343.781372</ele>
        <time>2025-02-27T12:11:01.843Z</time>
      </trkpt>
      <trkpt lat="44.083963" lon="2.934784">
        <ele>343.679873</ele>
        <time>2025-02-27T12:11:09.547Z</time>
      </trkpt>
      <trkpt lat="44.083440" lon="2.934717">
        <ele>343.588453</ele>
        <time>2025-02-27T12:11:16.255Z</time>
      </trkpt>
      <trkpt lat="44.081532" lon="2.934067">
        <ele>344.017386</ele>
        <time>2025-02-27T12:11:46.146Z</time>
      </trkpt>
      <trkpt lat="44.080403" lon="2.933553">
        <ele>345.257888</ele>
        <time>2025-02-27T12:12:09.573Z</time>
      </trkpt>
      <trkpt lat="44.079924" lon="2.933380">
        <ele>345.967019</ele>
        <time>2025-02-27T12:12:21.209Z</time>
      </trkpt>
      <trkpt lat="44.079643" lon="2.933300">
        <ele>346.378026</ele>
        <time>2025-02-27T12:12:28.149Z</time>
      </trkpt>
      <trkpt lat="44.076834" lon="2.932713">
        <ele>348.731715</ele>
        <time>2025-02-27T12:13:17.254Z</time>
      </trkpt>
      <trkpt lat="44.076438" lon="2.932601">
        <ele>349.094527</ele>
        <time>2025-02-27T12:13:24.611Z</time>
      </trkpt>
      <trkpt lat="44.076206" lon="2.932498">
        <ele>349.313166</ele>
        <time>2025-02-27T12:13:29.351Z</time>
      </trkpt>
      <trkpt lat="44.075059" lon="2.931804">
        <ele>350.927617</ele>
        <time>2025-02-27T12:13:54.480Z</time>
      </trkpt>
      <trkpt lat="44.074297" lon="2.931301">
        <ele>352.162705</ele>
        <time>2025-02-27T12:14:11.428Z</time>
      </trkpt>
      <trkpt lat="44.074104" lon="2.931134">
        <ele>352.814434</ele>
        <time>2025-02-27T12:14:16.490Z</time>
      </trkpt>
      <trkpt lat="44.073899" lon="2.930907">
        <ele>353.797468</ele>
        <time>2025-02-27T12:14:22.753Z</time>
      </trkpt>
      <trkpt lat="44.073454" lon="2.930266">
        <ele>356.200639</ele>
        <time>2025-02-27T12:14:40.666Z</time>
      </trkpt>
      <trkpt lat="44.073306" lon="2.930090">
        <ele>356.931130</ele>
        <time>2025-02-27T12:14:46.960Z</time>
      </trkpt>
      <trkpt lat="44.072647" lon="2.929511">
        <ele>360.180543</ele>
        <time>2025-02-27T12:15:15.726Z</time>
      </trkpt>
      <trkpt lat="44.072486" lon="2.929314">
        <ele>361.305902</ele>
        <time>2025-02-27T12:15:23.867Z</time>
      </trkpt>
      <trkpt lat="44.072385" lon="2.929110">
        <ele>362.240322</ele>
        <time>2025-02-27T12:15:30.480Z</time>
      </trkpt>
      <trkpt lat="44.072312" lon="2.928836">
        <ele>363.342531</ele>
        <time>2025-02-27T12:15:38.102Z</time>
      </trkpt>
      <trkpt lat="44.072287" lon="2.928577">
        <ele>364.328175</ele>
        <time>2025-02-27T12:15:44.799Z</time>
      </trkpt>
      <trkpt lat="44.072310" lon="2.928297">
        <ele>365.391127</ele>
        <time>2025-02-27T12:15:51.933Z</time>
      </trkpt>
      <trkpt lat="44.072350" lon="2.928076">
        <ele>366.250713</ele>
        <time>2025-02-27T12:15:57.600Z</time>
      </trkpt>
      <trkpt lat="44.072513" lon="2.927566">
        <ele>368.356013</ele>
        <time>2025-02-27T12:16:12.107Z</time>
      </trkpt>
      <trkpt lat="44.072886" lon="2.926753">
        <ele>371.043611</ele>
        <time>2025-02-27T12:16:35.527Z</time>
      </trkpt>
      <trkpt lat="44.073203" lon="2.926237">
        <ele>372.910922</ele>
        <time>2025-02-27T12:16:50.365Z</time>
      </trkpt>
      <trkpt lat="44.073970" lon="2.925146">
        <ele>375.667140</ele>
        <time>2025-02-27T12:17:19.021Z</time>
      </trkpt>
      <trkpt lat="44.074124" lon="2.924981">
        <ele>375.794625</ele>
        <time>2025-02-27T12:17:22.556Z</time>
      </trkpt>
      <trkpt lat="44.074602" lon="2.924635">
        <ele>376.148053</ele>
        <time>2025-02-27T12:17:31.701Z</time>
      </trkpt>
      <trkpt lat="44.074715" lon="2.924515">
        <ele>376.241290</ele>
        <time>2025-02-27T12:17:33.517Z</time>
      </trkpt>
      <trkpt lat="44.075100" lon="2.923779">
        <ele>376.269976</ele>
        <time>2025-02-27T12:17:41.320Z</time>
      </trkpt>
      <trkpt lat="44.075156" lon="2.923669">
        <ele>376.124197</ele>
        <time>2025-02-27T12:17:42.551Z</time>
      </trkpt>
      <trkpt lat="44.075397" lon="2.923150">
        <ele>375.455979</ele>
        <time>2025-02-27T12:17:48.059Z</time>
      </trkpt>
      <trkpt lat="44.075517" lon="2.922881">
        <ele>375.113595</ele>
        <time>2025-02-27T12:17:50.925Z</time>
      </trkpt>
      <trkpt lat="44.075713" lon="2.922436">
        <ele>374.549187</ele>
        <time>2025-02-27T12:17:55.219Z</time>
      </trkpt>
      <trkpt lat="44.076039" lon="2.921699">
        <ele>372.971594</ele>
        <time>2025-02-27T12:18:01.934Z</time>
      </trkpt>
      <trkpt lat="44.076233" lon="2.921270">
        <ele>370.883062</ele>
        <time>2025-02-27T12:18:05.674Z</time>
      </trkpt>
      <trkpt lat="44.076369" lon="2.921057">
        <ele>369.708979</ele>
        <time>2025-02-27T12:18:07.643Z</time>
      </trkpt>
      <trkpt lat="44.076778" lon="2.920629">
        <ele>366.774466</ele>
        <time>2025-02-27T12:18:12.260Z</time>
      </trkpt>
      <trkpt lat="44.077346" lon="2.920200">
        <ele>363.132297</ele>
        <time>2025-02-27T12:18:17.895Z</time>
      </trkpt>
      <trkpt lat="44.077460" lon="2.920134">
        <ele>362.523001</ele>
        <time>2025-02-27T12:18:18.989Z</time>
      </trkpt>
      <trkpt lat="44.077582" lon="2.920070">
        <ele>361.879610</ele>
        <time>2025-02-27T12:18:20.145Z</time>
      </trkpt>
      <trkpt lat="44.077857" lon="2.920020">
        <ele>360.510989</ele>
        <time>2025-02-27T12:18:22.651Z</time>
      </trkpt>
      <trkpt lat="44.078031" lon="2.920021">
        <ele>359.652312</ele>
        <time>2025-02-27T12:18:24.239Z</time>
      </trkpt>
      <trkpt lat="44.078298" lon="2.920077">
        <ele>358.319825</ele>
        <time>2025-02-27T12:18:26.792Z</time>
      </trkpt>
      <trkpt lat="44.078519" lon="2.920188">
        <ele>357.160393</ele>
        <time>2025-02-27T12:18:29.099Z</time>
      </trkpt>
      <trkpt lat="44.078747" lon="2.920360">
        <ele>355.880633</ele>
        <time>2025-02-27T12:18:31.846Z</time>
      </trkpt>
      <trkpt lat="44.079379" lon="2.921008">
        <ele>352.662676</ele>
        <time>2025-02-27T12:18:41.331Z</time>
      </trkpt>
      <trkpt lat="44.079688" lon="2.921251">
        <ele>351.345668</ele>
        <time>2025-02-27T12:18:44.930Z</time>
      </trkpt>
      <trkpt lat="44.080080" lon="2.921475">
        <ele>349.773189</ele>
        <time>2025-02-27T12:18:49.010Z</time>
      </trkpt>
      <trkpt lat="44.080764" lon="2.921764">
        <ele>346.989193</ele>
        <time>2025-02-27T12:18:55.596Z</time>
      </trkpt>
      <trkpt lat="44.081541" lon="2.922052">
        <ele>343.546965</ele>
        <time>2025-02-27T12:19:02.972Z</time>
      </trkpt>
      <trkpt lat="44.081650" lon="2.922055">
        <ele>343.080245</ele>
        <time>2025-02-27T12:19:04.060Z</time>
      </trkpt>
      <trkpt lat="44.081711" lon="2.922006">
        <ele>342.778747</ele>
        <time>2025-02-27T12:19:04.770Z</time>
      </trkpt>
      <trkpt lat="44.081723" lon="2.921963">
        <ele>342.636883</ele>
        <time>2025-02-27T12:19:05.092Z</time>
      </trkpt>
      <trkpt lat="44.081751" lon="2.921550">
        <ele>341.361163</ele>
        <time>2025-02-27T12:19:08.279Z</time>
      </trkpt>
      <trkpt lat="44.081785" lon="2.921323">
        <ele>340.648069</ele>
        <time>2025-02-27T12:19:10.097Z</time>
      </trkpt>
      <trkpt lat="44.081885" lon="2.921023">
        <ele>340.111427</ele>
        <time>2025-02-27T12:19:12.804Z</time>
      </trkpt>
      <trkpt lat="44.081894" lon="2.920918">
        <ele>340.028524</ele>
        <time>2025-02-27T12:19:13.630Z</time>
      </trkpt>
      <trkpt lat="44.081831" lon="2.920834">
        <ele>339.933318</ele>
        <time>2025-02-27T12:19:14.678Z</time>
      </trkpt>
      <trkpt lat="44.081760" lon="2.920794">
        <ele>339.849725</ele>
        <time>2025-02-27T12:19:15.546Z</time>
      </trkpt>
      <trkpt lat="44.081210" lon="2.920571">
        <ele>339.224528</ele>
        <time>2025-02-27T12:19:23.677Z</time>
      </trkpt>
      <trkpt lat="44.080750" lon="2.920197">
        <ele>338.643142</ele>
        <time>2025-02-27T12:19:30.519Z</time>
      </trkpt>
      <trkpt lat="44.080106" lon="2.919867">
        <ele>337.500829</ele>
        <time>2025-02-27T12:19:38.345Z</time>
      </trkpt>
      <trkpt lat="44.079899" lon="2.919725">
        <ele>337.012315</ele>
        <time>2025-02-27T12:19:40.903Z</time>
      </trkpt>
      <trkpt lat="44.079701" lon="2.919527">
        <ele>336.496231</ele>
        <time>2025-02-27T12:19:43.566Z</time>
      </trkpt>
      <trkpt lat="44.078446" lon="2.917795">
        <ele>332.715922</ele>
        <time>2025-02-27T12:20:02.186Z</time>
      </trkpt>
      <trkpt lat="44.078250" lon="2.917591">
        <ele>332.186234</ele>
        <time>2025-02-27T12:20:04.788Z</time>
      </trkpt>
      <trkpt lat="44.077844" lon="2.917261">
        <ele>331.168662</ele>
        <time>2025-02-27T12:20:09.890Z</time>
      </trkpt>
      <trkpt lat="44.076458" lon="2.916324">
        <ele>329.424092</ele>
        <time>2025-02-27T12:20:28.360Z</time>
      </trkpt>
      <trkpt lat="44.076247" lon="2.916162">
        <ele>329.201053</ele>
        <time>2025-02-27T12:20:31.565Z</time>
      </trkpt>
      <trkpt lat="44.076078" lon="2.915988">
        <ele>329.006486</ele>
        <time>2025-02-27T12:20:34.432Z</time>
      </trkpt>
      <trkpt lat="44.075952" lon="2.915798">
        <ele>329.011011</ele>
        <time>2025-02-27T12:20:37.046Z</time>
      </trkpt>
      <trkpt lat="44.075806" lon="2.915447">
        <ele>329.162470</ele>
        <time>2025-02-27T12:20:41.392Z</time>
      </trkpt>
      <trkpt lat="44.075610" lon="2.914295">
        <ele>329.604564</ele>
        <time>2025-02-27T12:20:55.783Z</time>
      </trkpt>
      <trkpt lat="44.075527" lon="2.914042">
        <ele>329.708428</ele>
        <time>2025-02-27T12:20:59.579Z</time>
      </trkpt>
      <trkpt lat="44.075421" lon="2.913835">
        <ele>329.803355</ele>
        <time>2025-02-27T12:21:03.184Z</time>
      </trkpt>
      <trkpt lat="44.075020" lon="2.913422">
        <ele>330.120524</ele>
        <time>2025-02-27T12:21:13.414Z</time>
      </trkpt>
      <trkpt lat="44.074190" lon="2.912178">
        <ele>330.958170</ele>
        <time>2025-02-27T12:21:34.534Z</time>
      </trkpt>
      <trkpt lat="44.073572" lon="2.911468">
        <ele>332.397016</ele>
        <time>2025-02-27T12:21:46.567Z</time>
      </trkpt>
      <trkpt lat="44.073228" lon="2.910839">
        <ele>333.673930</ele>
        <time>2025-02-27T12:21:58.651Z</time>
      </trkpt>
      <trkpt lat="44.072761" lon="2.910382">
        <ele>334.957435</ele>
        <time>2025-02-27T12:22:15.800Z</time>
      </trkpt>
      <trkpt lat="44.072569" lon="2.910277">
        <ele>335.671982</ele>
        <time>2025-02-27T12:22:23.287Z</time>
      </trkpt>
      <trkpt lat="44.072304" lon="2.910278">
        <ele>336.843352</ele>
        <time>2025-02-27T12:22:33.451Z</time>
      </trkpt>
      <trkpt lat="44.071712" lon="2.910406">
        <ele>339.491524</ele>
        <time>2025-02-27T12:22:57.007Z</time>
      </trkpt>
      <trkpt lat="44.071165" lon="2.910646">
        <ele>342.026691</ele>
        <time>2025-02-27T12:23:15.571Z</time>
      </trkpt>
      <trkpt lat="44.070653" lon="2.910962">
        <ele>343.160724</ele>
        <time>2025-02-27T12:23:28.488Z</time>
      </trkpt>
      <trkpt lat="44.070357" lon="2.911172">
        <ele>343.212059</ele>
        <time>2025-02-27T12:23:33.815Z</time>
      </trkpt>
      <trkpt lat="44.069631" lon="2.911771">
        <ele>343.342467</ele>
        <time>2025-02-27T12:23:43.934Z</time>
      </trkpt>
      <trkpt lat="44.068740" lon="2.912640">
        <ele>342.645527</ele>
        <time>2025-02-27T12:23:58.970Z</time>
      </trkpt>
      <trkpt lat="44.068295" lon="2.913026">
        <ele>342.145084</ele>
        <time>2025-02-27T12:24:05.792Z</time>
      </trkpt>
      <trkpt lat="44.068216" lon="2.913108">
        <ele>342.051027</ele>
        <time>2025-02-27T12:24:06.940Z</time>
      </trkpt>
      <trkpt lat="44.068040" lon="2.913394">
        <ele>341.792801</ele>
        <time>2025-02-27T12:24:10.022Z</time>
      </trkpt>
      <trkpt lat="44.067744" lon="2.913958">
        <ele>340.957174</ele>
        <time>2025-02-27T12:24:15.438Z</time>
      </trkpt>
      <trkpt lat="44.067560" lon="2.914238">
        <ele>340.438853</ele>
        <time>2025-02-27T12:24:18.209Z</time>
      </trkpt>
      <trkpt lat="44.067282" lon="2.914560">
        <ele>339.751248</ele>
        <time>2025-02-27T12:24:21.827Z</time>
      </trkpt>
      <trkpt lat="44.067046" lon="2.914752">
        <ele>339.231546</ele>
        <time>2025-02-27T12:24:24.678Z</time>
      </trkpt>
      <trkpt lat="44.066299" lon="2.915102">
        <ele>338.346504</ele>
        <time>2025-02-27T12:24:35.031Z</time>
      </trkpt>
      <trkpt lat="44.065362" lon="2.915326">
        <ele>338.667665</ele>
        <time>2025-02-27T12:24:55.138Z</time>
      </trkpt>
      <trkpt lat="44.064736" lon="2.915601">
        <ele>338.657337</ele>
        <time>2025-02-27T12:25:05.097Z</time>
      </trkpt>
      <trkpt lat="44.064552" lon="2.915725">
        <ele>338.151342</ele>
        <time>2025-02-27T12:25:07.446Z</time>
      </trkpt>
      <trkpt lat="44.064038" lon="2.916361">
        <ele>336.449037</ele>
        <time>2025-02-27T12:25:14.624Z</time>
      </trkpt>
      <trkpt lat="44.063855" lon="2.916508">
        <ele>335.926066</ele>
        <time>2025-02-27T12:25:16.722Z</time>
      </trkpt>
      <trkpt lat="44.063649" lon="2.916603">
        <ele>335.388940</ele>
        <time>2025-02-27T12:25:18.848Z</time>
      </trkpt>
      <trkpt lat="44.063153" lon="2.916737">
        <ele>334.261928</ele>
        <time>2025-02-27T12:25:23.880Z</time>
      </trkpt>
      <trkpt lat="44.062890" lon="2.916944">
        <ele>333.854464</ele>
        <time>2025-02-27T12:25:27.081Z</time>
      </trkpt>
      <trkpt lat="44.062728" lon="2.917030">
        <ele>333.620643</ele>
        <time>2025-02-27T12:25:29.009Z</time>
      </trkpt>
      <trkpt lat="44.062357" lon="2.917104">
        <ele>333.115217</ele>
        <time>2025-02-27T12:25:33.415Z</time>
      </trkpt>
      <trkpt lat="44.062090" lon="2.917059">
        <ele>332.752522</ele>
        <time>2025-02-27T12:25:36.793Z</time>
      </trkpt>
      <trkpt lat="44.060859" lon="2.916640">
        <ele>332.228158</ele>
        <time>2025-02-27T12:25:55.402Z</time>
      </trkpt>
      <trkpt lat="44.059830" lon="2.916455">
        <ele>332.590943</ele>
        <time>2025-02-27T12:26:13.331Z</time>
      </trkpt>
      <trkpt lat="44.058803" lon="2.916025">
        <ele>332.300909</ele>
        <time>2025-02-27T12:26:31.729Z</time>
      </trkpt>
      <trkpt lat="44.058192" lon="2.915729">
        <ele>332.100695</ele>
        <time>2025-02-27T12:26:39.634Z</time>
      </trkpt>
      <trkpt lat="44.057221" lon="2.915045">
        <ele>330.831447</ele>
        <time>2025-02-27T12:26:51.512Z</time>
      </trkpt>
      <trkpt lat="44.056453" lon="2.914244">
        <ele>329.665390</ele>
        <time>2025-02-27T12:27:03.719Z</time>
      </trkpt>
      <trkpt lat="44.056201" lon="2.913921">
        <ele>329.469800</ele>
        <time>2025-02-27T12:27:08.301Z</time>
      </trkpt>
      <trkpt lat="44.055840" lon="2.913376">
        <ele>329.165720</ele>
        <time>2025-02-27T12:27:15.626Z</time>
      </trkpt>
      <trkpt lat="44.055676" lon="2.913067">
        <ele>329.008125</ele>
        <time>2025-02-27T12:27:19.417Z</time>
      </trkpt>
      <trkpt lat="44.055538" lon="2.912710">
        <ele>328.841817</ele>
        <time>2025-02-27T12:27:23.242Z</time>
      </trkpt>
      <trkpt lat="44.055406" lon="2.912417">
        <ele>328.699942</ele>
        <time>2025-02-27T12:27:26.389Z</time>
      </trkpt>
      <trkpt lat="44.055387" lon="2.912376">
        <ele>328.658403</ele>
        <time>2025-02-27T12:27:26.812Z</time>
      </trkpt>
      <trkpt lat="44.054993" lon="2.911131">
        <ele>327.487978</ele>
        <time>2025-02-27T12:27:38.414Z</time>
      </trkpt>
      <trkpt lat="44.054972" lon="2.910993">
        <ele>327.366613</ele>
        <time>2025-02-27T12:27:39.599Z</time>
      </trkpt>
      <trkpt lat="44.054975" lon="2.910742">
        <ele>327.150628</ele>
        <time>2025-02-27T12:27:41.638Z</time>
      </trkpt>
      <trkpt lat="44.054998" lon="2.910604">
        <ele>327.028744</ele>
        <time>2025-02-27T12:27:42.800Z</time>
      </trkpt>
      <trkpt lat="44.055195" lon="2.909876">
        <ele>326.525838</ele>
        <time>2025-02-27T12:27:49.318Z</time>
      </trkpt>
      <trkpt lat="44.055353" lon="2.909480">
        <ele>326.483255</ele>
        <time>2025-02-27T12:27:53.259Z</time>
      </trkpt>
      <trkpt lat="44.055969" lon="2.908431">
        <ele>326.355897</ele>
        <time>2025-02-27T12:28:07.743Z</time>
      </trkpt>
      <trkpt lat="44.056511" lon="2.907935">
        <ele>326.524023</ele>
        <time>2025-02-27T12:28:20.152Z</time>
      </trkpt>
      <trkpt lat="44.056786" lon="2.907616">
        <ele>326.774015</ele>
        <time>2025-02-27T12:28:26.300Z</time>
      </trkpt>
      <trkpt lat="44.056928" lon="2.907393">
        <ele>326.923525</ele>
        <time>2025-02-27T12:28:29.827Z</time>
      </trkpt>
      <trkpt lat="44.057457" lon="2.906833">
        <ele>327.387643</ele>
        <time>2025-02-27T12:28:42.520Z</time>
      </trkpt>
      <trkpt lat="44.057528" lon="2.906730">
        <ele>327.459261</ele>
        <time>2025-02-27T12:28:44.441Z</time>
      </trkpt>
      <trkpt lat="44.057713" lon="2.906382">
        <ele>327.560200</ele>
        <time>2025-02-27T12:28:49.584Z</time>
      </trkpt>
      <trkpt lat="44.058001" lon="2.905591">
        <ele>327.533135</ele>
        <time>2025-02-27T12:28:58.743Z</time>
      </trkpt>
      <trkpt lat="44.058201" lon="2.905061">
        <ele>327.514864</ele>
        <time>2025-02-27T12:29:04.847Z</time>
      </trkpt>
      <trkpt lat="44.058355" lon="2.904538">
        <ele>327.497614</ele>
        <time>2025-02-27T12:29:10.476Z</time>
      </trkpt>
      <trkpt lat="44.058557" lon="2.903651">
        <ele>327.877441</ele>
        <time>2025-02-27T12:29:19.364Z</time>
      </trkpt>
      <trkpt lat="44.058760" lon="2.902431">
        <ele>328.573087</ele>
        <time>2025-02-27T12:29:37.141Z</time>
      </trkpt>
      <trkpt lat="44.058789" lon="2.902315">
        <ele>328.641313</ele>
        <time>2025-02-27T12:29:38.694Z</time>
      </trkpt>
      <trkpt lat="44.058851" lon="2.902203">
        <ele>328.719849</ele>
        <time>2025-02-27T12:29:40.490Z</time>
      </trkpt>
      <trkpt lat="44.058949" lon="2.902006">
        <ele>328.852945</ele>
        <time>2025-02-27T12:29:43.853Z</time>
      </trkpt>
      <trkpt lat="44.058988" lon="2.901873">
        <ele>329.005550</ele>
        <time>2025-02-27T12:29:45.968Z</time>
      </trkpt>
      <trkpt lat="44.058979" lon="2.901716">
        <ele>329.215779</ele>
        <time>2025-02-27T12:29:48.428Z</time>
      </trkpt>
      <trkpt lat="44.058906" lon="2.901543">
        <ele>329.483565</ele>
        <time>2025-02-27T12:29:51.549Z</time>
      </trkpt>
      <trkpt lat="44.058670" lon="2.900967">
        <ele>330.368595</ele>
        <time>2025-02-27T12:30:02.860Z</time>
      </trkpt>
      <trkpt lat="44.058405" lon="2.900140">
        <ele>331.577249</ele>
        <time>2025-02-27T12:30:17.584Z</time>
      </trkpt>
      <trkpt lat="44.058245" lon="2.899797">
        <ele>332.123087</ele>
        <time>2025-02-27T12:30:24.156Z</time>
      </trkpt>
      <trkpt lat="44.057809" lon="2.899175">
        <ele>332.712493</ele>
        <time>2025-02-27T12:30:38.627Z</time>
      </trkpt>
      <trkpt lat="44.057179" lon="2.898521">
        <ele>333.387695</ele>
        <time>2025-02-27T12:30:52.696Z</time>
      </trkpt>
      <trkpt lat="44.056791" lon="2.898205">
        <ele>333.761985</ele>
        <time>2025-02-27T12:30:58.900Z</time>
      </trkpt>
      <trkpt lat="44.056573" lon="2.898094">
        <ele>333.626367</ele>
        <time>2025-02-27T12:31:02.042Z</time>
      </trkpt>
      <trkpt lat="44.054499" lon="2.897220">
        <ele>332.226628</ele>
        <time>2025-02-27T12:31:29.773Z</time>
      </trkpt>
      <trkpt lat="44.054204" lon="2.897028">
        <ele>331.964823</ele>
        <time>2025-02-27T12:31:33.741Z</time>
      </trkpt>
      <trkpt lat="44.053887" lon="2.896802">
        <ele>331.678490</ele>
        <time>2025-02-27T12:31:38.572Z</time>
      </trkpt>
      <trkpt lat="44.053564" lon="2.896525">
        <ele>331.373481</ele>
        <time>2025-02-27T12:31:43.208Z</time>
      </trkpt>
      <trkpt lat="44.053304" lon="2.896244">
        <ele>331.177418</ele>
        <time>2025-02-27T12:31:47.051Z</time>
      </trkpt>
      <trkpt lat="44.053140" lon="2.896040">
        <ele>331.075782</ele>
        <time>2025-02-27T12:31:49.743Z</time>
      </trkpt>
      <trkpt lat="44.052628" lon="2.895288">
        <ele>330.731821</ele>
        <time>2025-02-27T12:31:59.783Z</time>
      </trkpt>
      <trkpt lat="44.052423" lon="2.894930">
        <ele>330.579827</ele>
        <time>2025-02-27T12:32:04.632Z</time>
      </trkpt>
      <trkpt lat="44.052116" lon="2.894070">
        <ele>330.425585</ele>
        <time>2025-02-27T12:32:14.271Z</time>
      </trkpt>
      <trkpt lat="44.052086" lon="2.893976">
        <ele>330.422993</ele>
        <time>2025-02-27T12:32:15.447Z</time>
      </trkpt>
      <trkpt lat="44.051676" lon="2.892696">
        <ele>330.387669</ele>
        <time>2025-02-27T12:32:32.427Z</time>
      </trkpt>
      <trkpt lat="44.051495" lon="2.892254">
        <ele>330.315034</ele>
        <time>2025-02-27T12:32:37.095Z</time>
      </trkpt>
      <trkpt lat="44.051291" lon="2.891835">
        <ele>329.655277</ele>
        <time>2025-02-27T12:32:41.498Z</time>
      </trkpt>
      <trkpt lat="44.050978" lon="2.891283">
        <ele>328.738675</ele>
        <time>2025-02-27T12:32:47.345Z</time>
      </trkpt>
      <trkpt lat="44.049506" lon="2.889168">
        <ele>325.129100</ele>
        <time>2025-02-27T12:33:09.585Z</time>
      </trkpt>
      <trkpt lat="44.049320" lon="2.888813">
        <ele>324.615524</ele>
        <time>2025-02-27T12:33:13.675Z</time>
      </trkpt>
      <trkpt lat="44.049187" lon="2.888479">
        <ele>324.190675</ele>
        <time>2025-02-27T12:33:18.041Z</time>
      </trkpt>
      <trkpt lat="44.049003" lon="2.888041">
        <ele>324.273241</ele>
        <time>2025-02-27T12:33:24.878Z</time>
      </trkpt>
      <trkpt lat="44.048932" lon="2.887768">
        <ele>324.320491</ele>
        <time>2025-02-27T12:33:29.015Z</time>
      </trkpt>
      <trkpt lat="44.048882" lon="2.887441">
        <ele>324.374900</ele>
        <time>2025-02-27T12:33:34.059Z</time>
      </trkpt>
      <trkpt lat="44.048881" lon="2.887208">
        <ele>324.412821</ele>
        <time>2025-02-27T12:33:37.777Z</time>
      </trkpt>
      <trkpt lat="44.048940" lon="2.886485">
        <ele>324.531244</ele>
        <time>2025-02-27T12:33:46.682Z</time>
      </trkpt>
      <trkpt lat="44.048914" lon="2.885499">
        <ele>324.044535</ele>
        <time>2025-02-27T12:33:54.566Z</time>
      </trkpt>
      <trkpt lat="44.048944" lon="2.885137">
        <ele>323.706067</ele>
        <time>2025-02-27T12:33:57.370Z</time>
      </trkpt>
      <trkpt lat="44.049004" lon="2.884849">
        <ele>323.427550</ele>
        <time>2025-02-27T12:33:59.726Z</time>
      </trkpt>
      <trkpt lat="44.049285" lon="2.884148">
        <ele>322.682017</ele>
        <time>2025-02-27T12:34:06.430Z</time>
      </trkpt>
      <trkpt lat="44.049481" lon="2.883845">
        <ele>322.303383</ele>
        <time>2025-02-27T12:34:10.174Z</time>
      </trkpt>
      <trkpt lat="44.049750" lon="2.883529">
        <ele>322.364778</ele>
        <time>2025-02-27T12:34:15.435Z</time>
      </trkpt>
      <trkpt lat="44.050125" lon="2.883163">
        <ele>322.496286</ele>
        <time>2025-02-27T12:34:23.459Z</time>
      </trkpt>
      <trkpt lat="44.050624" lon="2.882756">
        <ele>322.662347</ele>
        <time>2025-02-27T12:34:33.565Z</time>
      </trkpt>
      <trkpt lat="44.050999" lon="2.882534">
        <ele>322.779347</ele>
        <time>2025-02-27T12:34:39.845Z</time>
      </trkpt>
      <trkpt lat="44.051380" lon="2.882358">
        <ele>322.866683</ele>
        <time>2025-02-27T12:34:46.083Z</time>
      </trkpt>
      <trkpt lat="44.052264" lon="2.882090">
        <ele>323.058849</ele>
        <time>2025-02-27T12:35:00.664Z</time>
      </trkpt>
      <trkpt lat="44.052495" lon="2.881984">
        <ele>323.110513</ele>
        <time>2025-02-27T12:35:04.501Z</time>
      </trkpt>
      <trkpt lat="44.052754" lon="2.881787">
        <ele>323.167476</ele>
        <time>2025-02-27T12:35:09.024Z</time>
      </trkpt>
      <trkpt lat="44.053797" lon="2.880856">
        <ele>323.041896</ele>
        <time>2025-02-27T12:35:26.690Z</time>
      </trkpt>
      <trkpt lat="44.054210" lon="2.880312">
        <ele>322.980360</ele>
        <time>2025-02-27T12:35:34.652Z</time>
      </trkpt>
      <trkpt lat="44.054409" lon="2.879964">
        <ele>322.902603</ele>
        <time>2025-02-27T12:35:39.390Z</time>
      </trkpt>
      <trkpt lat="44.054773" lon="2.879189">
        <ele>322.740727</ele>
        <time>2025-02-27T12:35:49.436Z</time>
      </trkpt>
      <trkpt lat="44.055000" lon="2.878259">
        <ele>322.569000</ele>
        <time>2025-02-27T12:35:58.746Z</time>
      </trkpt>
      <trkpt lat="44.055175" lon="2.877346">
        <ele>322.628526</ele>
        <time>2025-02-27T12:36:07.648Z</time>
      </trkpt>
      <trkpt lat="44.055263" lon="2.876740">
        <ele>322.687191</ele>
        <time>2025-02-27T12:36:13.626Z</time>
      </trkpt>
      <trkpt lat="44.055476" lon="2.875782">
        <ele>322.782346</ele>
        <time>2025-02-27T12:36:26.372Z</time>
      </trkpt>
      <trkpt lat="44.055646" lon="2.875207">
        <ele>323.317757</ele>
        <time>2025-02-27T12:36:36.125Z</time>
      </trkpt>
      <trkpt lat="44.055937" lon="2.874367">
        <ele>324.181219</ele>
        <time>2025-02-27T12:36:50.479Z</time>
      </trkpt>
      <trkpt lat="44.056313" lon="2.873398">
        <ele>325.148257</ele>
        <time>2025-02-27T12:37:05.742Z</time>
      </trkpt>
      <trkpt lat="44.056492" lon="2.873025">
        <ele>325.336956</ele>
        <time>2025-02-27T12:37:11.269Z</time>
      </trkpt>
      <trkpt lat="44.057114" lon="2.871953">
        <ele>325.916611</ele>
        <time>2025-02-27T12:37:27.749Z</time>
      </trkpt>
      <trkpt lat="44.057553" lon="2.871204">
        <ele>326.024908</ele>
        <time>2025-02-27T12:37:39.683Z</time>
      </trkpt>
      <trkpt lat="44.057657" lon="2.871128">
        <ele>325.969980</ele>
        <time>2025-02-27T12:37:41.732Z</time>
      </trkpt>
      <trkpt lat="44.057649" lon="2.871049">
        <ele>325.943171</ele>
        <time>2025-02-27T12:37:42.438Z</time>
      </trkpt>
      <trkpt lat="44.057679" lon="2.870961">
        <ele>325.910442</ele>
        <time>2025-02-27T12:37:43.651Z</time>
      </trkpt>
      <trkpt lat="44.058485" lon="2.870764">
        <ele>325.527790</ele>
        <time>2025-02-27T12:37:54.273Z</time>
      </trkpt>
      <trkpt lat="44.058939" lon="2.870850">
        <ele>325.305249</ele>
        <time>2025-02-27T12:38:00.044Z</time>
      </trkpt>
      <trkpt lat="44.058999" lon="2.870825">
        <ele>325.189228</ele>
        <time>2025-02-27T12:38:00.740Z</time>
      </trkpt>
      <trkpt lat="44.059074" lon="2.870732">
        <ele>325.003141</ele>
        <time>2025-02-27T12:38:01.893Z</time>
      </trkpt>
      <trkpt lat="44.059101" lon="2.870548">
        <ele>324.753147</ele>
        <time>2025-02-27T12:38:03.406Z</time>
      </trkpt>
      <trkpt lat="44.059109" lon="2.870191">
        <ele>324.277682</ele>
        <time>2025-02-27T12:38:06.221Z</time>
      </trkpt>
      <trkpt lat="44.059109" lon="2.869954">
        <ele>323.962190</ele>
        <time>2025-02-27T12:38:08.077Z</time>
      </trkpt>
      <trkpt lat="44.059020" lon="2.869839">
        <ele>323.737209</ele>
        <time>2025-02-27T12:38:09.370Z</time>
      </trkpt>
      <trkpt lat="44.058938" lon="2.869820">
        <ele>323.583220</ele>
        <time>2025-02-27T12:38:10.277Z</time>
      </trkpt>
      <trkpt lat="44.058707" lon="2.869871">
        <ele>323.149959</ele>
        <time>2025-02-27T12:38:12.842Z</time>
      </trkpt>
      <trkpt lat="44.058621" lon="2.869860">
        <ele>322.989980</ele>
        <time>2025-02-27T12:38:13.798Z</time>
      </trkpt>
      <trkpt lat="44.057964" lon="2.869471">
        <ele>321.921973</ele>
        <time>2025-02-27T12:38:21.586Z</time>
      </trkpt>
      <trkpt lat="44.057879" lon="2.869390">
        <ele>321.884345</ele>
        <time>2025-02-27T12:38:22.701Z</time>
      </trkpt>
      <trkpt lat="44.057812" lon="2.869249">
        <ele>321.839977</ele>
        <time>2025-02-27T12:38:24.052Z</time>
      </trkpt>
      <trkpt lat="44.057786" lon="2.869122">
        <ele>321.805317</ele>
        <time>2025-02-27T12:38:25.117Z</time>
      </trkpt>
      <trkpt lat="44.057800" lon="2.868828">
        <ele>321.727980</ele>
        <time>2025-02-27T12:38:27.545Z</time>
      </trkpt>
      <trkpt lat="44.057866" lon="2.868521">
        <ele>321.643872</ele>
        <time>2025-02-27T12:38:30.367Z</time>
      </trkpt>
      <trkpt lat="44.057995" lon="2.868248">
        <ele>321.558114</ele>
        <time>2025-02-27T12:38:33.794Z</time>
      </trkpt>
      <trkpt lat="44.058415" lon="2.867547">
        <ele>321.411290</ele>
        <time>2025-02-27T12:38:45.732Z</time>
      </trkpt>
      <trkpt lat="44.058508" lon="2.867467">
        <ele>321.782406</ele>
        <time>2025-02-27T12:38:48.127Z</time>
      </trkpt>
      <trkpt lat="44.058697" lon="2.867395">
        <ele>322.447535</ele>
        <time>2025-02-27T12:38:52.789Z</time>
      </trkpt>
      <trkpt lat="44.058845" lon="2.867283">
        <ele>323.019371</ele>
        <time>2025-02-27T12:38:57.162Z</time>
      </trkpt>
      <trkpt lat="44.059155" lon="2.866892">
        <ele>324.439516</ele>
        <time>2025-02-27T12:39:09.487Z</time>
      </trkpt>
      <trkpt lat="44.059404" lon="2.866623">
        <ele>325.509498</ele>
        <time>2025-02-27T12:39:20.068Z</time>
      </trkpt>
      <trkpt lat="44.059546" lon="2.866513">
        <ele>326.061138</ele>
        <time>2025-02-27T12:39:25.587Z</time>
      </trkpt>
      <trkpt lat="44.060161" lon="2.866163">
        <ele>328.751896</ele>
        <time>2025-02-27T12:39:47.026Z</time>
      </trkpt>
      <trkpt lat="44.060780" lon="2.865716">
        <ele>332.285338</ele>
        <time>2025-02-27T12:40:06.542Z</time>
      </trkpt>
      <trkpt lat="44.061121" lon="2.865294">
        <ele>334.597460</ele>
        <time>2025-02-27T12:40:18.778Z</time>
      </trkpt>
      <trkpt lat="44.061599" lon="2.864415">
        <ele>340.738860</ele>
        <time>2025-02-27T12:40:59.338Z</time>
      </trkpt>
      <trkpt lat="44.061686" lon="2.864308">
        <ele>341.933359</ele>
        <time>2025-02-27T12:41:06.497Z</time>
      </trkpt>
      <trkpt lat="44.061806" lon="2.864233">
        <ele>343.286695</ele>
        <time>2025-02-27T12:41:15.140Z</time>
      </trkpt>
      <trkpt lat="44.061958" lon="2.864193">
        <ele>344.878164</ele>
        <time>2025-02-27T12:41:25.579Z</time>
      </trkpt>
      <trkpt lat="44.062990" lon="2.864069">
        <ele>355.382792</ele>
        <time>2025-02-27T12:42:29.916Z</time>
      </trkpt>
      <trkpt lat="44.063095" lon="2.864027">
        <ele>356.154351</ele>
        <time>2025-02-27T12:42:34.372Z</time>
      </trkpt>
      <trkpt lat="44.063198" lon="2.863938">
        <ele>357.010574</ele>
        <time>2025-02-27T12:42:38.823Z</time>
      </trkpt>
      <trkpt lat="44.063594" lon="2.863268">
        <ele>361.413036</ele>
        <time>2025-02-27T12:43:01.307Z</time>
      </trkpt>
      <trkpt lat="44.063730" lon="2.863113">
        <ele>362.654486</ele>
        <time>2025-02-27T12:43:07.749Z</time>
      </trkpt>
      <trkpt lat="44.063904" lon="2.862973">
        <ele>364.073913</ele>
        <time>2025-02-27T12:43:15.007Z</time>
      </trkpt>
      <trkpt lat="44.064109" lon="2.862889">
        <ele>365.583124</ele>
        <time>2025-02-27T12:43:23.748Z</time>
      </trkpt>
      <trkpt lat="44.064616" lon="2.862913">
        <ele>368.561307</ele>
        <time>2025-02-27T12:43:48.707Z</time>
      </trkpt>
      <trkpt lat="44.065217" lon="2.862995">
        <ele>371.001932</ele>
        <time>2025-02-27T12:44:16.841Z</time>
      </trkpt>
      <trkpt lat="44.065342" lon="2.862958">
        <ele>371.518428</ele>
        <time>2025-02-27T12:44:21.195Z</time>
      </trkpt>
      <trkpt lat="44.065480" lon="2.862789">
        <ele>372.261354</ele>
        <time>2025-02-27T12:44:26.161Z</time>
      </trkpt>
      <trkpt lat="44.065528" lon="2.862565">
        <ele>372.940171</ele>
        <time>2025-02-27T12:44:29.361Z</time>
      </trkpt>
      <trkpt lat="44.065517" lon="2.862378">
        <ele>373.485044</ele>
        <time>2025-02-27T12:44:31.273Z</time>
      </trkpt>
      <trkpt lat="44.065457" lon="2.862210">
        <ele>374.029865</ele>
        <time>2025-02-27T12:44:32.994Z</time>
      </trkpt>
      <trkpt lat="44.065134" lon="2.861801">
        <ele>375.327504</ele>
        <time>2025-02-27T12:44:38.317Z</time>
      </trkpt>
      <trkpt lat="44.065076" lon="2.861653">
        <ele>375.521081</ele>
        <time>2025-02-27T12:44:39.768Z</time>
      </trkpt>
      <trkpt lat="44.065061" lon="2.861483">
        <ele>375.717754</ele>
        <time>2025-02-27T12:44:41.328Z</time>
      </trkpt>
      <trkpt lat="44.065096" lon="2.861317">
        <ele>375.916404</ele>
        <time>2025-02-27T12:44:43.098Z</time>
      </trkpt>
      <trkpt lat="44.065143" lon="2.861219">
        <ele>376.051698</ele>
        <time>2025-02-27T12:44:44.429Z</time>
      </trkpt>
      <trkpt lat="44.065224" lon="2.861125">
        <ele>376.220237</ele>
        <time>2025-02-27T12:44:46.232Z</time>
      </trkpt>
      <trkpt lat="44.065973" lon="2.860675">
        <ele>377.523944</ele>
        <time>2025-02-27T12:45:07.398Z</time>
      </trkpt>
      <trkpt lat="44.066128" lon="2.860556">
        <ele>377.806830</ele>
        <time>2025-02-27T12:45:12.422Z</time>
      </trkpt>
      <trkpt lat="44.066252" lon="2.860421">
        <ele>378.171419</ele>
        <time>2025-02-27T12:45:17.249Z</time>
      </trkpt>
      <trkpt lat="44.066367" lon="2.860183">
        <ele>378.730193</ele>
        <time>2025-02-27T12:45:23.495Z</time>
      </trkpt>
      <trkpt lat="44.066400" lon="2.860000">
        <ele>379.097778</ele>
        <time>2025-02-27T12:45:27.479Z</time>
      </trkpt>
      <trkpt lat="44.066326" lon="2.859305">
        <ele>380.466594</ele>
        <time>2025-02-27T12:45:40.305Z</time>
      </trkpt>
      <trkpt lat="44.066387" lon="2.858300">
        <ele>382.431554</ele>
        <time>2025-02-27T12:45:55.973Z</time>
      </trkpt>
      <trkpt lat="44.066366" lon="2.857848">
        <ele>383.049323</ele>
        <time>2025-02-27T12:46:04.853Z</time>
      </trkpt>
      <trkpt lat="44.066244" lon="2.857029">
        <ele>383.881504</ele>
        <time>2025-02-27T12:46:22.496Z</time>
      </trkpt>
      <trkpt lat="44.066244" lon="2.856833">
        <ele>384.076511</ele>
        <time>2025-02-27T12:46:25.522Z</time>
      </trkpt>
      <trkpt lat="44.066389" lon="2.856109">
        <ele>384.824304</ele>
        <time>2025-02-27T12:46:33.808Z</time>
      </trkpt>
      <trkpt lat="44.066389" lon="2.855229">
        <ele>384.971596</ele>
        <time>2025-02-27T12:46:41.746Z</time>
      </trkpt>
      <trkpt lat="44.066430" lon="2.854896">
        <ele>384.746568</ele>
        <time>2025-02-27T12:46:44.865Z</time>
      </trkpt>
      <trkpt lat="44.066496" lon="2.854627">
        <ele>384.557242</ele>
        <time>2025-02-27T12:46:47.659Z</time>
      </trkpt>
      <trkpt lat="44.066699" lon="2.854012">
        <ele>384.106466</ele>
        <time>2025-02-27T12:46:53.892Z</time>
      </trkpt>
      <trkpt lat="44.066921" lon="2.853229">
        <ele>383.478845</ele>
        <time>2025-02-27T12:47:01.278Z</time>
      </trkpt>
      <trkpt lat="44.067051" lon="2.852552">
        <ele>382.393540</ele>
        <time>2025-02-27T12:47:06.609Z</time>
      </trkpt>
      <trkpt lat="44.067134" lon="2.852336">
        <ele>382.014175</ele>
        <time>2025-02-27T12:47:08.355Z</time>
      </trkpt>
      <trkpt lat="44.067661" lon="2.851560">
        <ele>380.360476</ele>
        <time>2025-02-27T12:47:15.933Z</time>
      </trkpt>
      <trkpt lat="44.067799" lon="2.851412">
        <ele>379.984953</ele>
        <time>2025-02-27T12:47:17.849Z</time>
      </trkpt>
      <trkpt lat="44.067801" lon="2.851411">
        <ele>379.980372</ele>
        <time>2025-02-27T12:47:17.875Z</time>
      </trkpt>
      <trkpt lat="44.068022" lon="2.851235">
        <ele>380.342020</ele>
        <time>2025-02-27T12:47:21.228Z</time>
      </trkpt>
      <trkpt lat="44.068456" lon="2.850963">
        <ele>382.560582</ele>
        <time>2025-02-27T12:47:33.019Z</time>
      </trkpt>
      <trkpt lat="44.069069" lon="2.850465">
        <ele>385.868984</ele>
        <time>2025-02-27T12:48:04.293Z</time>
      </trkpt>
      <trkpt lat="44.069214" lon="2.850315">
        <ele>386.711090</ele>
        <time>2025-02-27T12:48:13.076Z</time>
      </trkpt>
      <trkpt lat="44.069252" lon="2.850233">
        <ele>387.037874</ele>
        <time>2025-02-27T12:48:16.411Z</time>
      </trkpt>
      <trkpt lat="44.069276" lon="2.850066">
        <ele>387.608235</ele>
        <time>2025-02-27T12:48:21.973Z</time>
      </trkpt>
      <trkpt lat="44.069255" lon="2.849895">
        <ele>388.154234</ele>
        <time>2025-02-27T12:48:27.383Z</time>
      </trkpt>
      <trkpt lat="44.069191" lon="2.849717">
        <ele>388.550020</ele>
        <time>2025-02-27T12:48:33.106Z</time>
      </trkpt>
      <trkpt lat="44.069098" lon="2.849615">
        <ele>388.877708</ele>
        <time>2025-02-27T12:48:37.350Z</time>
      </trkpt>
      <trkpt lat="44.068932" lon="2.849555">
        <ele>389.352350</ele>
        <time>2025-02-27T12:48:42.741Z</time>
      </trkpt>
      <trkpt lat="44.068688" lon="2.849518">
        <ele>390.031614</ele>
        <time>2025-02-27T12:48:49.066Z</time>
      </trkpt>
      <trkpt lat="44.068489" lon="2.849524">
        <ele>390.582473</ele>
        <time>2025-02-27T12:48:53.090Z</time>
      </trkpt>
      <trkpt lat="44.068183" lon="2.849619">
        <ele>391.450138</ele>
        <time>2025-02-27T12:48:57.271Z</time>
      </trkpt>
      <trkpt lat="44.067781" lon="2.849561">
        <ele>392.568631</ele>
        <time>2025-02-27T12:49:02.740Z</time>
      </trkpt>
      <trkpt lat="44.067278" lon="2.849324">
        <ele>395.761935</ele>
        <time>2025-02-27T12:49:16.539Z</time>
      </trkpt>
      <trkpt lat="44.067124" lon="2.849199">
        <ele>397.143516</ele>
        <time>2025-02-27T12:49:23.491Z</time>
      </trkpt>
      <trkpt lat="44.067051" lon="2.849085">
        <ele>397.993806</ele>
        <time>2025-02-27T12:49:28.080Z</time>
      </trkpt>
      <trkpt lat="44.066983" lon="2.848884">
        <ele>399.230888</ele>
        <time>2025-02-27T12:49:35.318Z</time>
      </trkpt>
      <trkpt lat="44.066934" lon="2.848334">
        <ele>402.316909</ele>
        <time>2025-02-27T12:49:55.633Z</time>
      </trkpt>
      <trkpt lat="44.066896" lon="2.848171">
        <ele>403.271122</ele>
        <time>2025-02-27T12:50:02.500Z</time>
      </trkpt>
      <trkpt lat="44.066804" lon="2.847993">
        <ele>404.492071</ele>
        <time>2025-02-27T12:50:11.893Z</time>
      </trkpt>
      <trkpt lat="44.066659" lon="2.847861">
        <ele>405.834807</ele>
        <time>2025-02-27T12:50:23.074Z</time>
      </trkpt>
      <trkpt lat="44.066472" lon="2.847743">
        <ele>407.506520</ele>
        <time>2025-02-27T12:50:36.504Z</time>
      </trkpt>
      <trkpt lat="44.066161" lon="2.847644">
        <ele>410.468866</ele>
        <time>2025-02-27T12:50:57.041Z</time>
      </trkpt>
      <trkpt lat="44.065980" lon="2.847528">
        <ele>412.319168</ele>
        <time>2025-02-27T12:51:08.698Z</time>
      </trkpt>
      <trkpt lat="44.065890" lon="2.847350">
        <ele>413.771334</ele>
        <time>2025-02-27T12:51:17.065Z</time>
      </trkpt>
      <trkpt lat="44.065658" lon="2.846587">
        <ele>419.299084</ele>
        <time>2025-02-27T12:51:46.060Z</time>
      </trkpt>
      <trkpt lat="44.065573" lon="2.846480">
        <ele>420.363316</ele>
        <time>2025-02-27T12:51:51.790Z</time>
      </trkpt>
      <trkpt lat="44.064508" lon="2.845883">
        <ele>428.256716</ele>
        <time>2025-02-27T12:52:41.065Z</time>
      </trkpt>
      <trkpt lat="44.064427" lon="2.845779">
        <ele>428.892254</ele>
        <time>2025-02-27T12:52:44.352Z</time>
      </trkpt>
      <trkpt lat="44.064341" lon="2.845593">
        <ele>429.808769</ele>
        <time>2025-02-27T12:52:48.935Z</time>
      </trkpt>
      <trkpt lat="44.064251" lon="2.845286">
        <ele>431.182706</ele>
        <time>2025-02-27T12:52:56.150Z</time>
      </trkpt>
      <trkpt lat="44.064174" lon="2.845130">
        <ele>431.966953</ele>
        <time>2025-02-27T12:53:00.452Z</time>
      </trkpt>
      <trkpt lat="44.063870" lon="2.844848">
        <ele>434.073813</ele>
        <time>2025-02-27T12:53:12.759Z</time>
      </trkpt>
      <trkpt lat="44.063821" lon="2.844699">
        <ele>435.014018</ele>
        <time>2025-02-27T12:53:16.958Z</time>
      </trkpt>
      <trkpt lat="44.063827" lon="2.844414">
        <ele>436.663300</ele>
        <time>2025-02-27T12:53:24.413Z</time>
      </trkpt>
      <trkpt lat="44.064425" lon="2.842904">
        <ele>446.636533</ele>
        <time>2025-02-27T12:54:25.287Z</time>
      </trkpt>
      <trkpt lat="44.064499" lon="2.842630">
        <ele>448.329713</ele>
        <time>2025-02-27T12:54:38.254Z</time>
      </trkpt>
      <trkpt lat="44.064604" lon="2.842357">
        <ele>449.683416</ele>
        <time>2025-02-27T12:54:50.889Z</time>
      </trkpt>
      <trkpt lat="44.064732" lon="2.842172">
        <ele>450.749344</ele>
        <time>2025-02-27T12:55:00.438Z</time>
      </trkpt>
      <trkpt lat="44.064878" lon="2.842096">
        <ele>451.649722</ele>
        <time>2025-02-27T12:55:08.241Z</time>
      </trkpt>
      <trkpt lat="44.065043" lon="2.842078">
        <ele>452.605707</ele>
        <time>2025-02-27T12:55:16.243Z</time>
      </trkpt>
      <trkpt lat="44.065183" lon="2.841996">
        <ele>453.483065</ele>
        <time>2025-02-27T12:55:23.284Z</time>
      </trkpt>
      <trkpt lat="44.065309" lon="2.841851">
        <ele>454.427449</ele>
        <time>2025-02-27T12:55:30.251Z</time>
      </trkpt>
      <trkpt lat="44.065469" lon="2.841305">
        <ele>456.874784</ele>
        <time>2025-02-27T12:55:44.072Z</time>
      </trkpt>
      <trkpt lat="44.065597" lon="2.840893">
        <ele>458.737745</ele>
        <time>2025-02-27T12:55:51.160Z</time>
      </trkpt>
      <trkpt lat="44.065643" lon="2.840627">
        <ele>458.297992</ele>
        <time>2025-02-27T12:55:54.103Z</time>
      </trkpt>
      <trkpt lat="44.065696" lon="2.840244">
        <ele>457.120056</ele>
        <time>2025-02-27T12:55:57.152Z</time>
      </trkpt>
      <trkpt lat="44.065718" lon="2.839528">
        <ele>454.955721</ele>
        <time>2025-02-27T12:56:02.422Z</time>
      </trkpt>
      <trkpt lat="44.065758" lon="2.839366">
        <ele>454.438393</ele>
        <time>2025-02-27T12:56:03.579Z</time>
      </trkpt>
      <trkpt lat="44.066040" lon="2.838811">
        <ele>452.385537</ele>
        <time>2025-02-27T12:56:07.936Z</time>
      </trkpt>
      <trkpt lat="44.066173" lon="2.838488">
        <ele>451.177793</ele>
        <time>2025-02-27T12:56:10.272Z</time>
      </trkpt>
      <trkpt lat="44.066418" lon="2.837449">
        <ele>445.913480</ele>
        <time>2025-02-27T12:56:17.166Z</time>
      </trkpt>
      <trkpt lat="44.066509" lon="2.837147">
        <ele>444.336958</ele>
        <time>2025-02-27T12:56:19.287Z</time>
      </trkpt>
      <trkpt lat="44.066645" lon="2.836881">
        <ele>442.765317</ele>
        <time>2025-02-27T12:56:21.442Z</time>
      </trkpt>
      <trkpt lat="44.066760" lon="2.836751">
        <ele>441.772688</ele>
        <time>2025-02-27T12:56:22.850Z</time>
      </trkpt>
      <trkpt lat="44.066916" lon="2.836652">
        <ele>440.623973</ele>
        <time>2025-02-27T12:56:24.504Z</time>
      </trkpt>
      <trkpt lat="44.067650" lon="2.836558">
        <ele>434.313913</ele>
        <time>2025-02-27T12:56:31.638Z</time>
      </trkpt>
      <trkpt lat="44.067833" lon="2.836476">
        <ele>432.543890</ele>
        <time>2025-02-27T12:56:33.392Z</time>
      </trkpt>
      <trkpt lat="44.067961" lon="2.836360">
        <ele>431.137596</ele>
        <time>2025-02-27T12:56:34.756Z</time>
      </trkpt>
      <trkpt lat="44.068069" lon="2.836137">
        <ele>429.358571</ele>
        <time>2025-02-27T12:56:36.428Z</time>
      </trkpt>
      <trkpt lat="44.068098" lon="2.835786">
        <ele>427.021320</ele>
        <time>2025-02-27T12:56:38.587Z</time>
      </trkpt>
      <trkpt lat="44.067960" lon="2.834545">
        <ele>417.743256</ele>
        <time>2025-02-27T12:56:46.071Z</time>
      </trkpt>
      <trkpt lat="44.067753" lon="2.833659">
        <ele>410.112548</ele>
        <time>2025-02-27T12:56:51.700Z</time>
      </trkpt>
      <trkpt lat="44.067724" lon="2.833457">
        <ele>408.425377</ele>
        <time>2025-02-27T12:56:52.973Z</time>
      </trkpt>
      <trkpt lat="44.067731" lon="2.833301">
        <ele>407.145179</ele>
        <time>2025-02-27T12:56:53.953Z</time>
      </trkpt>
      <trkpt lat="44.067778" lon="2.833171">
        <ele>405.953230</ele>
        <time>2025-02-27T12:56:54.872Z</time>
      </trkpt>
      <trkpt lat="44.067903" lon="2.833029">
        <ele>404.113947</ele>
        <time>2025-02-27T12:56:56.307Z</time>
      </trkpt>
      <trkpt lat="44.068394" lon="2.832732">
        <ele>399.326956</ele>
        <time>2025-02-27T12:57:01.196Z</time>
      </trkpt>
      <trkpt lat="44.069088" lon="2.832050">
        <ele>392.621793</ele>
        <time>2025-02-27T12:57:08.920Z</time>
      </trkpt>
      <trkpt lat="44.069254" lon="2.831840">
        <ele>390.851300</ele>
        <time>2025-02-27T12:57:10.866Z</time>
      </trkpt>
      <trkpt lat="44.069360" lon="2.831611">
        <ele>389.306544</ele>
        <time>2025-02-27T12:57:12.543Z</time>
      </trkpt>
      <trkpt lat="44.069650" lon="2.830567">
        <ele>381.946379</ele>
        <time>2025-02-27T12:57:19.413Z</time>
      </trkpt>
      <trkpt lat="44.069690" lon="2.830312">
        <ele>380.174239</ele>
        <time>2025-02-27T12:57:21.008Z</time>
      </trkpt>
      <trkpt lat="44.069695" lon="2.830107">
        <ele>378.781561</ele>
        <time>2025-02-27T12:57:22.270Z</time>
      </trkpt>
      <trkpt lat="44.069680" lon="2.828527">
        <ele>368.139995</ele>
        <time>2025-02-27T12:57:32.264Z</time>
      </trkpt>
      <trkpt lat="44.069665" lon="2.828047">
        <ele>364.971160</ele>
        <time>2025-02-27T12:57:35.390Z</time>
      </trkpt>
      <trkpt lat="44.069563" lon="2.827285">
        <ele>359.858905</ele>
        <time>2025-02-27T12:57:40.294Z</time>
      </trkpt>
      <trkpt lat="44.069364" lon="2.826684">
        <ele>355.494322</ele>
        <time>2025-02-27T12:57:44.366Z</time>
      </trkpt>
      <trkpt lat="44.068732" lon="2.825601">
        <ele>344.927335</ele>
        <time>2025-02-27T12:57:52.780Z</time>
      </trkpt>
      <trkpt lat="44.068603" lon="2.825269">
        <ele>342.028203</ele>
        <time>2025-02-27T12:57:55.074Z</time>
      </trkpt>
      <trkpt lat="44.068539" lon="2.825010">
        <ele>339.924428</ele>
        <time>2025-02-27T12:57:56.763Z</time>
      </trkpt>
      <trkpt lat="44.068509" lon="2.824767">
        <ele>338.030560</ele>
        <time>2025-02-27T12:57:58.306Z</time>
      </trkpt>
      <trkpt lat="44.068565" lon="2.824000">
        <ele>333.953743</ele>
        <time>2025-02-27T12:58:03.307Z</time>
      </trkpt>
      <trkpt lat="44.068670" lon="2.823367">
        <ele>331.798290</ele>
        <time>2025-02-27T12:58:07.810Z</time>
      </trkpt>
      <trkpt lat="44.068686" lon="2.822584">
        <ele>329.199352</ele>
        <time>2025-02-27T12:58:13.456Z</time>
      </trkpt>
      <trkpt lat="44.068634" lon="2.822194">
        <ele>327.883293</ele>
        <time>2025-02-27T12:58:16.301Z</time>
      </trkpt>
      <trkpt lat="44.068627" lon="2.821821">
        <ele>326.905258</ele>
        <time>2025-02-27T12:58:18.924Z</time>
      </trkpt>
      <trkpt lat="44.068707" lon="2.821189">
        <ele>326.140276</ele>
        <time>2025-02-27T12:58:23.491Z</time>
      </trkpt>
      <trkpt lat="44.068587" lon="2.820688">
        <ele>325.510746</ele>
        <time>2025-02-27T12:58:27.511Z</time>
      </trkpt>
      <trkpt lat="44.068531" lon="2.820284">
        <ele>325.020274</ele>
        <time>2025-02-27T12:58:31.004Z</time>
      </trkpt>
      <trkpt lat="44.068450" lon="2.819371">
        <ele>324.106287</ele>
        <time>2025-02-27T12:58:41.301Z</time>
      </trkpt>
      <trkpt lat="44.068337" lon="2.818845">
        <ele>324.285986</ele>
        <time>2025-02-27T12:58:49.232Z</time>
      </trkpt>
      <trkpt lat="44.068325" lon="2.818587">
        <ele>324.370610</ele>
        <time>2025-02-27T12:58:53.356Z</time>
      </trkpt>
      <trkpt lat="44.068350" lon="2.818378">
        <ele>324.439961</ele>
        <time>2025-02-27T12:58:56.667Z</time>
      </trkpt>
      <trkpt lat="44.068410" lon="2.818195">
        <ele>324.505801</ele>
        <time>2025-02-27T12:58:59.673Z</time>
      </trkpt>
      <trkpt lat="44.068515" lon="2.818008">
        <ele>324.583482</ele>
        <time>2025-02-27T12:59:03.022Z</time>
      </trkpt>
      <trkpt lat="44.068772" lon="2.817681">
        <ele>324.742109</ele>
        <time>2025-02-27T12:59:08.692Z</time>
      </trkpt>
      <trkpt lat="44.068863" lon="2.817517">
        <ele>324.809933</ele>
        <time>2025-02-27T12:59:10.629Z</time>
      </trkpt>
      <trkpt lat="44.068911" lon="2.817253">
        <ele>324.844921</ele>
        <time>2025-02-27T12:59:12.979Z</time>
      </trkpt>
      <trkpt lat="44.068878" lon="2.817096">
        <ele>324.671174</ele>
        <time>2025-02-27T12:59:14.334Z</time>
      </trkpt>
      <trkpt lat="44.068713" lon="2.816718">
        <ele>324.201396</ele>
        <time>2025-02-27T12:59:17.888Z</time>
      </trkpt>
      <trkpt lat="44.068634" lon="2.816477">
        <ele>323.920036</ele>
        <time>2025-02-27T12:59:19.979Z</time>
      </trkpt>
      <trkpt lat="44.068584" lon="2.816238">
        <ele>323.655640</ele>
        <time>2025-02-27T12:59:21.939Z</time>
      </trkpt>
      <trkpt lat="44.068554" lon="2.815908">
        <ele>323.302334</ele>
        <time>2025-02-27T12:59:24.553Z</time>
      </trkpt>
      <trkpt lat="44.068559" lon="2.815601">
        <ele>322.976169</ele>
        <time>2025-02-27T12:59:26.956Z</time>
      </trkpt>
      <trkpt lat="44.068638" lon="2.815360">
        <ele>322.694808</ele>
        <time>2025-02-27T12:59:29.082Z</time>
      </trkpt>
      <trkpt lat="44.068755" lon="2.815160">
        <ele>322.420872</ele>
        <time>2025-02-27T12:59:31.206Z</time>
      </trkpt>
      <trkpt lat="44.069038" lon="2.814806">
        <ele>322.146683</ele>
        <time>2025-02-27T12:59:35.927Z</time>
      </trkpt>
      <trkpt lat="44.069291" lon="2.814159">
        <ele>321.975519</ele>
        <time>2025-02-27T12:59:43.647Z</time>
      </trkpt>
      <trkpt lat="44.069871" lon="2.813309">
        <ele>321.703132</ele>
        <time>2025-02-27T12:59:55.435Z</time>
      </trkpt>
      <trkpt lat="44.070116" lon="2.812967">
        <ele>321.815175</ele>
        <time>2025-02-27T13:00:00.498Z</time>
      </trkpt>
      <trkpt lat="44.070334" lon="2.812440">
        <ele>322.251968</ele>
        <time>2025-02-27T13:00:08.068Z</time>
      </trkpt>
      <trkpt lat="44.070423" lon="2.812319">
        <ele>322.376348</ele>
        <time>2025-02-27T13:00:10.501Z</time>
      </trkpt>
      <trkpt lat="44.070529" lon="2.812263">
        <ele>322.489696</ele>
        <time>2025-02-27T13:00:12.792Z</time>
      </trkpt>
      <trkpt lat="44.070636" lon="2.812257">
        <ele>322.596753</ele>
        <time>2025-02-27T13:00:14.955Z</time>
      </trkpt>
      <trkpt lat="44.071047" lon="2.812389">
        <ele>323.018436</ele>
        <time>2025-02-27T13:00:23.526Z</time>
      </trkpt>
      <trkpt lat="44.071183" lon="2.812389">
        <ele>323.154398</ele>
        <time>2025-02-27T13:00:26.358Z</time>
      </trkpt>
      <trkpt lat="44.071418" lon="2.812306">
        <ele>323.396779</ele>
        <time>2025-02-27T13:00:31.641Z</time>
      </trkpt>
      <trkpt lat="44.071525" lon="2.812166">
        <ele>323.569036</ele>
        <time>2025-02-27T13:00:34.881Z</time>
      </trkpt>
      <trkpt lat="44.072125" lon="2.811171">
        <ele>324.740120</ele>
        <time>2025-02-27T13:00:53.203Z</time>
      </trkpt>
      <trkpt lat="44.072531" lon="2.810742">
        <ele>325.379732</ele>
        <time>2025-02-27T13:01:02.548Z</time>
      </trkpt>
      <trkpt lat="44.072691" lon="2.810650">
        <ele>325.596953</ele>
        <time>2025-02-27T13:01:06.141Z</time>
      </trkpt>
      <trkpt lat="44.072836" lon="2.810622">
        <ele>325.705317</ele>
        <time>2025-02-27T13:01:09.202Z</time>
      </trkpt>
      <trkpt lat="44.073133" lon="2.810654">
        <ele>325.726604</ele>
        <time>2025-02-27T13:01:15.615Z</time>
      </trkpt>
      <trkpt lat="44.073194" lon="2.810622">
        <ele>325.731262</ele>
        <time>2025-02-27T13:01:17.106Z</time>
      </trkpt>
      <trkpt lat="44.073237" lon="2.810567">
        <ele>325.735435</ele>
        <time>2025-02-27T13:01:18.121Z</time>
      </trkpt>
      <trkpt lat="44.073374" lon="2.810265">
        <ele>325.753772</ele>
        <time>2025-02-27T13:01:22.943Z</time>
      </trkpt>
      <trkpt lat="44.073397" lon="2.810157">
        <ele>325.759555</ele>
        <time>2025-02-27T13:01:24.233Z</time>
      </trkpt>
      <trkpt lat="44.073386" lon="2.810072">
        <ele>325.763989</ele>
        <time>2025-02-27T13:01:25.312Z</time>
      </trkpt>
      <trkpt lat="44.073128" lon="2.809659">
        <ele>325.792086</ele>
        <time>2025-02-27T13:01:31.531Z</time>
      </trkpt>
      <trkpt lat="44.072845" lon="2.809443">
        <ele>325.815150</ele>
        <time>2025-02-27T13:01:35.709Z</time>
      </trkpt>
      <trkpt lat="44.072731" lon="2.809389">
        <ele>325.823755</ele>
        <time>2025-02-27T13:01:37.157Z</time>
      </trkpt>
      <trkpt lat="44.072650" lon="2.809387">
        <ele>325.822093</ele>
        <time>2025-02-27T13:01:38.077Z</time>
      </trkpt>
      <trkpt lat="44.072508" lon="2.809464">
        <ele>325.504967</ele>
        <time>2025-02-27T13:01:39.704Z</time>
      </trkpt>
      <trkpt lat="44.072289" lon="2.809667">
        <ele>324.957429</ele>
        <time>2025-02-27T13:01:42.406Z</time>
      </trkpt>
      <trkpt lat="44.072138" lon="2.809865">
        <ele>324.525728</ele>
        <time>2025-02-27T13:01:44.454Z</time>
      </trkpt>
      <trkpt lat="44.072023" lon="2.810089">
        <ele>324.114115</ele>
        <time>2025-02-27T13:01:46.390Z</time>
      </trkpt>
      <trkpt lat="44.071467" lon="2.810639">
        <ele>322.694669</ele>
        <time>2025-02-27T13:01:53.293Z</time>
      </trkpt>
      <trkpt lat="44.071217" lon="2.810960">
        <ele>322.273987</ele>
        <time>2025-02-27T13:01:57.642Z</time>
      </trkpt>
      <trkpt lat="44.071127" lon="2.810999">
        <ele>322.643505</ele>
        <time>2025-02-27T13:01:59.207Z</time>
      </trkpt>
      <trkpt lat="44.071025" lon="2.810989">
        <ele>323.044352</ele>
        <time>2025-02-27T13:02:01.222Z</time>
      </trkpt>
      <trkpt lat="44.070938" lon="2.810901">
        <ele>323.465956</ele>
        <time>2025-02-27T13:02:03.618Z</time>
      </trkpt>
      <trkpt lat="44.070884" lon="2.810833">
        <ele>323.751428</ele>
        <time>2025-02-27T13:02:05.317Z</time>
      </trkpt>
      <trkpt lat="44.070372" lon="2.810172">
        <ele>326.489063</ele>
        <time>2025-02-27T13:02:28.967Z</time>
      </trkpt>
      <trkpt lat="44.069716" lon="2.809324">
        <ele>329.121081</ele>
        <time>2025-02-27T13:03:06.774Z</time>
      </trkpt>
      <trkpt lat="44.069714" lon="2.809233">
        <ele>329.116224</ele>
        <time>2025-02-27T13:03:09.164Z</time>
      </trkpt>
      <trkpt lat="44.069755" lon="2.809137">
        <ele>329.110266</ele>
        <time>2025-02-27T13:03:11.239Z</time>
      </trkpt>
      <trkpt lat="44.069889" lon="2.808984">
        <ele>329.097397</ele>
        <time>2025-02-27T13:03:15.593Z</time>
      </trkpt>
      <trkpt lat="44.069908" lon="2.808610">
        <ele>329.077395</ele>
        <time>2025-02-27T13:03:20.641Z</time>
      </trkpt>
      <trkpt lat="44.070113" lon="2.808167">
        <ele>329.049285</ele>
        <time>2025-02-27T13:03:24.954Z</time>
      </trkpt>
      <trkpt lat="44.070165" lon="2.807940">
        <ele>329.036575</ele>
        <time>2025-02-27T13:03:26.701Z</time>
      </trkpt>
      <trkpt lat="44.070233" lon="2.807002">
        <ele>328.080260</ele>
        <time>2025-02-27T13:03:33.113Z</time>
      </trkpt>
      <trkpt lat="44.070215" lon="2.806745">
        <ele>327.356023</ele>
        <time>2025-02-27T13:03:34.833Z</time>
      </trkpt>
      <trkpt lat="44.069944" lon="2.805887">
        <ele>324.727279</ele>
        <time>2025-02-27T13:03:41.307Z</time>
      </trkpt>
      <trkpt lat="44.069871" lon="2.805778">
        <ele>324.309342</ele>
        <time>2025-02-27T13:03:42.366Z</time>
      </trkpt>
      <trkpt lat="44.069224" lon="2.805138">
        <ele>321.888159</ele>
        <time>2025-02-27T13:03:50.571Z</time>
      </trkpt>
      <trkpt lat="44.069129" lon="2.805030">
        <ele>321.829615</ele>
        <time>2025-02-27T13:03:51.867Z</time>
      </trkpt>
      <trkpt lat="44.068898" lon="2.804965">
        <ele>321.717135</ele>
        <time>2025-02-27T13:03:54.333Z</time>
      </trkpt>
      <trkpt lat="44.068425" lon="2.804943">
        <ele>321.491260</ele>
        <time>2025-02-27T13:03:59.692Z</time>
      </trkpt>
      <trkpt lat="44.068206" lon="2.804967">
        <ele>321.386414</ele>
        <time>2025-02-27T13:04:02.693Z</time>
      </trkpt>
      <trkpt lat="44.067924" lon="2.805087">
        <ele>321.245673</ele>
        <time>2025-02-27T13:04:07.902Z</time>
      </trkpt>
      <trkpt lat="44.067452" lon="2.805197">
        <ele>321.958154</ele>
        <time>2025-02-27T13:04:21.523Z</time>
      </trkpt>
      <trkpt lat="44.067273" lon="2.805273">
        <ele>322.655624</ele>
        <time>2025-02-27T13:04:27.783Z</time>
      </trkpt>
      <trkpt lat="44.067105" lon="2.805388">
        <ele>323.353379</ele>
        <time>2025-02-27T13:04:33.935Z</time>
      </trkpt>
      <trkpt lat="44.066882" lon="2.805691">
        <ele>324.514885</ele>
        <time>2025-02-27T13:04:43.702Z</time>
      </trkpt>
      <trkpt lat="44.066813" lon="2.805745">
        <ele>324.809911</ele>
        <time>2025-02-27T13:04:46.037Z</time>
      </trkpt>
      <trkpt lat="44.066726" lon="2.805760">
        <ele>325.136630</ele>
        <time>2025-02-27T13:04:48.638Z</time>
      </trkpt>
      <trkpt lat="44.066527" lon="2.805731">
        <ele>325.882339</ele>
        <time>2025-02-27T13:04:54.134Z</time>
      </trkpt>
      <trkpt lat="44.066436" lon="2.805798">
        <ele>326.266023</ele>
        <time>2025-02-27T13:04:56.908Z</time>
      </trkpt>
      <trkpt lat="44.066212" lon="2.806047">
        <ele>327.334461</ele>
        <time>2025-02-27T13:05:04.560Z</time>
      </trkpt>
      <trkpt lat="44.066080" lon="2.806147">
        <ele>328.039749</ele>
        <time>2025-02-27T13:05:08.873Z</time>
      </trkpt>
      <trkpt lat="44.065654" lon="2.806268">
        <ele>333.164680</ele>
        <time>2025-02-27T13:05:24.256Z</time>
      </trkpt>
      <trkpt lat="44.065392" lon="2.806281">
        <ele>336.254931</ele>
        <time>2025-02-27T13:05:36.139Z</time>
      </trkpt>
      <trkpt lat="44.065095" lon="2.806372">
        <ele>339.839619</ele>
        <time>2025-02-27T13:05:53.912Z</time>
      </trkpt>
      <trkpt lat="44.064956" lon="2.806466">
        <ele>341.661260</ele>
        <time>2025-02-27T13:06:04.882Z</time>
      </trkpt>
      <trkpt lat="44.064749" lon="2.806685">
        <ele>344.726250</ele>
        <time>2025-02-27T13:06:26.004Z</time>
      </trkpt>
      <trkpt lat="44.064644" lon="2.806850">
        <ele>346.593044</ele>
        <time>2025-02-27T13:06:40.309Z</time>
      </trkpt>
      <trkpt lat="44.064560" lon="2.807032">
        <ele>348.425161</ele>
        <time>2025-02-27T13:06:55.550Z</time>
      </trkpt>
      <trkpt lat="44.064372" lon="2.807592">
        <ele>353.982183</ele>
        <time>2025-02-27T13:07:40.270Z</time>
      </trkpt>
      <trkpt lat="44.064331" lon="2.807676">
        <ele>354.902018</ele>
        <time>2025-02-27T13:07:47.280Z</time>
      </trkpt>
      <trkpt lat="44.064268" lon="2.807711">
        <ele>355.757149</ele>
        <time>2025-02-27T13:07:53.621Z</time>
      </trkpt>
      <trkpt lat="44.063887" lon="2.807627">
        <ele>360.619995</ele>
        <time>2025-02-27T13:08:25.743Z</time>
      </trkpt>
      <trkpt lat="44.063831" lon="2.807567">
        <ele>361.510923</ele>
        <time>2025-02-27T13:08:30.806Z</time>
      </trkpt>
      <trkpt lat="44.063775" lon="2.807398">
        <ele>363.196715</ele>
        <time>2025-02-27T13:08:39.226Z</time>
      </trkpt>
      <trkpt lat="44.063523" lon="2.806957">
        <ele>368.300611</ele>
        <time>2025-02-27T13:08:57.350Z</time>
      </trkpt>
      <trkpt lat="44.063488" lon="2.806844">
        <ele>369.415253</ele>
        <time>2025-02-27T13:08:59.877Z</time>
      </trkpt>
      <trkpt lat="44.063495" lon="2.806721">
        <ele>370.532925</ele>
        <time>2025-02-27T13:09:02.261Z</time>
      </trkpt>
      <trkpt lat="44.063602" lon="2.806465">
        <ele>371.930321</ele>
        <time>2025-02-27T13:09:07.031Z</time>
      </trkpt>
      <trkpt lat="44.063623" lon="2.806348">
        <ele>372.094671</ele>
        <time>2025-02-27T13:09:08.686Z</time>
      </trkpt>
      <trkpt lat="44.063610" lon="2.806222">
        <ele>372.268148</ele>
        <time>2025-02-27T13:09:10.204Z</time>
      </trkpt>
      <trkpt lat="44.063521" lon="2.806043">
        <ele>372.564800</ele>
        <time>2025-02-27T13:09:12.426Z</time>
      </trkpt>
      <trkpt lat="44.063128" lon="2.805712">
        <ele>373.436035</ele>
        <time>2025-02-27T13:09:18.170Z</time>
      </trkpt>
      <trkpt lat="44.062941" lon="2.805627">
        <ele>373.809136</ele>
        <time>2025-02-27T13:09:21.561Z</time>
      </trkpt>
      <trkpt lat="44.062763" lon="2.805313">
        <ele>374.354202</ele>
        <time>2025-02-27T13:09:27.416Z</time>
      </trkpt>
      <trkpt lat="44.062612" lon="2.805183">
        <ele>374.690959</ele>
        <time>2025-02-27T13:09:31.913Z</time>
      </trkpt>
      <trkpt lat="44.062489" lon="2.805117">
        <ele>374.940980</ele>
        <time>2025-02-27T13:09:36.042Z</time>
      </trkpt>
      <trkpt lat="44.062214" lon="2.805064">
        <ele>375.319958</ele>
        <time>2025-02-27T13:09:46.149Z</time>
      </trkpt>
      <trkpt lat="44.062110" lon="2.804917">
        <ele>375.483754</ele>
        <time>2025-02-27T13:09:51.564Z</time>
      </trkpt>
      <trkpt lat="44.062020" lon="2.804613">
        <ele>375.744817</ele>
        <time>2025-02-27T13:09:58.966Z</time>
      </trkpt>
      <trkpt lat="44.061936" lon="2.804534">
        <ele>375.856843</ele>
        <time>2025-02-27T13:10:01.115Z</time>
      </trkpt>
      <trkpt lat="44.061724" lon="2.804438">
        <ele>376.103185</ele>
        <time>2025-02-27T13:10:05.538Z</time>
      </trkpt>
      <trkpt lat="44.061595" lon="2.804339">
        <ele>376.265964</ele>
        <time>2025-02-27T13:10:08.201Z</time>
      </trkpt>
      <trkpt lat="44.061512" lon="2.804223">
        <ele>376.395943</ele>
        <time>2025-02-27T13:10:10.259Z</time>
      </trkpt>
      <trkpt lat="44.061229" lon="2.803363">
        <ele>376.937771</ele>
        <time>2025-02-27T13:10:19.064Z</time>
      </trkpt>
      <trkpt lat="44.060899" lon="2.802968">
        <ele>375.210578</ele>
        <time>2025-02-27T13:10:23.373Z</time>
      </trkpt>
      <trkpt lat="44.060763" lon="2.802574">
        <ele>373.964232</ele>
        <time>2025-02-27T13:10:26.336Z</time>
      </trkpt>
      <trkpt lat="44.060759" lon="2.801614">
        <ele>371.226825</ele>
        <time>2025-02-27T13:10:33.279Z</time>
      </trkpt>
      <trkpt lat="44.060729" lon="2.801421">
        <ele>370.663773</ele>
        <time>2025-02-27T13:10:34.663Z</time>
      </trkpt>
      <trkpt lat="44.060548" lon="2.800812">
        <ele>366.916676</ele>
        <time>2025-02-27T13:10:38.997Z</time>
      </trkpt>
      <trkpt lat="44.060481" lon="2.800505">
        <ele>364.553350</ele>
        <time>2025-02-27T13:10:41.027Z</time>
      </trkpt>
      <trkpt lat="44.060448" lon="2.799946">
        <ele>360.421922</ele>
        <time>2025-02-27T13:10:44.479Z</time>
      </trkpt>
      <trkpt lat="44.060500" lon="2.799224">
        <ele>355.077076</ele>
        <time>2025-02-27T13:10:48.873Z</time>
      </trkpt>
      <trkpt lat="44.060442" lon="2.798763">
        <ele>351.629730</ele>
        <time>2025-02-27T13:10:51.684Z</time>
      </trkpt>
      <trkpt lat="44.060294" lon="2.798342">
        <ele>348.241436</ele>
        <time>2025-02-27T13:10:54.508Z</time>
      </trkpt>
      <trkpt lat="44.060176" lon="2.798135">
        <ele>346.332348</ele>
        <time>2025-02-27T13:10:56.103Z</time>
      </trkpt>
      <trkpt lat="44.059781" lon="2.797612">
        <ele>340.850255</ele>
        <time>2025-02-27T13:11:00.776Z</time>
      </trkpt>
      <trkpt lat="44.059705" lon="2.797456">
        <ele>339.488481</ele>
        <time>2025-02-27T13:11:01.957Z</time>
      </trkpt>
      <trkpt lat="44.059399" lon="2.796451">
        <ele>332.111458</ele>
        <time>2025-02-27T13:11:08.956Z</time>
      </trkpt>
      <trkpt lat="44.059181" lon="2.796046">
        <ele>329.466990</ele>
        <time>2025-02-27T13:11:12.286Z</time>
      </trkpt>
      <trkpt lat="44.059016" lon="2.795822">
        <ele>327.790609</ele>
        <time>2025-02-27T13:11:14.365Z</time>
      </trkpt>
      <trkpt lat="44.058681" lon="2.795453">
        <ele>324.683504</ele>
        <time>2025-02-27T13:11:18.158Z</time>
      </trkpt>
      <trkpt lat="44.058615" lon="2.795306">
        <ele>323.777652</ele>
        <time>2025-02-27T13:11:19.250Z</time>
      </trkpt>
      <trkpt lat="44.058581" lon="2.795150">
        <ele>322.925707</ele>
        <time>2025-02-27T13:11:20.275Z</time>
      </trkpt>
      <trkpt lat="44.058577" lon="2.794993">
        <ele>322.104690</ele>
        <time>2025-02-27T13:11:21.260Z</time>
      </trkpt>
      <trkpt lat="44.058608" lon="2.794809">
        <ele>321.117010</ele>
        <time>2025-02-27T13:11:22.464Z</time>
      </trkpt>
      <trkpt lat="44.058772" lon="2.794354">
        <ele>318.896433</ele>
        <time>2025-02-27T13:11:25.782Z</time>
      </trkpt>
      <trkpt lat="44.058836" lon="2.793975">
        <ele>317.331130</ele>
        <time>2025-02-27T13:11:28.340Z</time>
      </trkpt>
      <trkpt lat="44.058824" lon="2.793487">
        <ele>315.367941</ele>
        <time>2025-02-27T13:11:31.537Z</time>
      </trkpt>
      <trkpt lat="44.058710" lon="2.792844">
        <ele>312.705193</ele>
        <time>2025-02-27T13:11:35.929Z</time>
      </trkpt>
      <trkpt lat="44.058436" lon="2.791118">
        <ele>309.937329</ele>
        <time>2025-02-27T13:11:48.656Z</time>
      </trkpt>
      <trkpt lat="44.058375" lon="2.790896">
        <ele>309.863686</ele>
        <time>2025-02-27T13:11:50.766Z</time>
      </trkpt>
      <trkpt lat="44.058283" lon="2.790684">
        <ele>309.786950</ele>
        <time>2025-02-27T13:11:53.588Z</time>
      </trkpt>
      <trkpt lat="44.058037" lon="2.790243">
        <ele>309.613970</ele>
        <time>2025-02-27T13:12:03.110Z</time>
      </trkpt>
      <trkpt lat="44.057959" lon="2.790048">
        <ele>309.544820</ele>
        <time>2025-02-27T13:12:08.081Z</time>
      </trkpt>
      <trkpt lat="44.057856" lon="2.789606">
        <ele>310.530953</ele>
        <time>2025-02-27T13:12:20.793Z</time>
      </trkpt>
      <trkpt lat="44.057816" lon="2.788963">
        <ele>312.164241</ele>
        <time>2025-02-27T13:12:36.527Z</time>
      </trkpt>
      <trkpt lat="44.057849" lon="2.788485">
        <ele>313.379456</ele>
        <time>2025-02-27T13:12:46.657Z</time>
      </trkpt>
      <trkpt lat="44.057911" lon="2.788138">
        <ele>314.284323</ele>
        <time>2025-02-27T13:12:53.760Z</time>
      </trkpt>
      <trkpt lat="44.057993" lon="2.787814">
        <ele>315.153610</ele>
        <time>2025-02-27T13:12:59.853Z</time>
      </trkpt>
      <trkpt lat="44.058010" lon="2.787653">
        <ele>315.565416</ele>
        <time>2025-02-27T13:13:02.690Z</time>
      </trkpt>
      <trkpt lat="44.058005" lon="2.786873">
        <ele>316.802406</ele>
        <time>2025-02-27T13:13:15.823Z</time>
      </trkpt>
      <trkpt lat="44.058082" lon="2.786552">
        <ele>317.283441</ele>
        <time>2025-02-27T13:13:20.781Z</time>
      </trkpt>
      <trkpt lat="44.058184" lon="2.786381">
        <ele>317.599332</ele>
        <time>2025-02-27T13:13:24.807Z</time>
      </trkpt>
      <trkpt lat="44.058842" lon="2.785567">
        <ele>319.340803</ele>
        <time>2025-02-27T13:13:49.276Z</time>
      </trkpt>
      <trkpt lat="44.059006" lon="2.785430">
        <ele>318.431882</ele>
        <time>2025-02-27T13:13:52.080Z</time>
      </trkpt>
      <trkpt lat="44.059240" lon="2.785301">
        <ele>316.818311</ele>
        <time>2025-02-27T13:13:54.805Z</time>
      </trkpt>
      <trkpt lat="44.059462" lon="2.785256">
        <ele>315.380083</ele>
        <time>2025-02-27T13:13:56.955Z</time>
      </trkpt>
      <trkpt lat="44.059730" lon="2.785261">
        <ele>313.661821</ele>
        <time>2025-02-27T13:13:59.366Z</time>
      </trkpt>
      <trkpt lat="44.059980" lon="2.785344">
        <ele>312.014126</ele>
        <time>2025-02-27T13:14:01.584Z</time>
      </trkpt>
      <trkpt lat="44.060437" lon="2.785776">
        <ele>308.472334</ele>
        <time>2025-02-27T13:14:06.264Z</time>
      </trkpt>
      <trkpt lat="44.060832" lon="2.786244">
        <ele>307.145770</ele>
        <time>2025-02-27T13:14:10.750Z</time>
      </trkpt>
      <trkpt lat="44.061020" lon="2.786540">
        <ele>306.654592</ele>
        <time>2025-02-27T13:14:13.387Z</time>
      </trkpt>
      <trkpt lat="44.061135" lon="2.786671">
        <ele>306.397452</ele>
        <time>2025-02-27T13:14:14.907Z</time>
      </trkpt>
      <trkpt lat="44.061272" lon="2.786762">
        <ele>306.134791</ele>
        <time>2025-02-27T13:14:16.653Z</time>
      </trkpt>
      <trkpt lat="44.061510" lon="2.786791">
        <ele>305.721420</ele>
        <time>2025-02-27T13:14:20.804Z</time>
      </trkpt>
      <trkpt lat="44.061628" lon="2.786739">
        <ele>305.507260</ele>
        <time>2025-02-27T13:14:23.937Z</time>
      </trkpt>
      <trkpt lat="44.062673" lon="2.786001">
        <ele>309.726947</ele>
        <time>2025-02-27T13:15:14.565Z</time>
      </trkpt>
      <trkpt lat="44.062834" lon="2.785834">
        <ele>311.058103</ele>
        <time>2025-02-27T13:15:24.803Z</time>
      </trkpt>
      <trkpt lat="44.063155" lon="2.785296">
        <ele>314.389197</ele>
        <time>2025-02-27T13:15:48.472Z</time>
      </trkpt>
      <trkpt lat="44.063309" lon="2.784982">
        <ele>316.200138</ele>
        <time>2025-02-27T13:15:59.537Z</time>
      </trkpt>
      <trkpt lat="44.063412" lon="2.784658">
        <ele>316.418768</ele>
        <time>2025-02-27T13:16:07.997Z</time>
      </trkpt>
      <trkpt lat="44.063593" lon="2.783823">
        <ele>315.451233</ele>
        <time>2025-02-27T13:16:20.612Z</time>
      </trkpt>
      <trkpt lat="44.063677" lon="2.783117">
        <ele>314.657372</ele>
        <time>2025-02-27T13:16:25.646Z</time>
      </trkpt>
      <trkpt lat="44.063581" lon="2.782350">
        <ele>313.578350</ele>
        <time>2025-02-27T13:16:30.711Z</time>
      </trkpt>
      <trkpt lat="44.063452" lon="2.781951">
        <ele>312.261960</ele>
        <time>2025-02-27T13:16:33.529Z</time>
      </trkpt>
      <trkpt lat="44.063205" lon="2.781430">
        <ele>310.383989</ele>
        <time>2025-02-27T13:16:37.579Z</time>
      </trkpt>
      <trkpt lat="44.062966" lon="2.781088">
        <ele>308.948637</ele>
        <time>2025-02-27T13:16:40.824Z</time>
      </trkpt>
      <trkpt lat="44.062607" lon="2.780367">
        <ele>306.477364</ele>
        <time>2025-02-27T13:16:47.998Z</time>
      </trkpt>
      <trkpt lat="44.062533" lon="2.780264">
        <ele>306.971059</ele>
        <time>2025-02-27T13:16:49.673Z</time>
      </trkpt>
      <trkpt lat="44.062034" lon="2.779851">
        <ele>309.709702</ele>
        <time>2025-02-27T13:17:02.616Z</time>
      </trkpt>
      <trkpt lat="44.061916" lon="2.779786">
        <ele>310.308335</ele>
        <time>2025-02-27T13:17:06.225Z</time>
      </trkpt>
      <trkpt lat="44.061652" lon="2.779738">
        <ele>311.564222</ele>
        <time>2025-02-27T13:17:14.746Z</time>
      </trkpt>
      <trkpt lat="44.061399" lon="2.779515">
        <ele>312.976883</ele>
        <time>2025-02-27T13:17:26.109Z</time>
      </trkpt>
      <trkpt lat="44.060756" lon="2.778399">
        <ele>320.682101</ele>
        <time>2025-02-27T13:18:26.723Z</time>
      </trkpt>
      <trkpt lat="44.060453" lon="2.777976">
        <ele>324.665127</ele>
        <time>2025-02-27T13:18:54.569Z</time>
      </trkpt>
      <trkpt lat="44.060417" lon="2.777852">
        <ele>325.557004</ele>
        <time>2025-02-27T13:19:00.257Z</time>
      </trkpt>
      <trkpt lat="44.060329" lon="2.777109">
        <ele>330.578824</ele>
        <time>2025-02-27T13:19:27.399Z</time>
      </trkpt>
      <trkpt lat="44.060359" lon="2.776871">
        <ele>331.504559</ele>
        <time>2025-02-27T13:19:34.149Z</time>
      </trkpt>
      <trkpt lat="44.060634" lon="2.776188">
        <ele>331.003523</ele>
        <time>2025-02-27T13:19:44.427Z</time>
      </trkpt>
      <trkpt lat="44.060927" lon="2.775672">
        <ele>330.582647</ele>
        <time>2025-02-27T13:19:49.087Z</time>
      </trkpt>
      <trkpt lat="44.061110" lon="2.775232">
        <ele>330.257299</ele>
        <time>2025-02-27T13:19:52.529Z</time>
      </trkpt>
      <trkpt lat="44.061467" lon="2.773732">
        <ele>326.832538</ele>
        <time>2025-02-27T13:20:04.816Z</time>
      </trkpt>
      <trkpt lat="44.061521" lon="2.773390">
        <ele>325.853819</ele>
        <time>2025-02-27T13:20:07.573Z</time>
      </trkpt>
      <trkpt lat="44.061534" lon="2.773054">
        <ele>324.913315</ele>
        <time>2025-02-27T13:20:09.943Z</time>
      </trkpt>
      <trkpt lat="44.061475" lon="2.772267">
        <ele>322.580818</ele>
        <time>2025-02-27T13:20:15.056Z</time>
      </trkpt>
      <trkpt lat="44.061288" lon="2.771412">
        <ele>318.943886</ele>
        <time>2025-02-27T13:20:20.872Z</time>
      </trkpt>
      <trkpt lat="44.061199" lon="2.771133">
        <ele>317.701677</ele>
        <time>2025-02-27T13:20:22.853Z</time>
      </trkpt>
      <trkpt lat="44.061143" lon="2.771051">
        <ele>317.241329</ele>
        <time>2025-02-27T13:20:23.606Z</time>
      </trkpt>
      <trkpt lat="44.061047" lon="2.770956">
        <ele>316.574238</ele>
        <time>2025-02-27T13:20:24.691Z</time>
      </trkpt>
      <trkpt lat="44.060554" lon="2.770869">
        <ele>313.760019</ele>
        <time>2025-02-27T13:20:29.326Z</time>
      </trkpt>
      <trkpt lat="44.060072" lon="2.770663">
        <ele>310.630915</ele>
        <time>2025-02-27T13:20:34.490Z</time>
      </trkpt>
      <trkpt lat="44.059957" lon="2.770648">
        <ele>309.881401</ele>
        <time>2025-02-27T13:20:35.749Z</time>
      </trkpt>
      <trkpt lat="44.059646" lon="2.770718">
        <ele>307.837073</ele>
        <time>2025-02-27T13:20:38.765Z</time>
      </trkpt>
      <trkpt lat="44.059313" lon="2.770669">
        <ele>305.664166</ele>
        <time>2025-02-27T13:20:41.756Z</time>
      </trkpt>
      <trkpt lat="44.059033" lon="2.770464">
        <ele>303.611091</ele>
        <time>2025-02-27T13:20:44.527Z</time>
      </trkpt>
      <trkpt lat="44.058645" lon="2.769982">
        <ele>300.050081</ele>
        <time>2025-02-27T13:20:49.040Z</time>
      </trkpt>
      <trkpt lat="44.058102" lon="2.769301">
        <ele>294.296832</ele>
        <time>2025-02-27T13:20:55.409Z</time>
      </trkpt>
      <trkpt lat="44.057241" lon="2.768324">
        <ele>286.388741</ele>
        <time>2025-02-27T13:21:05.351Z</time>
      </trkpt>
      <trkpt lat="44.056957" lon="2.767882">
        <ele>285.036816</ele>
        <time>2025-02-27T13:21:09.388Z</time>
      </trkpt>
      <trkpt lat="44.056753" lon="2.767486">
        <ele>283.925838</ele>
        <time>2025-02-27T13:21:12.967Z</time>
      </trkpt>
      <trkpt lat="44.056636" lon="2.767339">
        <ele>283.425679</ele>
        <time>2025-02-27T13:21:14.726Z</time>
      </trkpt>
      <trkpt lat="44.056495" lon="2.767220">
        <ele>282.902449</ele>
        <time>2025-02-27T13:21:16.625Z</time>
      </trkpt>
      <trkpt lat="44.056016" lon="2.767063">
        <ele>281.341053</ele>
        <time>2025-02-27T13:21:22.755Z</time>
      </trkpt>
      <trkpt lat="44.055695" lon="2.766886">
        <ele>280.843093</ele>
        <time>2025-02-27T13:21:27.754Z</time>
      </trkpt>
      <trkpt lat="44.054478" lon="2.765907">
        <ele>279.045729</ele>
        <time>2025-02-27T13:21:44.557Z</time>
      </trkpt>
      <trkpt lat="44.053792" lon="2.765446">
        <ele>277.276782</ele>
        <time>2025-02-27T13:21:52.405Z</time>
      </trkpt>
      <trkpt lat="44.053208" lon="2.764982">
        <ele>275.635830</ele>
        <time>2025-02-27T13:21:59.310Z</time>
      </trkpt>
      <trkpt lat="44.052892" lon="2.764821">
        <ele>274.814701</ele>
        <time>2025-02-27T13:22:02.808Z</time>
      </trkpt>
      <trkpt lat="44.052617" lon="2.764724">
        <ele>274.673388</ele>
        <time>2025-02-27T13:22:06.030Z</time>
      </trkpt>
      <trkpt lat="44.052256" lon="2.764639">
        <ele>274.910302</ele>
        <time>2025-02-27T13:22:10.822Z</time>
      </trkpt>
      <trkpt lat="44.052185" lon="2.764622">
        <ele>274.956920</ele>
        <time>2025-02-27T13:22:11.792Z</time>
      </trkpt>
      <trkpt lat="44.052098" lon="2.764606">
        <ele>275.013705</ele>
        <time>2025-02-27T13:22:13.007Z</time>
      </trkpt>
      <trkpt lat="44.051764" lon="2.764542">
        <ele>275.231867</ele>
        <time>2025-02-27T13:22:18.762Z</time>
      </trkpt>
      <trkpt lat="44.051452" lon="2.764543">
        <ele>275.433755</ele>
        <time>2025-02-27T13:22:25.211Z</time>
      </trkpt>
      <trkpt lat="44.051340" lon="2.764575">
        <ele>275.507739</ele>
        <time>2025-02-27T13:22:27.828Z</time>
      </trkpt>
      <trkpt lat="44.051208" lon="2.764464">
        <ele>275.607540</ele>
        <time>2025-02-27T13:22:31.459Z</time>
      </trkpt>
      <trkpt lat="44.051083" lon="2.764424">
        <ele>275.690536</ele>
        <time>2025-02-27T13:22:34.558Z</time>
      </trkpt>
      <trkpt lat="44.050509" lon="2.764306">
        <ele>276.745139</ele>
        <time>2025-02-27T13:22:52.088Z</time>
      </trkpt>
      <trkpt lat="44.050269" lon="2.764201">
        <ele>277.229125</ele>
        <time>2025-02-27T13:23:00.283Z</time>
      </trkpt>
      <trkpt lat="44.050024" lon="2.764054">
        <ele>277.742400</ele>
        <time>2025-02-27T13:23:08.666Z</time>
      </trkpt>
      <trkpt lat="44.049517" lon="2.763660">
        <ele>278.859566</ele>
        <time>2025-02-27T13:23:20.450Z</time>
      </trkpt>
      <trkpt lat="44.049216" lon="2.763303">
        <ele>278.184329</ele>
        <time>2025-02-27T13:23:24.717Z</time>
      </trkpt>
      <trkpt lat="44.049178" lon="2.763182">
        <ele>277.769030</ele>
        <time>2025-02-27T13:23:25.632Z</time>
      </trkpt>
      <trkpt lat="44.049143" lon="2.762975">
        <ele>277.100221</ele>
        <time>2025-02-27T13:23:27.136Z</time>
      </trkpt>
      <trkpt lat="44.049214" lon="2.762834">
        <ele>276.558759</ele>
        <time>2025-02-27T13:23:28.334Z</time>
      </trkpt>
      <trkpt lat="44.049779" lon="2.761850">
        <ele>272.597687</ele>
        <time>2025-02-27T13:23:36.621Z</time>
      </trkpt>
      <trkpt lat="44.049942" lon="2.761582">
        <ele>271.493519</ele>
        <time>2025-02-27T13:23:38.947Z</time>
      </trkpt>
      <trkpt lat="44.049795" lon="2.761275">
        <ele>270.767471</ele>
        <time>2025-02-27T13:23:41.453Z</time>
      </trkpt>
      <trkpt lat="44.049202" lon="2.759941">
        <ele>268.024184</ele>
        <time>2025-02-27T13:23:53.769Z</time>
      </trkpt>
      <trkpt lat="44.049161" lon="2.759815">
        <ele>267.782282</ele>
        <time>2025-02-27T13:23:54.900Z</time>
      </trkpt>
      <trkpt lat="44.049087" lon="2.759519">
        <ele>267.234165</ele>
        <time>2025-02-27T13:23:57.518Z</time>
      </trkpt>
      <trkpt lat="44.049053" lon="2.759214">
        <ele>266.928433</ele>
        <time>2025-02-27T13:24:00.212Z</time>
      </trkpt>
      <trkpt lat="44.049102" lon="2.758418">
        <ele>266.892801</ele>
        <time>2025-02-27T13:24:07.944Z</time>
      </trkpt>
      <trkpt lat="44.049158" lon="2.757404">
        <ele>266.847443</ele>
        <time>2025-02-27T13:24:19.376Z</time>
      </trkpt>
      <trkpt lat="44.049082" lon="2.756197">
        <ele>267.137412</ele>
        <time>2025-02-27T13:24:34.442Z</time>
      </trkpt>
      <trkpt lat="44.049019" lon="2.755916">
        <ele>267.277155</ele>
        <time>2025-02-27T13:24:38.548Z</time>
      </trkpt>
      <trkpt lat="44.048786" lon="2.755369">
        <ele>267.579020</ele>
        <time>2025-02-27T13:24:47.053Z</time>
      </trkpt>
      <trkpt lat="44.048725" lon="2.755000">
        <ele>267.758775</ele>
        <time>2025-02-27T13:24:51.963Z</time>
      </trkpt>
      <trkpt lat="44.048714" lon="2.754790">
        <ele>267.858737</ele>
        <time>2025-02-27T13:24:54.626Z</time>
      </trkpt>
      <trkpt lat="44.048627" lon="2.754454">
        <ele>268.004247</ele>
        <time>2025-02-27T13:24:58.965Z</time>
      </trkpt>
      <trkpt lat="44.048591" lon="2.754381">
        <ele>267.987877</ele>
        <time>2025-02-27T13:24:59.947Z</time>
      </trkpt>
      <trkpt lat="44.048334" lon="2.754218">
        <ele>267.915213</ele>
        <time>2025-02-27T13:25:04.134Z</time>
      </trkpt>
      <trkpt lat="44.048185" lon="2.753917">
        <ele>267.847631</ele>
        <time>2025-02-27T13:25:07.714Z</time>
      </trkpt>
      <trkpt lat="44.048037" lon="2.753492">
        <ele>267.760306</ele>
        <time>2025-02-27T13:25:12.092Z</time>
      </trkpt>
      <trkpt lat="44.047852" lon="2.752626">
        <ele>267.593248</ele>
        <time>2025-02-27T13:25:20.311Z</time>
      </trkpt>
      <trkpt lat="44.047654" lon="2.751570">
        <ele>268.118564</ele>
        <time>2025-02-27T13:25:32.010Z</time>
      </trkpt>
      <trkpt lat="44.047465" lon="2.750342">
        <ele>268.963149</ele>
        <time>2025-02-27T13:25:50.776Z</time>
      </trkpt>
      <trkpt lat="44.047302" lon="2.749615">
        <ele>269.520039</ele>
        <time>2025-02-27T13:26:02.649Z</time>
      </trkpt>
      <trkpt lat="44.046876" lon="2.748365">
        <ele>270.620875</ele>
        <time>2025-02-27T13:26:22.314Z</time>
      </trkpt>
      <trkpt lat="44.046621" lon="2.747430">
        <ele>271.301578</ele>
        <time>2025-02-27T13:26:34.683Z</time>
      </trkpt>
      <trkpt lat="44.045611" lon="2.745314">
        <ele>272.029259</ele>
        <time>2025-02-27T13:27:05.065Z</time>
      </trkpt>
      <trkpt lat="44.045276" lon="2.744414">
        <ele>272.013681</ele>
        <time>2025-02-27T13:27:15.697Z</time>
      </trkpt>
      <trkpt lat="44.044877" lon="2.743701">
        <ele>271.999793</ele>
        <time>2025-02-27T13:27:24.446Z</time>
      </trkpt>
      <trkpt lat="44.044286" lon="2.742845">
        <ele>272.420056</ele>
        <time>2025-02-27T13:27:37.612Z</time>
      </trkpt>
      <trkpt lat="44.043768" lon="2.742225">
        <ele>272.877309</ele>
        <time>2025-02-27T13:27:50.280Z</time>
      </trkpt>
      <trkpt lat="44.043050" lon="2.741231">
        <ele>273.511469</ele>
        <time>2025-02-27T13:28:10.375Z</time>
      </trkpt>
      <trkpt lat="44.041751" lon="2.738866">
        <ele>274.110037</ele>
        <time>2025-02-27T13:28:44.634Z</time>
      </trkpt>
      <trkpt lat="44.039957" lon="2.736014">
        <ele>273.153861</ele>
        <time>2025-02-27T13:29:20.177Z</time>
      </trkpt>
      <trkpt lat="44.039654" lon="2.735649">
        <ele>273.226969</ele>
        <time>2025-02-27T13:29:26.632Z</time>
      </trkpt>
      <trkpt lat="44.039548" lon="2.735520">
        <ele>273.252658</ele>
        <time>2025-02-27T13:29:29.281Z</time>
      </trkpt>
      <trkpt lat="44.039442" lon="2.735397">
        <ele>273.277836</ele>
        <time>2025-02-27T13:29:31.644Z</time>
      </trkpt>
      <trkpt lat="44.038732" lon="2.734482">
        <ele>273.454372</ele>
        <time>2025-02-27T13:29:47.253Z</time>
      </trkpt>
      <trkpt lat="44.038622" lon="2.734342">
        <ele>273.481567</ele>
        <time>2025-02-27T13:29:49.944Z</time>
      </trkpt>
      <trkpt lat="44.037987" lon="2.733437">
        <ele>274.230465</ele>
        <time>2025-02-27T13:30:01.853Z</time>
      </trkpt>
      <trkpt lat="44.037314" lon="2.732607">
        <ele>274.978055</ele>
        <time>2025-02-27T13:30:21.037Z</time>
      </trkpt>
      <trkpt lat="44.036473" lon="2.731717">
        <ele>276.571651</ele>
        <time>2025-02-27T13:30:49.268Z</time>
      </trkpt>
      <trkpt lat="44.036103" lon="2.731432">
        <ele>277.209473</ele>
        <time>2025-02-27T13:30:58.107Z</time>
      </trkpt>
      <trkpt lat="44.035980" lon="2.731372">
        <ele>277.406041</ele>
        <time>2025-02-27T13:31:00.151Z</time>
      </trkpt>
      <trkpt lat="44.035041" lon="2.731205">
        <ele>276.112597</ele>
        <time>2025-02-27T13:31:10.559Z</time>
      </trkpt>
      <trkpt lat="44.034580" lon="2.731036">
        <ele>275.138789</ele>
        <time>2025-02-27T13:31:15.565Z</time>
      </trkpt>
      <trkpt lat="44.034109" lon="2.730693">
        <ele>274.052831</ele>
        <time>2025-02-27T13:31:21.154Z</time>
      </trkpt>
      <trkpt lat="44.033901" lon="2.730363">
        <ele>273.496995</ele>
        <time>2025-02-27T13:31:24.504Z</time>
      </trkpt>
      <trkpt lat="44.033607" lon="2.729669">
        <ele>272.490123</ele>
        <time>2025-02-27T13:31:30.778Z</time>
      </trkpt>
      <trkpt lat="44.033440" lon="2.729140">
        <ele>271.767952</ele>
        <time>2025-02-27T13:31:35.392Z</time>
      </trkpt>
      <trkpt lat="44.033371" lon="2.728767">
        <ele>271.286527</ele>
        <time>2025-02-27T13:31:38.550Z</time>
      </trkpt>
      <trkpt lat="44.033222" lon="2.726287">
        <ele>270.671519</ele>
        <time>2025-02-27T13:32:03.305Z</time>
      </trkpt>
      <trkpt lat="44.032985" lon="2.724413">
        <ele>272.113183</ele>
        <time>2025-02-27T13:32:29.484Z</time>
      </trkpt>
      <trkpt lat="44.032846" lon="2.723890">
        <ele>272.639446</ele>
        <time>2025-02-27T13:32:38.309Z</time>
      </trkpt>
      <trkpt lat="44.032638" lon="2.723364">
        <ele>273.302739</ele>
        <time>2025-02-27T13:32:48.132Z</time>
      </trkpt>
      <trkpt lat="44.032113" lon="2.722497">
        <ele>274.875643</ele>
        <time>2025-02-27T13:33:06.618Z</time>
      </trkpt>
      <trkpt lat="44.030850" lon="2.720840">
        <ele>278.166699</ele>
        <time>2025-02-27T13:33:45.653Z</time>
      </trkpt>
      <trkpt lat="44.030122" lon="2.720144">
        <ele>279.813507</ele>
        <time>2025-02-27T13:34:06.878Z</time>
      </trkpt>
      <trkpt lat="44.029700" lon="2.719869">
        <ele>279.202349</ele>
        <time>2025-02-27T13:34:15.126Z</time>
      </trkpt>
      <trkpt lat="44.029412" lon="2.719797">
        <ele>278.806367</ele>
        <time>2025-02-27T13:34:18.787Z</time>
      </trkpt>
      <trkpt lat="44.029091" lon="2.719788">
        <ele>278.371886</ele>
        <time>2025-02-27T13:34:22.328Z</time>
      </trkpt>
      <trkpt lat="44.028416" lon="2.719514">
        <ele>277.420334</ele>
        <time>2025-02-27T13:34:29.474Z</time>
      </trkpt>
      <trkpt lat="44.027794" lon="2.719365">
        <ele>275.734796</ele>
        <time>2025-02-27T13:34:35.849Z</time>
      </trkpt>
      <trkpt lat="44.027538" lon="2.719258">
        <ele>275.008313</ele>
        <time>2025-02-27T13:34:38.640Z</time>
      </trkpt>
      <trkpt lat="44.027082" lon="2.718953">
        <ele>273.633153</ele>
        <time>2025-02-27T13:34:43.937Z</time>
      </trkpt>
      <trkpt lat="44.026743" lon="2.718602">
        <ele>272.501803</ele>
        <time>2025-02-27T13:34:48.421Z</time>
      </trkpt>
      <trkpt lat="44.026599" lon="2.718414">
        <ele>272.480441</ele>
        <time>2025-02-27T13:34:50.521Z</time>
      </trkpt>
      <trkpt lat="44.026449" lon="2.718114">
        <ele>272.452024</ele>
        <time>2025-02-27T13:34:53.460Z</time>
      </trkpt>
      <trkpt lat="44.026389" lon="2.717898">
        <ele>272.434015</ele>
        <time>2025-02-27T13:34:55.430Z</time>
      </trkpt>
      <trkpt lat="44.026339" lon="2.717257">
        <ele>272.383873</ele>
        <time>2025-02-27T13:35:01.295Z</time>
      </trkpt>
      <trkpt lat="44.026283" lon="2.717132">
        <ele>272.372419</ele>
        <time>2025-02-27T13:35:02.747Z</time>
      </trkpt>
      <trkpt lat="44.026170" lon="2.717011">
        <ele>272.356994</ele>
        <time>2025-02-27T13:35:04.887Z</time>
      </trkpt>
      <trkpt lat="44.026030" lon="2.716860">
        <ele>272.337832</ele>
        <time>2025-02-27T13:35:08.092Z</time>
      </trkpt>
      <trkpt lat="44.025903" lon="2.716628">
        <ele>272.315155</ele>
        <time>2025-02-27T13:35:12.735Z</time>
      </trkpt>
      <trkpt lat="44.025532" lon="2.715808">
        <ele>274.148188</ele>
        <time>2025-02-27T13:35:35.930Z</time>
      </trkpt>
      <trkpt lat="44.025352" lon="2.715501">
        <ele>274.979845</ele>
        <time>2025-02-27T13:35:45.367Z</time>
      </trkpt>
      <trkpt lat="44.024943" lon="2.715032">
        <ele>276.527650</ele>
        <time>2025-02-27T13:35:59.406Z</time>
      </trkpt>
      <trkpt lat="44.024717" lon="2.714900">
        <ele>277.243368</ele>
        <time>2025-02-27T13:36:04.869Z</time>
      </trkpt>
      <trkpt lat="44.024145" lon="2.714885">
        <ele>277.358922</ele>
        <time>2025-02-27T13:36:15.486Z</time>
      </trkpt>
      <trkpt lat="44.023929" lon="2.714834">
        <ele>277.264046</ele>
        <time>2025-02-27T13:36:18.129Z</time>
      </trkpt>
      <trkpt lat="44.023620" lon="2.714683">
        <ele>277.122214</ele>
        <time>2025-02-27T13:36:21.633Z</time>
      </trkpt>
      <trkpt lat="44.023059" lon="2.714551">
        <ele>276.875822</ele>
        <time>2025-02-27T13:36:28.132Z</time>
      </trkpt>
      <trkpt lat="44.022671" lon="2.714514">
        <ele>277.027889</ele>
        <time>2025-02-27T13:36:33.580Z</time>
      </trkpt>
      <trkpt lat="44.021861" lon="2.714378">
        <ele>278.216301</ele>
        <time>2025-02-27T13:36:48.589Z</time>
      </trkpt>
      <trkpt lat="44.021105" lon="2.714137">
        <ele>279.346051</ele>
        <time>2025-02-27T13:37:06.612Z</time>
      </trkpt>
      <trkpt lat="44.020290" lon="2.713643">
        <ele>281.757457</ele>
        <time>2025-02-27T13:37:35.831Z</time>
      </trkpt>
      <trkpt lat="44.020185" lon="2.713518">
        <ele>282.140010</ele>
        <time>2025-02-27T13:37:39.538Z</time>
      </trkpt>
      <trkpt lat="44.019981" lon="2.712988">
        <ele>283.336448</ele>
        <time>2025-02-27T13:37:50.252Z</time>
      </trkpt>
      <trkpt lat="44.019852" lon="2.712894">
        <ele>283.739529</ele>
        <time>2025-02-27T13:37:53.606Z</time>
      </trkpt>
      <trkpt lat="44.019799" lon="2.712875">
        <ele>283.891014</ele>
        <time>2025-02-27T13:37:54.775Z</time>
      </trkpt>
      <trkpt lat="44.019695" lon="2.712894">
        <ele>284.181330</ele>
        <time>2025-02-27T13:37:57.013Z</time>
      </trkpt>
      <trkpt lat="44.019458" lon="2.713045">
        <ele>283.866880</ele>
        <time>2025-02-27T13:38:02.223Z</time>
      </trkpt>
      <trkpt lat="44.019325" lon="2.713061">
        <ele>283.505833</ele>
        <time>2025-02-27T13:38:04.698Z</time>
      </trkpt>
      <trkpt lat="44.019198" lon="2.712998">
        <ele>283.141157</ele>
        <time>2025-02-27T13:38:06.860Z</time>
      </trkpt>
      <trkpt lat="44.018462" lon="2.712246">
        <ele>280.671083</ele>
        <time>2025-02-27T13:38:15.669Z</time>
      </trkpt>
      <trkpt lat="44.018215" lon="2.712151">
        <ele>279.977982</ele>
        <time>2025-02-27T13:38:18.073Z</time>
      </trkpt>
      <trkpt lat="44.017697" lon="2.712115">
        <ele>278.749689</ele>
        <time>2025-02-27T13:38:23.052Z</time>
      </trkpt>
      <trkpt lat="44.017569" lon="2.712096">
        <ele>278.466199</ele>
        <time>2025-02-27T13:38:24.389Z</time>
      </trkpt>
      <trkpt lat="44.017217" lon="2.712042">
        <ele>277.686300</ele>
        <time>2025-02-27T13:38:28.343Z</time>
      </trkpt>
      <trkpt lat="44.016988" lon="2.711974">
        <ele>277.170612</ele>
        <time>2025-02-27T13:38:31.134Z</time>
      </trkpt>
      <trkpt lat="44.016923" lon="2.711915">
        <ele>276.999668</ele>
        <time>2025-02-27T13:38:32.103Z</time>
      </trkpt>
      <trkpt lat="44.016874" lon="2.711810">
        <ele>276.801432</ele>
        <time>2025-02-27T13:38:33.272Z</time>
      </trkpt>
      <trkpt lat="44.016860" lon="2.711710">
        <ele>276.640087</ele>
        <time>2025-02-27T13:38:34.289Z</time>
      </trkpt>
      <trkpt lat="44.016874" lon="2.711512">
        <ele>276.324997</ele>
        <time>2025-02-27T13:38:36.250Z</time>
      </trkpt>
      <trkpt lat="44.016921" lon="2.711316">
        <ele>275.997786</ele>
        <time>2025-02-27T13:38:38.175Z</time>
      </trkpt>
      <trkpt lat="44.016903" lon="2.711147">
        <ele>275.727217</ele>
        <time>2025-02-27T13:38:39.609Z</time>
      </trkpt>
      <trkpt lat="44.016861" lon="2.711067">
        <ele>275.570349</ele>
        <time>2025-02-27T13:38:40.426Z</time>
      </trkpt>
      <trkpt lat="44.016728" lon="2.711016">
        <ele>275.074851</ele>
        <time>2025-02-27T13:38:41.947Z</time>
      </trkpt>
      <trkpt lat="44.016639" lon="2.711065">
        <ele>274.723162</ele>
        <time>2025-02-27T13:38:42.964Z</time>
      </trkpt>
      <trkpt lat="44.016427" lon="2.711569">
        <ele>273.180444</ele>
        <time>2025-02-27T13:38:47.461Z</time>
      </trkpt>
      <trkpt lat="44.016355" lon="2.711839">
        <ele>272.419592</ele>
        <time>2025-02-27T13:38:49.516Z</time>
      </trkpt>
      <trkpt lat="44.016264" lon="2.711986">
        <ele>271.907110</ele>
        <time>2025-02-27T13:38:50.849Z</time>
      </trkpt>
      <trkpt lat="44.015985" lon="2.712159">
        <ele>270.784750</ele>
        <time>2025-02-27T13:38:53.689Z</time>
      </trkpt>
      <trkpt lat="44.015043" lon="2.712167">
        <ele>267.798391</ele>
        <time>2025-02-27T13:39:02.520Z</time>
      </trkpt>
      <trkpt lat="44.013928" lon="2.712259">
        <ele>264.896113</ele>
        <time>2025-02-27T13:39:14.743Z</time>
      </trkpt>
      <trkpt lat="44.013727" lon="2.712290">
        <ele>264.370638</ele>
        <time>2025-02-27T13:39:17.125Z</time>
      </trkpt>
      <trkpt lat="44.013070" lon="2.712303">
        <ele>264.689471</ele>
        <time>2025-02-27T13:39:26.510Z</time>
      </trkpt>
      <trkpt lat="44.012651" lon="2.712130">
        <ele>264.984701</ele>
        <time>2025-02-27T13:39:35.132Z</time>
      </trkpt>
      <trkpt lat="44.011195" lon="2.711309">
        <ele>266.480951</ele>
        <time>2025-02-27T13:40:07.797Z</time>
      </trkpt>
      <trkpt lat="44.010967" lon="2.711223">
        <ele>266.764556</ele>
        <time>2025-02-27T13:40:11.716Z</time>
      </trkpt>
      <trkpt lat="44.010756" lon="2.711257">
        <ele>267.019555</ele>
        <time>2025-02-27T13:40:15.568Z</time>
      </trkpt>
      <trkpt lat="44.010446" lon="2.711460">
        <ele>267.430916</ele>
        <time>2025-02-27T13:40:22.477Z</time>
      </trkpt>
      <trkpt lat="44.010325" lon="2.711502">
        <ele>267.580633</ele>
        <time>2025-02-27T13:40:24.951Z</time>
      </trkpt>
      <trkpt lat="44.010214" lon="2.711486">
        <ele>267.772354</ele>
        <time>2025-02-27T13:40:27.114Z</time>
      </trkpt>
      <trkpt lat="44.010095" lon="2.711401">
        <ele>268.067386</ele>
        <time>2025-02-27T13:40:29.621Z</time>
      </trkpt>
      <trkpt lat="44.010037" lon="2.711293">
        <ele>268.281166</ele>
        <time>2025-02-27T13:40:31.378Z</time>
      </trkpt>
      <trkpt lat="44.009968" lon="2.710905">
        <ele>268.915096</ele>
        <time>2025-02-27T13:40:37.051Z</time>
      </trkpt>
      <trkpt lat="44.009901" lon="2.710736">
        <ele>269.221168</ele>
        <time>2025-02-27T13:40:40.047Z</time>
      </trkpt>
      <trkpt lat="44.009842" lon="2.710671">
        <ele>269.387173</ele>
        <time>2025-02-27T13:40:41.862Z</time>
      </trkpt>
      <trkpt lat="44.008892" lon="2.710211">
        <ele>271.605593</ele>
        <time>2025-02-27T13:41:08.725Z</time>
      </trkpt>
      <trkpt lat="44.008379" lon="2.709721">
        <ele>273.337633</ele>
        <time>2025-02-27T13:41:24.269Z</time>
      </trkpt>
      <trkpt lat="44.007840" lon="2.709286">
        <ele>275.073703</ele>
        <time>2025-02-27T13:41:39.734Z</time>
      </trkpt>
      <trkpt lat="44.007258" lon="2.708921">
        <ele>277.118538</ele>
        <time>2025-02-27T13:41:55.964Z</time>
      </trkpt>
      <trkpt lat="44.006912" lon="2.708527">
        <ele>279.808154</ele>
        <time>2025-02-27T13:42:09.754Z</time>
      </trkpt>
      <trkpt lat="44.006732" lon="2.708149">
        <ele>281.769046</ele>
        <time>2025-02-27T13:42:22.641Z</time>
      </trkpt>
      <trkpt lat="44.006416" lon="2.707841">
        <ele>284.089881</ele>
        <time>2025-02-27T13:42:40.940Z</time>
      </trkpt>
      <trkpt lat="44.005944" lon="2.706826">
        <ele>289.228609</ele>
        <time>2025-02-27T13:43:19.326Z</time>
      </trkpt>
      <trkpt lat="44.005883" lon="2.706748">
        <ele>289.703309</ele>
        <time>2025-02-27T13:43:22.914Z</time>
      </trkpt>
      <trkpt lat="44.005736" lon="2.706632">
        <ele>290.671468</ele>
        <time>2025-02-27T13:43:30.152Z</time>
      </trkpt>
      <trkpt lat="44.005452" lon="2.706546">
        <ele>292.336301</ele>
        <time>2025-02-27T13:43:42.307Z</time>
      </trkpt>
      <trkpt lat="44.005372" lon="2.706494">
        <ele>292.842132</ele>
        <time>2025-02-27T13:43:45.837Z</time>
      </trkpt>
      <trkpt lat="44.005303" lon="2.706414">
        <ele>293.356745</ele>
        <time>2025-02-27T13:43:49.271Z</time>
      </trkpt>
      <trkpt lat="44.004962" lon="2.705798">
        <ele>296.559177</ele>
        <time>2025-02-27T13:44:07.073Z</time>
      </trkpt>
      <trkpt lat="44.004829" lon="2.705110">
        <ele>299.431361</ele>
        <time>2025-02-27T13:44:21.835Z</time>
      </trkpt>
      <trkpt lat="44.004798" lon="2.704687">
        <ele>301.120252</ele>
        <time>2025-02-27T13:44:31.999Z</time>
      </trkpt>
      <trkpt lat="44.004817" lon="2.704512">
        <ele>301.823241</ele>
        <time>2025-02-27T13:44:36.577Z</time>
      </trkpt>
      <trkpt lat="44.004877" lon="2.704287">
        <ele>302.776403</ele>
        <time>2025-02-27T13:44:43.143Z</time>
      </trkpt>
      <trkpt lat="44.005177" lon="2.703703">
        <ele>305.626943</ele>
        <time>2025-02-27T13:45:02.987Z</time>
      </trkpt>
      <trkpt lat="44.005297" lon="2.703475">
        <ele>306.749130</ele>
        <time>2025-02-27T13:45:10.960Z</time>
      </trkpt>
      <trkpt lat="44.005629" lon="2.702960">
        <ele>310.955454</ele>
        <time>2025-02-27T13:45:31.447Z</time>
      </trkpt>
      <trkpt lat="44.006360" lon="2.701914">
        <ele>321.388095</ele>
        <time>2025-02-27T13:46:31.150Z</time>
      </trkpt>
      <trkpt lat="44.006514" lon="2.701734">
        <ele>323.389006</ele>
        <time>2025-02-27T13:46:43.579Z</time>
      </trkpt>
      <trkpt lat="44.006798" lon="2.701499">
        <ele>326.924610</ele>
        <time>2025-02-27T13:47:04.187Z</time>
      </trkpt>
      <trkpt lat="44.006988" lon="2.701428">
        <ele>329.318298</ele>
        <time>2025-02-27T13:47:16.685Z</time>
      </trkpt>
      <trkpt lat="44.007275" lon="2.701425">
        <ele>332.810200</ele>
        <time>2025-02-27T13:47:35.213Z</time>
      </trkpt>
      <trkpt lat="44.007517" lon="2.701390">
        <ele>335.770395</ele>
        <time>2025-02-27T13:47:51.490Z</time>
      </trkpt>
      <trkpt lat="44.007819" lon="2.701295">
        <ele>339.537568</ele>
        <time>2025-02-27T13:48:12.828Z</time>
      </trkpt>
      <trkpt lat="44.008116" lon="2.701156">
        <ele>343.350266</ele>
        <time>2025-02-27T13:48:33.572Z</time>
      </trkpt>
      <trkpt lat="44.008356" lon="2.700939">
        <ele>346.833378</ele>
        <time>2025-02-27T13:48:52.058Z</time>
      </trkpt>
      <trkpt lat="44.008691" lon="2.700341">
        <ele>350.028182</ele>
        <time>2025-02-27T13:49:22.274Z</time>
      </trkpt>
      <trkpt lat="44.008776" lon="2.700074">
        <ele>351.124209</ele>
        <time>2025-02-27T13:49:31.637Z</time>
      </trkpt>
      <trkpt lat="44.008774" lon="2.699959">
        <ele>351.556010</ele>
        <time>2025-02-27T13:49:34.919Z</time>
      </trkpt>
      <trkpt lat="44.008747" lon="2.699878">
        <ele>351.891126</ele>
        <time>2025-02-27T13:49:37.224Z</time>
      </trkpt>
      <trkpt lat="44.008681" lon="2.699819">
        <ele>352.300635</ele>
        <time>2025-02-27T13:49:39.908Z</time>
      </trkpt>
      <trkpt lat="44.008559" lon="2.699797">
        <ele>352.942688</ele>
        <time>2025-02-27T13:49:43.617Z</time>
      </trkpt>
      <trkpt lat="44.008158" lon="2.700150">
        <ele>355.419727</ele>
        <time>2025-02-27T13:49:54.317Z</time>
      </trkpt>
      <trkpt lat="44.008004" lon="2.700245">
        <ele>356.299015</ele>
        <time>2025-02-27T13:49:56.634Z</time>
      </trkpt>
      <trkpt lat="44.007853" lon="2.700289">
        <ele>356.907049</ele>
        <time>2025-02-27T13:49:58.569Z</time>
      </trkpt>
      <trkpt lat="44.007566" lon="2.700290">
        <ele>357.317463</ele>
        <time>2025-02-27T13:50:02.105Z</time>
      </trkpt>
      <trkpt lat="44.006999" lon="2.700232">
        <ele>358.130472</ele>
        <time>2025-02-27T13:50:09.970Z</time>
      </trkpt>
      <trkpt lat="44.006856" lon="2.700152">
        <ele>358.350897</ele>
        <time>2025-02-27T13:50:12.389Z</time>
      </trkpt>
      <trkpt lat="44.006503" lon="2.699733">
        <ele>359.014633</ele>
        <time>2025-02-27T13:50:22.561Z</time>
      </trkpt>
      <trkpt lat="44.006239" lon="2.699561">
        <ele>359.532132</ele>
        <time>2025-02-27T13:50:31.890Z</time>
      </trkpt>
      <trkpt lat="44.005945" lon="2.699372">
        <ele>361.731587</ele>
        <time>2025-02-27T13:50:44.224Z</time>
      </trkpt>
      <trkpt lat="44.005829" lon="2.699231">
        <ele>362.777865</ele>
        <time>2025-02-27T13:50:50.768Z</time>
      </trkpt>
      <trkpt lat="44.005763" lon="2.699014">
        <ele>363.928578</ele>
        <time>2025-02-27T13:50:57.890Z</time>
      </trkpt>
      <trkpt lat="44.005670" lon="2.697999">
        <ele>368.926020</ele>
        <time>2025-02-27T13:51:28.734Z</time>
      </trkpt>
      <trkpt lat="44.005626" lon="2.697741">
        <ele>370.221061</ele>
        <time>2025-02-27T13:51:38.242Z</time>
      </trkpt>
      <trkpt lat="44.005601" lon="2.697661">
        <ele>370.647076</ele>
        <time>2025-02-27T13:51:41.627Z</time>
      </trkpt>
      <trkpt lat="44.005331" lon="2.697011">
        <ele>373.944098</ele>
        <time>2025-02-27T13:52:10.430Z</time>
      </trkpt>
      <trkpt lat="44.004998" lon="2.696233">
        <ele>377.760362</ele>
        <time>2025-02-27T13:52:40.962Z</time>
      </trkpt>
      <trkpt lat="44.004944" lon="2.696020">
        <ele>378.712371</ele>
        <time>2025-02-27T13:52:47.262Z</time>
      </trkpt>
      <trkpt lat="44.005033" lon="2.695868">
        <ele>379.538561</ele>
        <time>2025-02-27T13:52:52.060Z</time>
      </trkpt>
      <trkpt lat="44.005123" lon="2.695785">
        <ele>380.171499</ele>
        <time>2025-02-27T13:52:55.018Z</time>
      </trkpt>
      <trkpt lat="44.005190" lon="2.695753">
        <ele>380.586677</ele>
        <time>2025-02-27T13:52:57.010Z</time>
      </trkpt>
      <trkpt lat="44.005217" lon="2.695740">
        <ele>380.754132</ele>
        <time>2025-02-27T13:52:57.569Z</time>
      </trkpt>
      <trkpt lat="44.005240" lon="2.695732">
        <ele>380.893078</ele>
        <time>2025-02-27T13:52:57.989Z</time>
      </trkpt>
      <trkpt lat="44.005408" lon="2.695670">
        <ele>381.911741</ele>
        <time>2025-02-27T13:53:01.332Z</time>
      </trkpt>
      <trkpt lat="44.005461" lon="2.695663">
        <ele>382.113306</ele>
        <time>2025-02-27T13:53:02.393Z</time>
      </trkpt>
      <trkpt lat="44.005411" lon="2.695452">
        <ele>381.448333</ele>
        <time>2025-02-27T13:53:04.754Z</time>
      </trkpt>
      <trkpt lat="44.005383" lon="2.695353">
        <ele>381.129912</ele>
        <time>2025-02-27T13:53:05.654Z</time>
      </trkpt>
      <trkpt lat="44.005333" lon="2.695086">
        <ele>380.304065</ele>
        <time>2025-02-27T13:53:07.884Z</time>
      </trkpt>
      <trkpt lat="44.005366" lon="2.695055">
        <ele>380.138324</ele>
        <time>2025-02-27T13:53:08.419Z</time>
      </trkpt>
      <trkpt lat="44.005369" lon="2.695001">
        <ele>379.976206</ele>
        <time>2025-02-27T13:53:08.823Z</time>
      </trkpt>
      <trkpt lat="44.005342" lon="2.694961">
        <ele>379.812009</ele>
        <time>2025-02-27T13:53:09.215Z</time>
      </trkpt>
      <trkpt lat="44.005292" lon="2.694976">
        <ele>379.599144</ele>
        <time>2025-02-27T13:53:09.754Z</time>
      </trkpt>
      <trkpt lat="44.005280" lon="2.695008">
        <ele>379.491123</ele>
        <time>2025-02-27T13:53:10.087Z</time>
      </trkpt>
      <trkpt lat="44.005225" lon="2.694960">
        <ele>379.220880</ele>
        <time>2025-02-27T13:53:10.731Z</time>
      </trkpt>
      <trkpt lat="44.005155" lon="2.694726">
        <ele>378.462290</ele>
        <time>2025-02-27T13:53:12.575Z</time>
      </trkpt>
      <trkpt lat="44.005235" lon="2.693758">
        <ele>375.545726</ele>
        <time>2025-02-27T13:53:18.919Z</time>
      </trkpt>
      <trkpt lat="44.005227" lon="2.693520">
        <ele>374.832547</ele>
        <time>2025-02-27T13:53:20.409Z</time>
      </trkpt>
      <trkpt lat="44.005148" lon="2.693303">
        <ele>373.638076</ele>
        <time>2025-02-27T13:53:21.933Z</time>
      </trkpt>
      <trkpt lat="44.005077" lon="2.693238">
        <ele>372.994547</ele>
        <time>2025-02-27T13:53:22.685Z</time>
      </trkpt>
      <trkpt lat="44.004893" lon="2.693199">
        <ele>371.585580</ele>
        <time>2025-02-27T13:53:24.328Z</time>
      </trkpt>
      <trkpt lat="44.004716" lon="2.693241">
        <ele>370.226321</ele>
        <time>2025-02-27T13:53:25.905Z</time>
      </trkpt>
      <trkpt lat="44.004391" lon="2.693226">
        <ele>367.764729</ele>
        <time>2025-02-27T13:53:28.785Z</time>
      </trkpt>
      <trkpt lat="44.004090" lon="2.693121">
        <ele>365.415538</ele>
        <time>2025-02-27T13:53:31.542Z</time>
      </trkpt>
      <trkpt lat="44.003877" lon="2.692967">
        <ele>363.598130</ele>
        <time>2025-02-27T13:53:33.670Z</time>
      </trkpt>
      <trkpt lat="44.003698" lon="2.692756">
        <ele>361.821599</ele>
        <time>2025-02-27T13:53:35.759Z</time>
      </trkpt>
      <trkpt lat="44.003467" lon="2.692322">
        <ele>358.577910</ele>
        <time>2025-02-27T13:53:39.338Z</time>
      </trkpt>
      <trkpt lat="44.003368" lon="2.692236">
        <ele>357.570825</ele>
        <time>2025-02-27T13:53:40.427Z</time>
      </trkpt>
      <trkpt lat="44.003154" lon="2.692135">
        <ele>355.621177</ele>
        <time>2025-02-27T13:53:42.549Z</time>
      </trkpt>
      <trkpt lat="44.002143" lon="2.691905">
        <ele>346.783342</ele>
        <time>2025-02-27T13:53:51.466Z</time>
      </trkpt>
      <trkpt lat="44.001733" lon="2.691777">
        <ele>342.821631</ele>
        <time>2025-02-27T13:53:54.994Z</time>
      </trkpt>
      <trkpt lat="44.001627" lon="2.691707">
        <ele>341.666284</ele>
        <time>2025-02-27T13:53:55.981Z</time>
      </trkpt>
      <trkpt lat="44.001471" lon="2.691480">
        <ele>339.442964</ele>
        <time>2025-02-27T13:53:57.885Z</time>
      </trkpt>
      <trkpt lat="44.001356" lon="2.691238">
        <ele>337.388938</ele>
        <time>2025-02-27T13:53:59.641Z</time>
      </trkpt>
      <trkpt lat="44.001224" lon="2.690520">
        <ele>332.140702</ele>
        <time>2025-02-27T13:54:04.209Z</time>
      </trkpt>
      <trkpt lat="44.001172" lon="2.689870">
        <ele>327.733706</ele>
        <time>2025-02-27T13:54:08.450Z</time>
      </trkpt>
      <trkpt lat="44.001230" lon="2.689174">
        <ele>326.205679</ele>
        <time>2025-02-27T13:54:13.336Z</time>
      </trkpt>
      <trkpt lat="44.001284" lon="2.688825">
        <ele>325.427152</ele>
        <time>2025-02-27T13:54:15.963Z</time>
      </trkpt>
      <trkpt lat="44.001337" lon="2.688624">
        <ele>324.960278</ele>
        <time>2025-02-27T13:54:17.577Z</time>
      </trkpt>
      <trkpt lat="44.001632" lon="2.688006">
        <ele>323.342754</ele>
        <time>2025-02-27T13:54:23.379Z</time>
      </trkpt>
      <trkpt lat="44.001814" lon="2.687707">
        <ele>322.488549</ele>
        <time>2025-02-27T13:54:26.674Z</time>
      </trkpt>
      <trkpt lat="44.001959" lon="2.687521">
        <ele>322.683292</ele>
        <time>2025-02-27T13:54:29.154Z</time>
      </trkpt>
      <trkpt lat="44.002155" lon="2.687349">
        <ele>323.117396</ele>
        <time>2025-02-27T13:54:32.447Z</time>
      </trkpt>
      <trkpt lat="44.002699" lon="2.686993">
        <ele>324.243486</ele>
        <time>2025-02-27T13:54:45.554Z</time>
      </trkpt>
      <trkpt lat="44.002852" lon="2.686836">
        <ele>324.599643</ele>
        <time>2025-02-27T13:54:50.990Z</time>
      </trkpt>
      <trkpt lat="44.002910" lon="2.686678">
        <ele>324.838614</ele>
        <time>2025-02-27T13:54:54.922Z</time>
      </trkpt>
      <trkpt lat="44.002967" lon="2.686081">
        <ele>325.649934</ele>
        <time>2025-02-27T13:55:08.708Z</time>
      </trkpt>
      <trkpt lat="44.003070" lon="2.685814">
        <ele>325.575695</ele>
        <time>2025-02-27T13:55:15.116Z</time>
      </trkpt>
      <trkpt lat="44.003112" lon="2.685628">
        <ele>325.428202</ele>
        <time>2025-02-27T13:55:18.993Z</time>
      </trkpt>
      <trkpt lat="44.003097" lon="2.685495">
        <ele>325.326348</ele>
        <time>2025-02-27T13:55:21.536Z</time>
      </trkpt>
      <trkpt lat="44.003036" lon="2.685382">
        <ele>325.219457</ele>
        <time>2025-02-27T13:55:24.031Z</time>
      </trkpt>
      <trkpt lat="44.002956" lon="2.685317">
        <ele>325.121995</ele>
        <time>2025-02-27T13:55:26.181Z</time>
      </trkpt>
      <trkpt lat="44.002799" lon="2.685303">
        <ele>324.956521</ele>
        <time>2025-02-27T13:55:29.289Z</time>
      </trkpt>
      <trkpt lat="44.002055" lon="2.685474">
        <ele>324.163348</ele>
        <time>2025-02-27T13:55:37.898Z</time>
      </trkpt>
      <trkpt lat="44.000831" lon="2.686054">
        <ele>314.275122</ele>
        <time>2025-02-27T13:55:49.338Z</time>
      </trkpt>
      <trkpt lat="44.000363" lon="2.686357">
        <ele>309.339103</ele>
        <time>2025-02-27T13:55:53.697Z</time>
      </trkpt>
      <trkpt lat="44.000132" lon="2.686559">
        <ele>306.729894</ele>
        <time>2025-02-27T13:55:55.986Z</time>
      </trkpt>
      <trkpt lat="43.999707" lon="2.687022">
        <ele>302.312456</ele>
        <time>2025-02-27T13:56:00.541Z</time>
      </trkpt>
      <trkpt lat="43.999554" lon="2.687068">
        <ele>301.034747</ele>
        <time>2025-02-27T13:56:01.881Z</time>
      </trkpt>
      <trkpt lat="43.999452" lon="2.687028">
        <ele>300.169697</ele>
        <time>2025-02-27T13:56:02.791Z</time>
      </trkpt>
      <trkpt lat="43.999327" lon="2.686828">
        <ele>298.614063</ele>
        <time>2025-02-27T13:56:04.443Z</time>
      </trkpt>
      <trkpt lat="43.999137" lon="2.686182">
        <ele>294.516236</ele>
        <time>2025-02-27T13:56:09.006Z</time>
      </trkpt>
      <trkpt lat="43.999081" lon="2.685874">
        <ele>292.650919</ele>
        <time>2025-02-27T13:56:11.285Z</time>
      </trkpt>
      <trkpt lat="43.999064" lon="2.684608">
        <ele>290.236942</ele>
        <time>2025-02-27T13:56:21.995Z</time>
      </trkpt>
      <trkpt lat="43.998969" lon="2.683760">
        <ele>288.938690</ele>
        <time>2025-02-27T13:56:29.076Z</time>
      </trkpt>
      <trkpt lat="43.998947" lon="2.683287">
        <ele>288.221678</ele>
        <time>2025-02-27T13:56:32.704Z</time>
      </trkpt>
      <trkpt lat="43.998905" lon="2.682922">
        <ele>287.344860</ele>
        <time>2025-02-27T13:56:35.459Z</time>
      </trkpt>
      <trkpt lat="43.998701" lon="2.682010">
        <ele>285.041451</ele>
        <time>2025-02-27T13:56:42.490Z</time>
      </trkpt>
      <trkpt lat="43.998656" lon="2.681672">
        <ele>284.212430</ele>
        <time>2025-02-27T13:56:44.972Z</time>
      </trkpt>
      <trkpt lat="43.998637" lon="2.680931">
        <ele>282.424176</ele>
        <time>2025-02-27T13:56:50.211Z</time>
      </trkpt>
      <trkpt lat="43.998586" lon="2.680698">
        <ele>281.724784</ele>
        <time>2025-02-27T13:56:51.899Z</time>
      </trkpt>
      <trkpt lat="43.998281" lon="2.679785">
        <ele>278.472771</ele>
        <time>2025-02-27T13:56:58.753Z</time>
      </trkpt>
      <trkpt lat="43.998224" lon="2.679519">
        <ele>277.576127</ele>
        <time>2025-02-27T13:57:00.645Z</time>
      </trkpt>
      <trkpt lat="43.998164" lon="2.679197">
        <ele>276.501556</ele>
        <time>2025-02-27T13:57:02.907Z</time>
      </trkpt>
      <trkpt lat="43.998143" lon="2.678851">
        <ele>275.379811</ele>
        <time>2025-02-27T13:57:05.302Z</time>
      </trkpt>
      <trkpt lat="43.997872" lon="2.676972">
        <ele>270.710696</ele>
        <time>2025-02-27T13:57:18.832Z</time>
      </trkpt>
      <trkpt lat="43.997631" lon="2.676043">
        <ele>268.517635</ele>
        <time>2025-02-27T13:57:26.336Z</time>
      </trkpt>
      <trkpt lat="43.997566" lon="2.675608">
        <ele>268.224226</ele>
        <time>2025-02-27T13:57:30.586Z</time>
      </trkpt>
      <trkpt lat="43.997570" lon="2.675296">
        <ele>268.018146</ele>
        <time>2025-02-27T13:57:33.906Z</time>
      </trkpt>
      <trkpt lat="43.997607" lon="2.675094">
        <ele>267.880488</ele>
        <time>2025-02-27T13:57:36.286Z</time>
      </trkpt>
      <trkpt lat="43.997706" lon="2.674902">
        <ele>267.724482</ele>
        <time>2025-02-27T13:57:38.968Z</time>
      </trkpt>
      <trkpt lat="43.997832" lon="2.674782">
        <ele>267.584266</ele>
        <time>2025-02-27T13:57:41.304Z</time>
      </trkpt>
      <trkpt lat="43.998031" lon="2.674730">
        <ele>267.398377</ele>
        <time>2025-02-27T13:57:44.266Z</time>
      </trkpt>
      <trkpt lat="43.998092" lon="2.674653">
        <ele>267.322735</ele>
        <time>2025-02-27T13:57:45.380Z</time>
      </trkpt>
      <trkpt lat="43.998099" lon="2.674538">
        <ele>267.246517</ele>
        <time>2025-02-27T13:57:46.469Z</time>
      </trkpt>
      <trkpt lat="43.998048" lon="2.674314">
        <ele>267.091355</ele>
        <time>2025-02-27T13:57:48.502Z</time>
      </trkpt>
      <trkpt lat="43.997947" lon="2.674088">
        <ele>266.915647</ele>
        <time>2025-02-27T13:57:50.621Z</time>
      </trkpt>
      <trkpt lat="43.997818" lon="2.673973">
        <ele>266.445592</ele>
        <time>2025-02-27T13:57:52.379Z</time>
      </trkpt>
      <trkpt lat="43.997391" lon="2.673846">
        <ele>264.643074</ele>
        <time>2025-02-27T13:57:56.978Z</time>
      </trkpt>
      <trkpt lat="43.997268" lon="2.673719">
        <ele>264.010602</ele>
        <time>2025-02-27T13:57:58.435Z</time>
      </trkpt>
      <trkpt lat="43.997213" lon="2.673612">
        <ele>263.620085</ele>
        <time>2025-02-27T13:57:59.317Z</time>
      </trkpt>
      <trkpt lat="43.997169" lon="2.673455">
        <ele>263.119739</ele>
        <time>2025-02-27T13:58:00.447Z</time>
      </trkpt>
      <trkpt lat="43.997193" lon="2.673306">
        <ele>262.666325</ele>
        <time>2025-02-27T13:58:01.463Z</time>
      </trkpt>
      <trkpt lat="43.997320" lon="2.673084">
        <ele>261.824052</ele>
        <time>2025-02-27T13:58:03.343Z</time>
      </trkpt>
      <trkpt lat="43.997361" lon="2.672929">
        <ele>261.333647</ele>
        <time>2025-02-27T13:58:04.451Z</time>
      </trkpt>
      <trkpt lat="43.997348" lon="2.672750">
        <ele>260.799402</ele>
        <time>2025-02-27T13:58:05.654Z</time>
      </trkpt>
      <trkpt lat="43.997297" lon="2.672626">
        <ele>260.375248</ele>
        <time>2025-02-27T13:58:06.622Z</time>
      </trkpt>
      <trkpt lat="43.996952" lon="2.672321">
        <ele>258.645699</ele>
        <time>2025-02-27T13:58:10.550Z</time>
      </trkpt>
      <trkpt lat="43.996106" lon="2.670952">
        <ele>252.990354</ele>
        <time>2025-02-27T13:58:22.806Z</time>
      </trkpt>
      <trkpt lat="43.995858" lon="2.670690">
        <ele>251.633509</ele>
        <time>2025-02-27T13:58:25.879Z</time>
      </trkpt>
      <trkpt lat="43.995761" lon="2.670687">
        <ele>251.499278</ele>
        <time>2025-02-27T13:58:26.847Z</time>
      </trkpt>
      <trkpt lat="43.994719" lon="2.666861">
        <ele>249.131247</ele>
        <time>2025-02-27T13:59:04.586Z</time>
      </trkpt>
      <trkpt lat="43.994509" lon="2.666228">
        <ele>249.006008</ele>
        <time>2025-02-27T13:59:12.825Z</time>
      </trkpt>
      <trkpt lat="43.994325" lon="2.665786">
        <ele>249.748065</ele>
        <time>2025-02-27T13:59:19.306Z</time>
      </trkpt>
      <trkpt lat="43.994129" lon="2.665452">
        <ele>250.515056</ele>
        <time>2025-02-27T13:59:25.225Z</time>
      </trkpt>
      <trkpt lat="43.993774" lon="2.664988">
        <ele>251.720369</ele>
        <time>2025-02-27T13:59:35.509Z</time>
      </trkpt>
      <trkpt lat="43.993506" lon="2.664738">
        <ele>252.518705</ele>
        <time>2025-02-27T13:59:43.443Z</time>
      </trkpt>
      <trkpt lat="43.993234" lon="2.664516">
        <ele>253.298903</ele>
        <time>2025-02-27T13:59:53.962Z</time>
      </trkpt>
      <trkpt lat="43.992820" lon="2.664312">
        <ele>256.201553</ele>
        <time>2025-02-27T14:00:11.898Z</time>
      </trkpt>
      <trkpt lat="43.992576" lon="2.664229">
        <ele>258.016152</ele>
        <time>2025-02-27T14:00:23.678Z</time>
      </trkpt>
      <trkpt lat="43.992282" lon="2.664193">
        <ele>260.148148</ele>
        <time>2025-02-27T14:00:39.477Z</time>
      </trkpt>
      <trkpt lat="43.992037" lon="2.664201">
        <ele>261.918447</ele>
        <time>2025-02-27T14:00:52.403Z</time>
      </trkpt>
      <trkpt lat="43.991499" lon="2.664300">
        <ele>265.838714</ele>
        <time>2025-02-27T14:01:18.125Z</time>
      </trkpt>
      <trkpt lat="43.991211" lon="2.664353">
        <ele>266.480242</ele>
        <time>2025-02-27T14:01:29.483Z</time>
      </trkpt>
      <trkpt lat="43.990802" lon="2.664497">
        <ele>266.576845</ele>
        <time>2025-02-27T14:01:40.511Z</time>
      </trkpt>
      <trkpt lat="43.990516" lon="2.664550">
        <ele>266.642908</ele>
        <time>2025-02-27T14:01:45.208Z</time>
      </trkpt>
      <trkpt lat="43.990252" lon="2.664536">
        <ele>266.703398</ele>
        <time>2025-02-27T14:01:48.215Z</time>
      </trkpt>
      <trkpt lat="43.990037" lon="2.664464">
        <ele>266.754034</ele>
        <time>2025-02-27T14:01:50.404Z</time>
      </trkpt>
      <trkpt lat="43.989565" lon="2.664211">
        <ele>266.244676</ele>
        <time>2025-02-27T14:01:55.277Z</time>
      </trkpt>
      <trkpt lat="43.989108" lon="2.663844">
        <ele>263.401848</ele>
        <time>2025-02-27T14:02:00.336Z</time>
      </trkpt>
      <trkpt lat="43.988850" lon="2.663565">
        <ele>261.641140</ele>
        <time>2025-02-27T14:02:03.430Z</time>
      </trkpt>
      <trkpt lat="43.988588" lon="2.663224">
        <ele>259.707820</ele>
        <time>2025-02-27T14:02:06.790Z</time>
      </trkpt>
      <trkpt lat="43.988358" lon="2.662841">
        <ele>257.774521</ele>
        <time>2025-02-27T14:02:09.947Z</time>
      </trkpt>
      <trkpt lat="43.988049" lon="2.661967">
        <ele>256.592000</ele>
        <time>2025-02-27T14:02:16.342Z</time>
      </trkpt>
      <trkpt lat="43.987999" lon="2.661792">
        <ele>256.461479</ele>
        <time>2025-02-27T14:02:17.665Z</time>
      </trkpt>
      <trkpt lat="43.987958" lon="2.661525">
        <ele>256.272233</ele>
        <time>2025-02-27T14:02:19.689Z</time>
      </trkpt>
      <trkpt lat="43.987587" lon="2.659509">
        <ele>257.032207</ele>
        <time>2025-02-27T14:03:04.145Z</time>
      </trkpt>
      <trkpt lat="43.987541" lon="2.659098">
        <ele>257.813267</ele>
        <time>2025-02-27T14:03:14.816Z</time>
      </trkpt>
      <trkpt lat="43.987526" lon="2.658930">
        <ele>258.131158</ele>
        <time>2025-02-27T14:03:18.951Z</time>
      </trkpt>
      <trkpt lat="43.987541" lon="2.658753">
        <ele>258.465828</ele>
        <time>2025-02-27T14:03:22.812Z</time>
      </trkpt>
      <trkpt lat="43.987605" lon="2.658568">
        <ele>258.851292</ele>
        <time>2025-02-27T14:03:26.894Z</time>
      </trkpt>
      <trkpt lat="43.987724" lon="2.658350">
        <ele>259.365137</ele>
        <time>2025-02-27T14:03:31.337Z</time>
      </trkpt>
      <trkpt lat="43.987946" lon="2.658035">
        <ele>260.063256</ele>
        <time>2025-02-27T14:03:35.750Z</time>
      </trkpt>
      <trkpt lat="43.988192" lon="2.657214">
        <ele>258.850288</ele>
        <time>2025-02-27T14:03:42.144Z</time>
      </trkpt>
      <trkpt lat="43.988383" lon="2.656590">
        <ele>257.925414</ele>
        <time>2025-02-27T14:03:46.901Z</time>
      </trkpt>
      <trkpt lat="43.988418" lon="2.656432">
        <ele>257.699939</ele>
        <time>2025-02-27T14:03:48.161Z</time>
      </trkpt>
      <trkpt lat="43.988440" lon="2.656068">
        <ele>257.201741</ele>
        <time>2025-02-27T14:03:51.051Z</time>
      </trkpt>
      <trkpt lat="43.988495" lon="2.655836">
        <ele>256.868588</ele>
        <time>2025-02-27T14:03:53.129Z</time>
      </trkpt>
      <trkpt lat="43.988735" lon="2.655220">
        <ele>257.654909</ele>
        <time>2025-02-27T14:04:02.449Z</time>
      </trkpt>
      <trkpt lat="43.988948" lon="2.654495">
        <ele>258.926366</ele>
        <time>2025-02-27T14:04:21.090Z</time>
      </trkpt>
      <trkpt lat="43.989236" lon="2.653262">
        <ele>260.732980</ele>
        <time>2025-02-27T14:04:44.947Z</time>
      </trkpt>
      <trkpt lat="43.989367" lon="2.652628">
        <ele>260.594118</ele>
        <time>2025-02-27T14:04:54.470Z</time>
      </trkpt>
      <trkpt lat="43.989578" lon="2.651606">
        <ele>260.370290</ele>
        <time>2025-02-27T14:05:03.239Z</time>
      </trkpt>
      <trkpt lat="43.989686" lon="2.650826">
        <ele>260.153747</ele>
        <time>2025-02-27T14:05:09.845Z</time>
      </trkpt>
      <trkpt lat="43.989806" lon="2.649697">
        <ele>259.600323</ele>
        <time>2025-02-27T14:05:19.690Z</time>
      </trkpt>
      <trkpt lat="43.989817" lon="2.649246">
        <ele>259.381496</ele>
        <time>2025-02-27T14:05:23.805Z</time>
      </trkpt>
      <trkpt lat="43.989820" lon="2.649144">
        <ele>259.331993</ele>
        <time>2025-02-27T14:05:24.765Z</time>
      </trkpt>
      <trkpt lat="43.989786" lon="2.648517">
        <ele>259.031484</ele>
        <time>2025-02-27T14:05:31.321Z</time>
      </trkpt>
      <trkpt lat="43.989716" lon="2.648150">
        <ele>259.375661</ele>
        <time>2025-02-27T14:05:35.931Z</time>
      </trkpt>
      <trkpt lat="43.988692" lon="2.644530">
        <ele>262.895542</ele>
        <time>2025-02-27T14:06:35.276Z</time>
      </trkpt>
      <trkpt lat="43.988568" lon="2.643908">
        <ele>263.478386</ele>
        <time>2025-02-27T14:06:44.918Z</time>
      </trkpt>
      <trkpt lat="43.988476" lon="2.643236">
        <ele>262.717137</ele>
        <time>2025-02-27T14:06:51.908Z</time>
      </trkpt>
      <trkpt lat="43.988471" lon="2.642470">
        <ele>261.654680</ele>
        <time>2025-02-27T14:06:58.034Z</time>
      </trkpt>
      <trkpt lat="43.988536" lon="2.641829">
        <ele>260.756851</ele>
        <time>2025-02-27T14:07:02.655Z</time>
      </trkpt>
      <trkpt lat="43.988704" lon="2.640687">
        <ele>260.384583</ele>
        <time>2025-02-27T14:07:10.928Z</time>
      </trkpt>
      <trkpt lat="43.988736" lon="2.639955">
        <ele>260.707046</ele>
        <time>2025-02-27T14:07:19.346Z</time>
      </trkpt>
      <trkpt lat="43.988736" lon="2.639837">
        <ele>260.758933</ele>
        <time>2025-02-27T14:07:20.927Z</time>
      </trkpt>
      <trkpt lat="43.988772" lon="2.638270">
        <ele>262.797082</ele>
        <time>2025-02-27T14:07:56.176Z</time>
      </trkpt>
      <trkpt lat="43.988951" lon="2.636544">
        <ele>267.480920</ele>
        <time>2025-02-27T14:08:35.973Z</time>
      </trkpt>
      <trkpt lat="43.988994" lon="2.634879">
        <ele>269.877540</ele>
        <time>2025-02-27T14:09:00.917Z</time>
      </trkpt>
      <trkpt lat="43.989193" lon="2.632798">
        <ele>271.530951</ele>
        <time>2025-02-27T14:09:33.270Z</time>
      </trkpt>
      <trkpt lat="43.989366" lon="2.630645">
        <ele>271.618923</ele>
        <time>2025-02-27T14:09:53.872Z</time>
      </trkpt>
      <trkpt lat="43.989504" lon="2.629761">
        <ele>271.200007</ele>
        <time>2025-02-27T14:10:02.161Z</time>
      </trkpt>
      <trkpt lat="43.989683" lon="2.629176">
        <ele>270.905605</ele>
        <time>2025-02-27T14:10:08.264Z</time>
      </trkpt>
      <trkpt lat="43.989902" lon="2.628658">
        <ele>269.849052</ele>
        <time>2025-02-27T14:10:13.935Z</time>
      </trkpt>
      <trkpt lat="43.990389" lon="2.627944">
        <ele>267.558637</ele>
        <time>2025-02-27T14:10:21.979Z</time>
      </trkpt>
      <trkpt lat="43.990877" lon="2.627435">
        <ele>265.584444</ele>
        <time>2025-02-27T14:10:27.767Z</time>
      </trkpt>
      <trkpt lat="43.991200" lon="2.627139">
        <ele>263.819722</ele>
        <time>2025-02-27T14:10:31.233Z</time>
      </trkpt>
      <trkpt lat="43.991373" lon="2.627106">
        <ele>262.820957</ele>
        <time>2025-02-27T14:10:32.777Z</time>
      </trkpt>
      <trkpt lat="43.991677" lon="2.627290">
        <ele>260.924501</ele>
        <time>2025-02-27T14:10:35.734Z</time>
      </trkpt>
      <trkpt lat="43.991909" lon="2.627368">
        <ele>259.559289</ele>
        <time>2025-02-27T14:10:37.885Z</time>
      </trkpt>
      <trkpt lat="43.992078" lon="2.627359">
        <ele>258.591969</ele>
        <time>2025-02-27T14:10:39.435Z</time>
      </trkpt>
      <trkpt lat="43.992244" lon="2.627308">
        <ele>257.619600</ele>
        <time>2025-02-27T14:10:41.021Z</time>
      </trkpt>
      <trkpt lat="43.992540" lon="2.627064">
        <ele>255.651271</ele>
        <time>2025-02-27T14:10:44.274Z</time>
      </trkpt>
      <trkpt lat="43.993020" lon="2.626504">
        <ele>254.342126</ele>
        <time>2025-02-27T14:10:50.594Z</time>
      </trkpt>
      <trkpt lat="43.993756" lon="2.625600">
        <ele>253.554400</ele>
        <time>2025-02-27T14:11:03.704Z</time>
      </trkpt>
      <trkpt lat="43.995010" lon="2.624119">
        <ele>255.664060</ele>
        <time>2025-02-27T14:11:42.182Z</time>
      </trkpt>
      <trkpt lat="43.995930" lon="2.623083">
        <ele>255.806335</ele>
        <time>2025-02-27T14:12:07.693Z</time>
      </trkpt>
      <trkpt lat="43.996558" lon="2.622511">
        <ele>254.922408</ele>
        <time>2025-02-27T14:12:17.107Z</time>
      </trkpt>
      <trkpt lat="43.996883" lon="2.622179">
        <ele>254.328420</ele>
        <time>2025-02-27T14:12:20.887Z</time>
      </trkpt>
      <trkpt lat="43.997137" lon="2.621865">
        <ele>252.682996</ele>
        <time>2025-02-27T14:12:23.895Z</time>
      </trkpt>
      <trkpt lat="43.997938" lon="2.622820">
        <ele>247.574766</ele>
        <time>2025-02-27T14:12:33.533Z</time>
      </trkpt>
      <trkpt lat="43.997998" lon="2.622933">
        <ele>247.085688</ele>
        <time>2025-02-27T14:12:34.503Z</time>
      </trkpt>
      <trkpt lat="43.997897" lon="2.623089">
        <ele>246.354840</ele>
        <time>2025-02-27T14:12:35.977Z</time>
      </trkpt>
      <trkpt lat="43.997848" lon="2.623164">
        <ele>246.002034</ele>
        <time>2025-02-27T14:12:36.723Z</time>
      </trkpt>
      <trkpt lat="43.997802" lon="2.623285">
        <ele>245.790131</ele>
        <time>2025-02-27T14:12:37.876Z</time>
      </trkpt>
      <trkpt lat="43.997745" lon="2.623726">
        <ele>245.858015</ele>
        <time>2025-02-27T14:12:43.879Z</time>
      </trkpt>
      <trkpt lat="43.997610" lon="2.624510">
        <ele>245.980149</ele>
        <time>2025-02-27T14:12:59.193Z</time>
      </trkpt>
      <trkpt lat="43.997571" lon="2.624881">
        <ele>246.036954</ele>
        <time>2025-02-27T14:13:05.248Z</time>
      </trkpt>
      <trkpt lat="43.997498" lon="2.625167">
        <ele>246.082931</ele>
        <time>2025-02-27T14:13:09.238Z</time>
      </trkpt>
      <trkpt lat="43.997571" lon="2.624881">
        <ele>246.128909</ele>
        <time>2025-02-27T14:13:11.957Z</time>
      </trkpt>
      <trkpt lat="43.997610" lon="2.624510">
        <ele>246.282927</ele>
        <time>2025-02-27T14:13:14.938Z</time>
      </trkpt>
      <trkpt lat="43.997745" lon="2.623726">
        <ele>246.832003</ele>
        <time>2025-02-27T14:13:20.926Z</time>
      </trkpt>
      <trkpt lat="43.997802" lon="2.623285">
        <ele>247.137183</ele>
        <time>2025-02-27T14:13:24.887Z</time>
      </trkpt>
      <trkpt lat="43.997848" lon="2.623164">
        <ele>247.230398</ele>
        <time>2025-02-27T14:13:26.908Z</time>
      </trkpt>
      <trkpt lat="43.997897" lon="2.623089">
        <ele>247.299404</ele>
        <time>2025-02-27T14:13:28.835Z</time>
      </trkpt>
      <trkpt lat="43.997998" lon="2.622933">
        <ele>247.442354</ele>
        <time>2025-02-27T14:13:33.496Z</time>
      </trkpt>
      <trkpt lat="43.997938" lon="2.622820">
        <ele>247.538014</ele>
        <time>2025-02-27T14:13:36.814Z</time>
      </trkpt>
      <trkpt lat="43.997137" lon="2.621865">
        <ele>251.113229</ele>
        <time>2025-02-27T14:14:15.697Z</time>
      </trkpt>
      <trkpt lat="43.997745" lon="2.620767">
        <ele>255.652086</ele>
        <time>2025-02-27T14:14:50.861Z</time>
      </trkpt>
      <trkpt lat="43.998379" lon="2.619471">
        <ele>257.435689</ele>
        <time>2025-02-27T14:15:12.088Z</time>
      </trkpt>
      <trkpt lat="43.998868" lon="2.618383">
        <ele>258.678539</ele>
        <time>2025-02-27T14:15:27.857Z</time>
      </trkpt>
      <trkpt lat="43.999815" lon="2.615846">
        <ele>262.254487</ele>
        <time>2025-02-27T14:16:10.213Z</time>
      </trkpt>
      <trkpt lat="44.000208" lon="2.614429">
        <ele>265.520239</ele>
        <time>2025-02-27T14:16:47.341Z</time>
      </trkpt>
      <trkpt lat="44.000924" lon="2.612932">
        <ele>265.090434</ele>
        <time>2025-02-27T14:17:10.067Z</time>
      </trkpt>
      <trkpt lat="44.001836" lon="2.611439">
        <ele>263.130160</ele>
        <time>2025-02-27T14:17:23.643Z</time>
      </trkpt>
      <trkpt lat="44.002593" lon="2.610272">
        <ele>261.382854</ele>
        <time>2025-02-27T14:17:38.047Z</time>
      </trkpt>
      <trkpt lat="44.002809" lon="2.609996">
        <ele>261.278526</ele>
        <time>2025-02-27T14:17:45.932Z</time>
      </trkpt>
      <trkpt lat="44.003245" lon="2.609543">
        <ele>261.216729</ele>
        <time>2025-02-27T14:17:58.904Z</time>
      </trkpt>
      <trkpt lat="44.003382" lon="2.609345">
        <ele>261.194293</ele>
        <time>2025-02-27T14:18:03.176Z</time>
      </trkpt>
      <trkpt lat="44.003553" lon="2.609213">
        <ele>261.172088</ele>
        <time>2025-02-27T14:18:06.952Z</time>
      </trkpt>
      <trkpt lat="44.004117" lon="2.608996">
        <ele>261.105649</ele>
        <time>2025-02-27T14:18:14.306Z</time>
      </trkpt>
      <trkpt lat="44.004943" lon="2.608820">
        <ele>256.649331</ele>
        <time>2025-02-27T14:18:21.786Z</time>
      </trkpt>
      <trkpt lat="44.005112" lon="2.608822">
        <ele>255.712778</ele>
        <time>2025-02-27T14:18:23.292Z</time>
      </trkpt>
      <trkpt lat="44.005517" lon="2.608945">
        <ele>253.415532</ele>
        <time>2025-02-27T14:18:27.004Z</time>
      </trkpt>
      <trkpt lat="44.006378" lon="2.609162">
        <ele>251.261643</ele>
        <time>2025-02-27T14:18:35.453Z</time>
      </trkpt>
      <trkpt lat="44.006588" lon="2.609184">
        <ele>251.319300</ele>
        <time>2025-02-27T14:18:38.965Z</time>
      </trkpt>
      <trkpt lat="44.006957" lon="2.609084">
        <ele>251.422227</ele>
        <time>2025-02-27T14:18:48.270Z</time>
      </trkpt>
      <trkpt lat="44.007371" lon="2.608867">
        <ele>251.543361</ele>
        <time>2025-02-27T14:18:59.799Z</time>
      </trkpt>
      <trkpt lat="44.007599" lon="2.608630">
        <ele>251.621301</ele>
        <time>2025-02-27T14:19:07.266Z</time>
      </trkpt>
      <trkpt lat="44.007754" lon="2.608294">
        <ele>251.663400</ele>
        <time>2025-02-27T14:19:14.543Z</time>
      </trkpt>
      <trkpt lat="44.007953" lon="2.607759">
        <ele>251.722458</ele>
        <time>2025-02-27T14:19:23.766Z</time>
      </trkpt>
      <trkpt lat="44.008061" lon="2.607299">
        <ele>251.769904</ele>
        <time>2025-02-27T14:19:28.264Z</time>
      </trkpt>
      <trkpt lat="44.008109" lon="2.606911">
        <ele>251.808506</ele>
        <time>2025-02-27T14:19:31.349Z</time>
      </trkpt>
      <trkpt lat="44.008099" lon="2.606305">
        <ele>251.867941</ele>
        <time>2025-02-27T14:19:36.131Z</time>
      </trkpt>
      <trkpt lat="44.008041" lon="2.605874">
        <ele>252.439238</ele>
        <time>2025-02-27T14:19:40.027Z</time>
      </trkpt>
      <trkpt lat="44.007971" lon="2.605638">
        <ele>252.807413</ele>
        <time>2025-02-27T14:19:42.739Z</time>
      </trkpt>
      <trkpt lat="44.007881" lon="2.605453">
        <ele>253.129529</ele>
        <time>2025-02-27T14:19:45.749Z</time>
      </trkpt>
      <trkpt lat="44.007777" lon="2.605316">
        <ele>253.416810</ele>
        <time>2025-02-27T14:19:48.673Z</time>
      </trkpt>
      <trkpt lat="44.007046" lon="2.604956">
        <ele>254.971860</ele>
        <time>2025-02-27T14:20:10.643Z</time>
      </trkpt>
      <trkpt lat="44.006923" lon="2.604865">
        <ele>255.251248</ele>
        <time>2025-02-27T14:20:15.576Z</time>
      </trkpt>
      <trkpt lat="44.006411" lon="2.604382">
        <ele>256.882796</ele>
        <time>2025-02-27T14:20:36.672Z</time>
      </trkpt>
      <trkpt lat="44.005464" lon="2.603565">
        <ele>259.980011</ele>
        <time>2025-02-27T14:21:00.935Z</time>
      </trkpt>
      <trkpt lat="44.005277" lon="2.603261">
        <ele>260.870107</ele>
        <time>2025-02-27T14:21:07.453Z</time>
      </trkpt>
      <trkpt lat="44.004941" lon="2.602389">
        <ele>263.440055</ele>
        <time>2025-02-27T14:21:27.925Z</time>
      </trkpt>
      <trkpt lat="44.004697" lon="2.601853">
        <ele>265.087981</ele>
        <time>2025-02-27T14:21:42.542Z</time>
      </trkpt>
      <trkpt lat="44.004595" lon="2.601429">
        <ele>266.249472</ele>
        <time>2025-02-27T14:21:53.389Z</time>
      </trkpt>
      <trkpt lat="44.004604" lon="2.601107">
        <ele>267.010770</ele>
        <time>2025-02-27T14:22:01.450Z</time>
      </trkpt>
      <trkpt lat="44.004506" lon="2.600654">
        <ele>267.413132</ele>
        <time>2025-02-27T14:22:11.919Z</time>
      </trkpt>
      <trkpt lat="44.004503" lon="2.600473">
        <ele>267.567127</ele>
        <time>2025-02-27T14:22:14.873Z</time>
      </trkpt>
      <trkpt lat="44.004675" lon="2.600241">
        <ele>267.850518</ele>
        <time>2025-02-27T14:22:19.055Z</time>
      </trkpt>
      <trkpt lat="44.004701" lon="2.599864">
        <ele>268.172656</ele>
        <time>2025-02-27T14:22:23.980Z</time>
      </trkpt>
      <trkpt lat="44.004663" lon="2.599324">
        <ele>268.634160</ele>
        <time>2025-02-27T14:22:29.960Z</time>
      </trkpt>
      <trkpt lat="44.004759" lon="2.599140">
        <ele>268.827503</ele>
        <time>2025-02-27T14:22:32.391Z</time>
      </trkpt>
      <trkpt lat="44.004815" lon="2.598892">
        <ele>269.048596</ele>
        <time>2025-02-27T14:22:35.091Z</time>
      </trkpt>
      <trkpt lat="44.005066" lon="2.597459">
        <ele>266.247993</ele>
        <time>2025-02-27T14:22:47.199Z</time>
      </trkpt>
      <trkpt lat="44.005421" lon="2.596416">
        <ele>263.848801</ele>
        <time>2025-02-27T14:22:55.114Z</time>
      </trkpt>
      <trkpt lat="44.006036" lon="2.595780">
        <ele>260.574683</ele>
        <time>2025-02-27T14:23:02.260Z</time>
      </trkpt>
      <trkpt lat="44.006368" lon="2.595421">
        <ele>258.778060</ele>
        <time>2025-02-27T14:23:06.225Z</time>
      </trkpt>
      <trkpt lat="44.006591" lon="2.595058">
        <ele>257.311341</ele>
        <time>2025-02-27T14:23:09.562Z</time>
      </trkpt>
      <trkpt lat="44.006689" lon="2.594809">
        <ele>256.439267</ele>
        <time>2025-02-27T14:23:11.688Z</time>
      </trkpt>
      <trkpt lat="44.006936" lon="2.593749">
        <ele>257.087614</ele>
        <time>2025-02-27T14:23:21.553Z</time>
      </trkpt>
      <trkpt lat="44.006955" lon="2.593398">
        <ele>257.318679</ele>
        <time>2025-02-27T14:23:26.175Z</time>
      </trkpt>
      <trkpt lat="44.006932" lon="2.593106">
        <ele>257.511508</ele>
        <time>2025-02-27T14:23:30.962Z</time>
      </trkpt>
      <trkpt lat="44.006882" lon="2.592921">
        <ele>257.641243</ele>
        <time>2025-02-27T14:23:34.682Z</time>
      </trkpt>
      <trkpt lat="44.006502" lon="2.592275">
        <ele>258.536043</ele>
        <time>2025-02-27T14:23:53.622Z</time>
      </trkpt>
      <trkpt lat="44.006452" lon="2.592127">
        <ele>258.854168</ele>
        <time>2025-02-27T14:23:57.792Z</time>
      </trkpt>
      <trkpt lat="44.006421" lon="2.591959">
        <ele>259.191608</ele>
        <time>2025-02-27T14:24:02.297Z</time>
      </trkpt>
      <trkpt lat="44.006427" lon="2.591472">
        <ele>260.139238</ele>
        <time>2025-02-27T14:24:14.700Z</time>
      </trkpt>
      <trkpt lat="44.006381" lon="2.590685">
        <ele>261.675447</ele>
        <time>2025-02-27T14:24:29.635Z</time>
      </trkpt>
      <trkpt lat="44.006309" lon="2.590158">
        <ele>262.719095</ele>
        <time>2025-02-27T14:24:36.019Z</time>
      </trkpt>
      <trkpt lat="44.006079" lon="2.589366">
        <ele>262.247855</ele>
        <time>2025-02-27T14:24:43.355Z</time>
      </trkpt>
      <trkpt lat="44.005954" lon="2.589037">
        <ele>261.944576</ele>
        <time>2025-02-27T14:24:46.286Z</time>
      </trkpt>
      <trkpt lat="44.005355" lon="2.587942">
        <ele>260.812774</ele>
        <time>2025-02-27T14:24:57.584Z</time>
      </trkpt>
      <trkpt lat="44.005136" lon="2.587012">
        <ele>259.496550</ele>
        <time>2025-02-27T14:25:06.839Z</time>
      </trkpt>
      <trkpt lat="44.004843" lon="2.585982">
        <ele>258.006737</ele>
        <time>2025-02-27T14:25:15.701Z</time>
      </trkpt>
      <trkpt lat="44.004793" lon="2.585697">
        <ele>257.612159</ele>
        <time>2025-02-27T14:25:17.823Z</time>
      </trkpt>
      <trkpt lat="44.004777" lon="2.584788">
        <ele>255.759650</ele>
        <time>2025-02-27T14:25:24.246Z</time>
      </trkpt>
      <trkpt lat="44.004724" lon="2.584352">
        <ele>254.820386</ele>
        <time>2025-02-27T14:25:27.401Z</time>
      </trkpt>
      <trkpt lat="44.004675" lon="2.584180">
        <ele>254.427418</ele>
        <time>2025-02-27T14:25:28.735Z</time>
      </trkpt>
      <trkpt lat="44.004559" lon="2.583947">
        <ele>253.825498</ele>
        <time>2025-02-27T14:25:30.752Z</time>
      </trkpt>
      <trkpt lat="44.004015" lon="2.583051">
        <ele>251.600712</ele>
        <time>2025-02-27T14:25:39.938Z</time>
      </trkpt>
      <trkpt lat="44.003774" lon="2.582662">
        <ele>250.859737</ele>
        <time>2025-02-27T14:25:44.883Z</time>
      </trkpt>
      <trkpt lat="44.003363" lon="2.582085">
        <ele>249.687731</ele>
        <time>2025-02-27T14:25:51.687Z</time>
      </trkpt>
      <trkpt lat="44.003238" lon="2.581865">
        <ele>249.283097</ele>
        <time>2025-02-27T14:25:53.800Z</time>
      </trkpt>
      <trkpt lat="44.002967" lon="2.580784">
        <ele>247.221869</ele>
        <time>2025-02-27T14:26:02.120Z</time>
      </trkpt>
      <trkpt lat="44.002824" lon="2.580385">
        <ele>246.293794</ele>
        <time>2025-02-27T14:26:05.282Z</time>
      </trkpt>
      <trkpt lat="44.002697" lon="2.580106">
        <ele>245.606408</ele>
        <time>2025-02-27T14:26:07.547Z</time>
      </trkpt>
      <trkpt lat="44.002467" lon="2.579787">
        <ele>244.666083</ele>
        <time>2025-02-27T14:26:10.731Z</time>
      </trkpt>
      <trkpt lat="44.002149" lon="2.579459">
        <ele>243.520034</ele>
        <time>2025-02-27T14:26:14.974Z</time>
      </trkpt>
      <trkpt lat="44.002091" lon="2.579326">
        <ele>243.499833</ele>
        <time>2025-02-27T14:26:16.304Z</time>
      </trkpt>
      <trkpt lat="44.002063" lon="2.578968">
        <ele>244.236291</ele>
        <time>2025-02-27T14:26:20.237Z</time>
      </trkpt>
      <trkpt lat="44.002035" lon="2.578855">
        <ele>244.480714</ele>
        <time>2025-02-27T14:26:22.064Z</time>
      </trkpt>
      <trkpt lat="44.001953" lon="2.578701">
        <ele>244.872559</ele>
        <time>2025-02-27T14:26:24.999Z</time>
      </trkpt>
      <trkpt lat="44.001928" lon="2.578656">
        <ele>244.988841</ele>
        <time>2025-02-27T14:26:25.905Z</time>
      </trkpt>
      <trkpt lat="44.001913" lon="2.578629">
        <ele>245.058610</ele>
        <time>2025-02-27T14:26:26.414Z</time>
      </trkpt>
      <trkpt lat="44.001859" lon="2.578504">
        <ele>245.356807</ele>
        <time>2025-02-27T14:26:29.152Z</time>
      </trkpt>
      <trkpt lat="44.001796" lon="2.578260">
        <ele>245.886984</ele>
        <time>2025-02-27T14:26:33.957Z</time>
      </trkpt>
      <trkpt lat="44.001715" lon="2.577834">
        <ele>246.788122</ele>
        <time>2025-02-27T14:26:43.014Z</time>
      </trkpt>
      <trkpt lat="44.001168" lon="2.575944">
        <ele>251.929208</ele>
        <time>2025-02-27T14:27:39.440Z</time>
      </trkpt>
      <trkpt lat="44.001016" lon="2.575224">
        <ele>254.064173</ele>
        <time>2025-02-27T14:27:53.513Z</time>
      </trkpt>
      <trkpt lat="44.000981" lon="2.574976">
        <ele>254.783243</ele>
        <time>2025-02-27T14:27:57.573Z</time>
      </trkpt>
      <trkpt lat="44.000982" lon="2.574770">
        <ele>255.369373</ele>
        <time>2025-02-27T14:28:00.668Z</time>
      </trkpt>
      <trkpt lat="44.001052" lon="2.574078">
        <ele>256.532850</ele>
        <time>2025-02-27T14:28:10.094Z</time>
      </trkpt>
      <trkpt lat="44.001187" lon="2.572783">
        <ele>258.530915</ele>
        <time>2025-02-27T14:28:32.083Z</time>
      </trkpt>
      <trkpt lat="44.001162" lon="2.571752">
        <ele>259.032598</ele>
        <time>2025-02-27T14:28:52.954Z</time>
      </trkpt>
      <trkpt lat="44.001224" lon="2.571425">
        <ele>258.768812</ele>
        <time>2025-02-27T14:28:57.814Z</time>
      </trkpt>
      <trkpt lat="44.001399" lon="2.571017">
        <ele>258.398270</ele>
        <time>2025-02-27T14:29:02.534Z</time>
      </trkpt>
      <trkpt lat="44.001556" lon="2.570391">
        <ele>257.881136</ele>
        <time>2025-02-27T14:29:07.575Z</time>
      </trkpt>
      <trkpt lat="44.001727" lon="2.569599">
        <ele>256.527017</ele>
        <time>2025-02-27T14:29:13.228Z</time>
      </trkpt>
      <trkpt lat="44.001756" lon="2.569322">
        <ele>255.567813</ele>
        <time>2025-02-27T14:29:15.080Z</time>
      </trkpt>
      <trkpt lat="44.001758" lon="2.568858">
        <ele>253.977785</ele>
        <time>2025-02-27T14:29:18.149Z</time>
      </trkpt>
      <trkpt lat="44.001703" lon="2.568529">
        <ele>252.820347</ele>
        <time>2025-02-27T14:29:20.397Z</time>
      </trkpt>
      <trkpt lat="44.001687" lon="2.567985">
        <ele>250.954651</ele>
        <time>2025-02-27T14:29:24.088Z</time>
      </trkpt>
      <trkpt lat="44.001862" lon="2.567309">
        <ele>248.548433</ele>
        <time>2025-02-27T14:29:29.248Z</time>
      </trkpt>
      <trkpt lat="44.001874" lon="2.567017">
        <ele>247.691601</ele>
        <time>2025-02-27T14:29:31.370Z</time>
      </trkpt>
      <trkpt lat="44.001752" lon="2.566540">
        <ele>246.208483</ele>
        <time>2025-02-27T14:29:35.004Z</time>
      </trkpt>
      <trkpt lat="44.001602" lon="2.566051">
        <ele>244.651094</ele>
        <time>2025-02-27T14:29:38.762Z</time>
      </trkpt>
      <trkpt lat="44.001275" lon="2.565447">
        <ele>242.436439</ele>
        <time>2025-02-27T14:29:43.951Z</time>
      </trkpt>
      <trkpt lat="44.001051" lon="2.565197">
        <ele>241.363958</ele>
        <time>2025-02-27T14:29:46.693Z</time>
      </trkpt>
      <trkpt lat="44.000788" lon="2.565040">
        <ele>240.597118</ele>
        <time>2025-02-27T14:29:49.418Z</time>
      </trkpt>
      <trkpt lat="44.000375" lon="2.564898">
        <ele>239.457278</ele>
        <time>2025-02-27T14:29:53.552Z</time>
      </trkpt>
      <trkpt lat="44.000014" lon="2.564834">
        <ele>238.482262</ele>
        <time>2025-02-27T14:29:57.376Z</time>
      </trkpt>
      <trkpt lat="43.999506" lon="2.564783">
        <ele>237.117696</ele>
        <time>2025-02-27T14:30:03.366Z</time>
      </trkpt>
      <trkpt lat="43.999108" lon="2.564785">
        <ele>237.442493</ele>
        <time>2025-02-27T14:30:08.991Z</time>
      </trkpt>
      <trkpt lat="43.998769" lon="2.564842">
        <ele>238.396443</ele>
        <time>2025-02-27T14:30:14.500Z</time>
      </trkpt>
      <trkpt lat="43.998644" lon="2.564804">
        <ele>238.753902</ele>
        <time>2025-02-27T14:30:16.622Z</time>
      </trkpt>
      <trkpt lat="43.998606" lon="2.564704">
        <ele>238.981181</ele>
        <time>2025-02-27T14:30:17.627Z</time>
      </trkpt>
      <trkpt lat="43.998475" lon="2.563083">
        <ele>243.443533</ele>
        <time>2025-02-27T14:30:55.167Z</time>
      </trkpt>
      <trkpt lat="43.998473" lon="2.563017">
        <ele>243.889382</ele>
        <time>2025-02-27T14:30:57.883Z</time>
      </trkpt>
      <trkpt lat="43.998472" lon="2.562897">
        <ele>244.699354</ele>
        <time>2025-02-27T14:31:02.703Z</time>
      </trkpt>
      <trkpt lat="43.998541" lon="2.562480">
        <ele>247.587313</ele>
        <time>2025-02-27T14:31:21.449Z</time>
      </trkpt>
      <trkpt lat="43.998559" lon="2.562428">
        <ele>247.976796</ele>
        <time>2025-02-27T14:31:24.142Z</time>
      </trkpt>
      <trkpt lat="43.998614" lon="2.562286">
        <ele>249.065291</ele>
        <time>2025-02-27T14:31:31.675Z</time>
      </trkpt>
      <trkpt lat="43.999004" lon="2.561473">
        <ele>255.660609</ele>
        <time>2025-02-27T14:32:16.813Z</time>
      </trkpt>
      <trkpt lat="43.999222" lon="2.561146">
        <ele>258.647391</ele>
        <time>2025-02-27T14:32:33.185Z</time>
      </trkpt>
      <trkpt lat="43.999351" lon="2.561029">
        <ele>259.220204</ele>
        <time>2025-02-27T14:32:39.739Z</time>
      </trkpt>
      <trkpt lat="43.999418" lon="2.561010">
        <ele>259.474501</ele>
        <time>2025-02-27T14:32:42.327Z</time>
      </trkpt>
      <trkpt lat="44.000030" lon="2.561202">
        <ele>261.807701</ele>
        <time>2025-02-27T14:32:58.707Z</time>
      </trkpt>
      <trkpt lat="44.000842" lon="2.561725">
        <ele>265.135807</ele>
        <time>2025-02-27T14:33:16.566Z</time>
      </trkpt>
      <trkpt lat="44.001062" lon="2.561808">
        <ele>266.635092</ele>
        <time>2025-02-27T14:33:23.046Z</time>
      </trkpt>
      <trkpt lat="44.001308" lon="2.561801">
        <ele>268.450944</ele>
        <time>2025-02-27T14:33:31.453Z</time>
      </trkpt>
      <trkpt lat="44.001645" lon="2.561725">
        <ele>270.970504</ele>
        <time>2025-02-27T14:33:45.803Z</time>
      </trkpt>
      <trkpt lat="44.002055" lon="2.561513">
        <ele>274.198805</ele>
        <time>2025-02-27T14:34:08.868Z</time>
      </trkpt>
      <trkpt lat="44.002682" lon="2.561494">
        <ele>278.783792</ele>
        <time>2025-02-27T14:34:44.451Z</time>
      </trkpt>
      <trkpt lat="44.002815" lon="2.561393">
        <ele>279.692765</ele>
        <time>2025-02-27T14:34:52.205Z</time>
      </trkpt>
      <trkpt lat="44.003094" lon="2.560966">
        <ele>282.181547</ele>
        <time>2025-02-27T14:35:11.807Z</time>
      </trkpt>
      <trkpt lat="44.003230" lon="2.560883">
        <ele>283.072397</ele>
        <time>2025-02-27T14:35:18.096Z</time>
      </trkpt>
      <trkpt lat="44.003379" lon="2.560887">
        <ele>283.966250</ele>
        <time>2025-02-27T14:35:23.918Z</time>
      </trkpt>
      <trkpt lat="44.004953" lon="2.561493">
        <ele>292.947881</ele>
        <time>2025-02-27T14:36:12.328Z</time>
      </trkpt>
      <trkpt lat="44.005249" lon="2.561549">
        <ele>294.406372</ele>
        <time>2025-02-27T14:36:23.099Z</time>
      </trkpt>
      <trkpt lat="44.005883" lon="2.561539">
        <ele>297.501971</ele>
        <time>2025-02-27T14:36:46.738Z</time>
      </trkpt>
      <trkpt lat="44.006079" lon="2.561631">
        <ele>298.684832</ele>
        <time>2025-02-27T14:36:55.003Z</time>
      </trkpt>
      <trkpt lat="44.006895" lon="2.562207">
        <ele>305.380728</ele>
        <time>2025-02-27T14:37:31.635Z</time>
      </trkpt>
      <trkpt lat="44.007577" lon="2.562529">
        <ele>310.650617</ele>
        <time>2025-02-27T14:38:05.477Z</time>
      </trkpt>
      <trkpt lat="44.007871" lon="2.562590">
        <ele>312.885907</ele>
        <time>2025-02-27T14:38:21.703Z</time>
      </trkpt>
      <trkpt lat="44.008556" lon="2.562563">
        <ele>318.101600</ele>
        <time>2025-02-27T14:38:59.383Z</time>
      </trkpt>
      <trkpt lat="44.008776" lon="2.562583">
        <ele>319.779615</ele>
        <time>2025-02-27T14:39:10.604Z</time>
      </trkpt>
      <trkpt lat="44.009165" lon="2.562884">
        <ele>323.167947</ele>
        <time>2025-02-27T14:39:28.324Z</time>
      </trkpt>
      <trkpt lat="44.009542" lon="2.563007">
        <ele>325.854574</ele>
        <time>2025-02-27T14:39:39.437Z</time>
      </trkpt>
      <trkpt lat="44.009729" lon="2.563095">
        <ele>327.001096</ele>
        <time>2025-02-27T14:39:44.281Z</time>
      </trkpt>
      <trkpt lat="44.010068" lon="2.563423">
        <ele>329.399619</ele>
        <time>2025-02-27T14:39:55.461Z</time>
      </trkpt>
      <trkpt lat="44.010219" lon="2.563511">
        <ele>330.350471</ele>
        <time>2025-02-27T14:40:00.670Z</time>
      </trkpt>
      <trkpt lat="44.010418" lon="2.563528">
        <ele>331.508345</ele>
        <time>2025-02-27T14:40:07.613Z</time>
      </trkpt>
      <trkpt lat="44.010612" lon="2.563508">
        <ele>332.638096</ele>
        <time>2025-02-27T14:40:15.089Z</time>
      </trkpt>
      <trkpt lat="44.010826" lon="2.563437">
        <ele>333.915796</ele>
        <time>2025-02-27T14:40:24.670Z</time>
      </trkpt>
      <trkpt lat="44.011020" lon="2.563280">
        <ele>335.219398</ele>
        <time>2025-02-27T14:40:36.143Z</time>
      </trkpt>
      <trkpt lat="44.011135" lon="2.563083">
        <ele>337.119365</ele>
        <time>2025-02-27T14:40:46.864Z</time>
      </trkpt>
      <trkpt lat="44.011182" lon="2.562951">
        <ele>338.366186</ele>
        <time>2025-02-27T14:40:53.229Z</time>
      </trkpt>
      <trkpt lat="44.011222" lon="2.562661">
        <ele>340.865780</ele>
        <time>2025-02-27T14:41:06.333Z</time>
      </trkpt>
      <trkpt lat="44.011220" lon="2.562276">
        <ele>344.124896</ele>
        <time>2025-02-27T14:41:24.710Z</time>
      </trkpt>
      <trkpt lat="44.011280" lon="2.562104">
        <ele>345.743105</ele>
        <time>2025-02-27T14:41:34.072Z</time>
      </trkpt>
      <trkpt lat="44.011359" lon="2.562009">
        <ele>346.972446</ele>
        <time>2025-02-27T14:41:41.115Z</time>
      </trkpt>
      <trkpt lat="44.011528" lon="2.561961">
        <ele>349.002648</ele>
        <time>2025-02-27T14:41:52.872Z</time>
      </trkpt>
      <trkpt lat="44.011742" lon="2.561953">
        <ele>351.522335</ele>
        <time>2025-02-27T14:42:07.077Z</time>
      </trkpt>
      <trkpt lat="44.011820" lon="2.561923">
        <ele>352.474869</ele>
        <time>2025-02-27T14:42:12.432Z</time>
      </trkpt>
      <trkpt lat="44.012422" lon="2.561483">
        <ele>360.041395</ele>
        <time>2025-02-27T14:42:54.641Z</time>
      </trkpt>
      <trkpt lat="44.012561" lon="2.561407">
        <ele>361.599179</ele>
        <time>2025-02-27T14:43:03.135Z</time>
      </trkpt>
      <trkpt lat="44.013268" lon="2.561146">
        <ele>369.228436</ele>
        <time>2025-02-27T14:43:43.890Z</time>
      </trkpt>
      <trkpt lat="44.013488" lon="2.560952">
        <ele>371.945486</ele>
        <time>2025-02-27T14:43:57.832Z</time>
      </trkpt>
      <trkpt lat="44.013788" lon="2.560534">
        <ele>376.296625</ele>
        <time>2025-02-27T14:44:20.174Z</time>
      </trkpt>
      <trkpt lat="44.014121" lon="2.560224">
        <ele>380.143745</ele>
        <time>2025-02-27T14:44:41.497Z</time>
      </trkpt>
      <trkpt lat="44.014248" lon="2.560043">
        <ele>381.889608</ele>
        <time>2025-02-27T14:44:51.256Z</time>
      </trkpt>
      <trkpt lat="44.014477" lon="2.559359">
        <ele>387.098599</ele>
        <time>2025-02-27T14:45:21.605Z</time>
      </trkpt>
      <trkpt lat="44.014621" lon="2.558284">
        <ele>393.843855</ele>
        <time>2025-02-27T14:46:03.905Z</time>
      </trkpt>
      <trkpt lat="44.014783" lon="2.557778">
        <ele>396.123191</ele>
        <time>2025-02-27T14:46:21.227Z</time>
      </trkpt>
      <trkpt lat="44.014964" lon="2.557437">
        <ele>397.867318</ele>
        <time>2025-02-27T14:46:32.460Z</time>
      </trkpt>
      <trkpt lat="44.015087" lon="2.557262">
        <ele>398.874307</ele>
        <time>2025-02-27T14:46:38.273Z</time>
      </trkpt>
      <trkpt lat="44.015540" lon="2.556773">
        <ele>402.155915</ele>
        <time>2025-02-27T14:46:54.976Z</time>
      </trkpt>
      <trkpt lat="44.015709" lon="2.556542">
        <ele>403.527820</ele>
        <time>2025-02-27T14:47:01.390Z</time>
      </trkpt>
      <trkpt lat="44.015807" lon="2.556331">
        <ele>404.590604</ele>
        <time>2025-02-27T14:47:06.318Z</time>
      </trkpt>
      <trkpt lat="44.015921" lon="2.555972">
        <ele>406.251088</ele>
        <time>2025-02-27T14:47:14.565Z</time>
      </trkpt>
      <trkpt lat="44.016545" lon="2.555046">
        <ele>411.620436</ele>
        <time>2025-02-27T14:47:51.195Z</time>
      </trkpt>
      <trkpt lat="44.016833" lon="2.554526">
        <ele>414.861454</ele>
        <time>2025-02-27T14:48:13.830Z</time>
      </trkpt>
      <trkpt lat="44.016869" lon="2.554311">
        <ele>416.296151</ele>
        <time>2025-02-27T14:48:21.945Z</time>
      </trkpt>
      <trkpt lat="44.016804" lon="2.553650">
        <ele>420.632078</ele>
        <time>2025-02-27T14:48:46.957Z</time>
      </trkpt>
      <trkpt lat="44.016807" lon="2.553470">
        <ele>421.802243</ele>
        <time>2025-02-27T14:48:53.728Z</time>
      </trkpt>
      <trkpt lat="44.016837" lon="2.553105">
        <ele>424.189883</ele>
        <time>2025-02-27T14:49:07.587Z</time>
      </trkpt>
      <trkpt lat="44.016875" lon="2.552966">
        <ele>425.156342</ele>
        <time>2025-02-27T14:49:13.385Z</time>
      </trkpt>
      <trkpt lat="44.017036" lon="2.552763">
        <ele>427.120457</ele>
        <time>2025-02-27T14:49:24.831Z</time>
      </trkpt>
      <trkpt lat="44.017364" lon="2.552352">
        <ele>430.984592</ele>
        <time>2025-02-27T14:49:48.349Z</time>
      </trkpt>
      <trkpt lat="44.018051" lon="2.550983">
        <ele>440.800272</ele>
        <time>2025-02-27T14:50:46.264Z</time>
      </trkpt>
      <trkpt lat="44.018415" lon="2.550577">
        <ele>444.604508</ele>
        <time>2025-02-27T14:51:06.471Z</time>
      </trkpt>
      <trkpt lat="44.018840" lon="2.550235">
        <ele>448.255151</ele>
        <time>2025-02-27T14:51:27.356Z</time>
      </trkpt>
      <trkpt lat="44.019153" lon="2.549564">
        <ele>452.531198</ele>
        <time>2025-02-27T14:51:51.806Z</time>
      </trkpt>
      <trkpt lat="44.019509" lon="2.548910">
        <ele>456.916478</ele>
        <time>2025-02-27T14:52:19.387Z</time>
      </trkpt>
      <trkpt lat="44.020066" lon="2.548210">
        <ele>461.897433</ele>
        <time>2025-02-27T14:52:55.402Z</time>
      </trkpt>
      <trkpt lat="44.020486" lon="2.546920">
        <ele>468.486366</ele>
        <time>2025-02-27T14:53:35.117Z</time>
      </trkpt>
      <trkpt lat="44.020995" lon="2.545716">
        <ele>473.839896</ele>
        <time>2025-02-27T14:54:06.162Z</time>
      </trkpt>
      <trkpt lat="44.021117" lon="2.545340">
        <ele>475.358252</ele>
        <time>2025-02-27T14:54:15.244Z</time>
      </trkpt>
      <trkpt lat="44.021125" lon="2.545109">
        <ele>476.209504</ele>
        <time>2025-02-27T14:54:20.911Z</time>
      </trkpt>
      <trkpt lat="44.021091" lon="2.544840">
        <ele>477.214822</ele>
        <time>2025-02-27T14:54:28.252Z</time>
      </trkpt>
      <trkpt lat="44.020745" lon="2.544019">
        <ele>481.502261</ele>
        <time>2025-02-27T14:54:58.983Z</time>
      </trkpt>
      <trkpt lat="44.020335" lon="2.543127">
        <ele>486.923026</ele>
        <time>2025-02-27T14:55:32.748Z</time>
      </trkpt>
      <trkpt lat="44.020293" lon="2.542947">
        <ele>487.892013</ele>
        <time>2025-02-27T14:55:38.523Z</time>
      </trkpt>
      <trkpt lat="44.020267" lon="2.542835">
        <ele>488.494646</ele>
        <time>2025-02-27T14:55:42.335Z</time>
      </trkpt>
      <trkpt lat="44.020291" lon="2.542663">
        <ele>489.391791</ele>
        <time>2025-02-27T14:55:47.931Z</time>
      </trkpt>
      <trkpt lat="44.020367" lon="2.542519">
        <ele>490.306418</ele>
        <time>2025-02-27T14:55:53.829Z</time>
      </trkpt>
      <trkpt lat="44.020473" lon="2.542441">
        <ele>491.160367</ele>
        <time>2025-02-27T14:55:59.426Z</time>
      </trkpt>
      <trkpt lat="44.020798" lon="2.542353">
        <ele>493.275589</ele>
        <time>2025-02-27T14:56:13.781Z</time>
      </trkpt>
      <trkpt lat="44.020938" lon="2.542286">
        <ele>494.202016</ele>
        <time>2025-02-27T14:56:19.232Z</time>
      </trkpt>
      <trkpt lat="44.021117" lon="2.542104">
        <ele>495.589489</ele>
        <time>2025-02-27T14:56:26.838Z</time>
      </trkpt>
      <trkpt lat="44.021180" lon="2.542002">
        <ele>496.194488</ele>
        <time>2025-02-27T14:56:29.697Z</time>
      </trkpt>
      <trkpt lat="44.021427" lon="2.541624">
        <ele>498.492600</ele>
        <time>2025-02-27T14:56:42.217Z</time>
      </trkpt>
      <trkpt lat="44.021636" lon="2.541492">
        <ele>499.928901</ele>
        <time>2025-02-27T14:56:51.276Z</time>
      </trkpt>
      <trkpt lat="44.021752" lon="2.541470">
        <ele>500.661453</ele>
        <time>2025-02-27T14:56:56.264Z</time>
      </trkpt>
      <trkpt lat="44.022014" lon="2.541492">
        <ele>502.303822</ele>
        <time>2025-02-27T14:57:08.177Z</time>
      </trkpt>
      <trkpt lat="44.022215" lon="2.541409">
        <ele>503.801034</ele>
        <time>2025-02-27T14:57:17.655Z</time>
      </trkpt>
      <trkpt lat="44.022383" lon="2.541218">
        <ele>505.457283</ele>
        <time>2025-02-27T14:57:27.151Z</time>
      </trkpt>
      <trkpt lat="44.023017" lon="2.540165">
        <ele>512.994969</ele>
        <time>2025-02-27T14:58:13.230Z</time>
      </trkpt>
      <trkpt lat="44.023689" lon="2.539310">
        <ele>519.458056</ele>
        <time>2025-02-27T14:58:54.583Z</time>
      </trkpt>
      <trkpt lat="44.024126" lon="2.538816">
        <ele>523.146680</ele>
        <time>2025-02-27T14:59:17.504Z</time>
      </trkpt>
      <trkpt lat="44.024391" lon="2.538530">
        <ele>525.343745</ele>
        <time>2025-02-27T14:59:30.855Z</time>
      </trkpt>
      <trkpt lat="44.024571" lon="2.538255">
        <ele>527.095160</ele>
        <time>2025-02-27T14:59:41.114Z</time>
      </trkpt>
      <trkpt lat="44.024740" lon="2.537794">
        <ele>529.336575</ele>
        <time>2025-02-27T14:59:54.876Z</time>
      </trkpt>
      <trkpt lat="44.024878" lon="2.537576">
        <ele>530.490332</ele>
        <time>2025-02-27T15:00:02.526Z</time>
      </trkpt>
      <trkpt lat="44.025040" lon="2.537471">
        <ele>531.477733</ele>
        <time>2025-02-27T15:00:09.249Z</time>
      </trkpt>
      <trkpt lat="44.025512" lon="2.537319">
        <ele>534.154320</ele>
        <time>2025-02-27T15:00:27.401Z</time>
      </trkpt>
      <trkpt lat="44.025789" lon="2.537117">
        <ele>535.882235</ele>
        <time>2025-02-27T15:00:38.561Z</time>
      </trkpt>
      <trkpt lat="44.026443" lon="2.536416">
        <ele>540.643844</ele>
        <time>2025-02-27T15:01:08.404Z</time>
      </trkpt>
      <trkpt lat="44.026680" lon="2.536205">
        <ele>542.338233</ele>
        <time>2025-02-27T15:01:19.437Z</time>
      </trkpt>
      <trkpt lat="44.027141" lon="2.536042">
        <ele>545.202347</ele>
        <time>2025-02-27T15:01:38.780Z</time>
      </trkpt>
      <trkpt lat="44.027342" lon="2.535925">
        <ele>546.514351</ele>
        <time>2025-02-27T15:01:47.754Z</time>
      </trkpt>
      <trkpt lat="44.028569" lon="2.534790">
        <ele>554.140205</ele>
        <time>2025-02-27T15:02:45.369Z</time>
      </trkpt>
      <trkpt lat="44.028735" lon="2.534637">
        <ele>555.103349</ele>
        <time>2025-02-27T15:02:51.707Z</time>
      </trkpt>
      <trkpt lat="44.028839" lon="2.534581">
        <ele>555.642724</ele>
        <time>2025-02-27T15:02:55.105Z</time>
      </trkpt>
      <trkpt lat="44.028943" lon="2.534574">
        <ele>556.146307</ele>
        <time>2025-02-27T15:02:58.101Z</time>
      </trkpt>
      <trkpt lat="44.029738" lon="2.534894">
        <ele>557.748485</ele>
        <time>2025-02-27T15:03:18.398Z</time>
      </trkpt>
      <trkpt lat="44.029842" lon="2.534886">
        <ele>557.748485</ele>
        <time>2025-02-27T15:03:20.774Z</time>
      </trkpt>
      <trkpt lat="44.029881" lon="2.534963">
        <ele>557.748485</ele>
        <time>2025-02-27T15:03:22.295Z</time>
      </trkpt>
      <trkpt lat="44.029914" lon="2.534976">
        <ele>557.748485</ele>
        <time>2025-02-27T15:03:23.085Z</time>
      </trkpt>
      <trkpt lat="44.029920" lon="2.535074">
        <ele>557.748485</ele>
        <time>2025-02-27T15:03:24.662Z</time>
      </trkpt>
      <trkpt lat="44.029968" lon="2.535163">
        <ele>557.748485</ele>
        <time>2025-02-27T15:03:26.450Z</time>
      </trkpt>
      <trkpt lat="44.030375" lon="2.535586">
        <ele>557.748485</ele>
        <time>2025-02-27T15:03:37.259Z</time>
      </trkpt>
      <trkpt lat="44.030613" lon="2.535792">
        <ele>557.748485</ele>
        <time>2025-02-27T15:03:43.050Z</time>
      </trkpt>
      <trkpt lat="44.030756" lon="2.535905">
        <ele>557.748485</ele>
        <time>2025-02-27T15:03:46.367Z</time>
      </trkpt>
      <trkpt lat="44.030849" lon="2.535938">
        <ele>557.748485</ele>
        <time>2025-02-27T15:03:48.326Z</time>
      </trkpt>
      <trkpt lat="44.030924" lon="2.535706">
        <ele>557.748485</ele>
        <time>2025-02-27T15:03:52.104Z</time>
      </trkpt>
    </trkseg>
  </trk>
</gpx>